     2              OBSERVATION DATA    GPS                 RINEX VERSION / TYPE
teqc 2000Feb29 Duncan Agnew 20000428 21:02:04UTC            PGM / RUN BY / DATE
                                                            COMMENT
L2: 1 -> 1; 150 -> 5; 250 -> 9                              COMMENT
L2: 1 -> 1; 150 -> 5; 250 -> 9                              COMMENT
L2: 1 -> 1; 150 -> 5; 250 -> 9                              COMMENT
L2: 1 -> 1; 150 -> 5; 250 -> 9                              COMMENT
L2: 1 -> 1; 150 -> 5; 250 -> 9                              COMMENT
Original Marker Name: SCP4                                  COMMENT
Campaign Name: Hector Postseismic                           COMMENT
4-Character Station Name: SCP4                              COMMENT
6-Character Antenna Code: DMRCHT                            COMMENT
Vertical Measurement Point: BCR                             COMMENT
Vertical Offset to Rinex Ref. Point: 0.0348                 COMMENT
Radial Measurement Point: ECF                               COMMENT
Radial Offset to Rinex Ref. Point: 0.1897                   COMMENT
Antenna Height from Field Measurement: 0.7510 m             COMMENT
Additional Antenna Identification Info.:                    COMMENT
Turborogue and Ashtech Choke Ring                           COMMENT
Original XYZ: -2326492.4641 -4730955.4887 3578764.3453      COMMENT
New XYZ position is based on association with SCEC monument COMMENT
E1F2H1Q0+0011. Position of that monument is believed to be  COMMENT
valid to within 1 m horizontally; vertical accuracy         COMMENT
should be no worse than 3-times this value.                 COMMENT
                                                            COMMENT
Revised Rinex header created by UCSD GPS archive for        COMMENT
GSAC on 17-Jun-2000 (2000:169) 00:23:49 GMT                 COMMENT
For assistance contact dagnew@ucsd.edu                      COMMENT
or anderson@python.ucsd.edu                                 COMMENT
                                                            COMMENT
BLADE 1975                                                  MARKER NAME
SEO UNIV SOUTHERN CALIFORNIA                                OBSERVER / AGENCY
192 ASHTECH Z-XII3 CD00                                     REC # / TYPE / VERS
365 DORNE-MARGOL. TYPE T                                    ANT # / TYPE
 -2326505.0078 -4730926.0335  3578746.3408                  APPROX POSITION XYZ
        0.6918        0.0000        0.0000                  ANTENNA: DELTA H/E/N
     1     1     0                                          WAVELENGTH FACT L1/2
     7    C1    L1    L2    P1    P2    S1    S2            # / TYPES OF OBSERV
     0                                                      INTERVAL
  2000     2     5     0     0   30.000000                  TIME OF FIRST OBS
  2000     2     5    23    59    0.000000                  TIME OF LAST OBS
                                                            END OF HEADER
 00  2  5  0  0 30.0000000  0  7G 5G24G 4G10G 9G 7G30
  20835664.034   -25277003.06549 -19680980.55748  20835663.490    20835671.332
       248.000         215.000
  20190767.028   -26313890.92749 -19818841.94048  20190766.893    20190774.847
       245.000         218.000
  21356271.739   -20172312.92449 -15404221.07447  21356271.981    21356279.635
       241.000         203.000
  24050055.282    -7761288.49249  -6020831.42945  24050054.144    24050068.173
       209.000         153.000
  22220448.212   -17917987.21649 -13945425.59447  22220447.994    22220457.746
       234.000         193.000
  24133972.314    -5386357.60249  -3858395.18345  24133972.079    24133983.183
       210.000         147.000
  23605290.575    -5920427.97049  -4597270.92245  23605290.867    23605301.919
       215.000         161.000
 00  2  5  0  1  0.0000000  0  7G 5G24G 4G10G 9G 7G30
  20825624.685   -25329760.00049 -19722089.80948  20825624.130    20825631.876
       247.000         215.000
  20189971.434   -26318071.88649 -19822099.80548  20189971.304    20189979.241
       245.000         218.000
  21370099.521   -20099647.60149 -15347598.76547  21370099.878    21370107.493
       240.000         203.000
  24030942.008    -7861728.48749  -6099096.12845  24030941.116    24030955.372
       213.000         154.000
  22233877.234   -17847417.61549 -13890436.34547  22233877.257    22233886.745
       235.000         193.000
  24146812.435    -5318882.79749  -3805817.44345  24146812.520    24146823.204
       211.000         148.000
  23586558.910    -6018863.00449  -4673973.32645  23586558.935    23586569.929
       216.000         162.000
 00  2  5  0  1 30.0000000  0  7G 5G24G 4G10G 9G 7G30
  20815662.769   -25382110.13449 -19762882.07748  20815662.147    20815670.018
       247.000         215.000
  20189284.151   -26321683.38549 -19824913.93248  20189284.089    20189292.103
       245.000         218.000
  21383999.668   -20026601.89749 -15290680.05847  21383999.755    21384007.515
       240.000         203.000
  24011830.812    -7962157.84249  -6177352.53345  24011829.257    24011842.898
       211.000         155.000
  22247374.722   -17776487.82549 -13835166.43247  22247374.633    22247384.175
       235.000         193.000
  24159662.689    -5251354.62049  -3753198.10645  24159661.834    24159673.437
       213.000         147.000
  23567842.071    -6117219.93749  -4750614.85746  23567841.843    23567852.658
       217.000         164.000
 00  2  5  0  2  0.0000000  0  7G 5G24G 4G10G 9G 7G30
  20805779.120   -25434048.95349 -19803353.83748  20805778.439    20805786.403
       248.000         215.000
  20188702.284   -26324741.01349 -19827296.47048  20188702.132    20188710.338
       245.000         218.000
  21397973.739   -19953167.62649 -15233458.57147  21397974.131    21397981.677
       240.000         203.000
  23992722.643    -8062571.07449  -6255596.36245  23992721.505    23992735.591
       211.000         156.000
  22260942.173   -17705190.64849 -13779610.24747  22260942.220    22260951.619
       234.000         193.000
  24172522.857    -5183774.10649  -3700537.99945  24172523.980    24172533.419
       210.000         147.000
  23549145.027    -6215473.00049  -4827175.44746  23549144.866    23549155.605
       219.000         164.000
 00  2  5  0  2 30.0000000  0  7G 5G24G 4G10G 9G 7G30
  20795969.781   -25485597.16449 -19843521.23248  20795969.170    20795976.952
       248.000         215.000
  20188222.648   -26327261.43849 -19829260.40948  20188222.315    20188230.441
       245.000         218.000
  21412016.390   -19879373.15549 -15175956.40847  21412016.739    21412024.461
       240.000         202.000
  23973618.631    -8162962.48949  -6333823.19445  23973617.830    23973631.716
       213.000         157.000
  22274579.339   -17633527.06449 -13723768.54947  22274579.300    22274589.044
       234.000         192.000
  24185393.685    -5116137.70149  -3647834.33145  24185393.381    24185404.168
       212.000         147.000
  23530469.693    -6313611.71849  -4903646.93546  23530469.355    23530480.490
       219.000         165.000
 00  2  5  0  3  0.0000000  0  7G 5G24G 4G10G 9G 7G30
  20786231.054   -25536774.38849 -19883399.54448  20786230.502    20786238.296
       248.000         215.000
  20187844.047   -26329250.74749 -19830810.48948  20187843.857    20187852.023
       245.000         218.000
  21426123.900   -19805237.81549 -15118188.63347  21426124.103    21426131.931
       240.000         202.000
  23954518.158    -8263335.40249  -6412035.60045  23954516.763    23954530.784
       215.000         157.000
  22288280.991   -17561524.72849 -13667662.89047  22288280.954    22288290.659
       234.000         192.000
  24198272.873    -5048457.02049  -3595096.16545  24198272.345    24198282.494
       212.000         146.000
  23511816.269    -6411635.25849  -4980028.66546  23511815.909    23511826.331
       219.000         165.000
 00  2  5  0  3 30.0000000  0  8G 5G24G 6G 4G10G 9G 7G30
  20776560.514   -25587593.23349 -19922998.60048  20776559.827    20776567.592
       247.000         215.000
  20187564.993   -26330717.13149 -19831953.09248  20187564.660    20187572.741
       245.000         218.000
  24867420.010    -5544987.56649  -4065066.65845  24867419.334    24867432.717
       211.000         144.000
  21440294.918   -19730768.69249 -15060160.76847  21440294.813    21440302.884
       240.000         202.000
  23935420.262    -8363694.29949  -6490237.09145  23935418.694    23935432.628
       213.000         158.000
  22302043.080   -17489204.71049 -13611309.69247  22302043.197    22302052.741
       234.000         192.000
  24211158.339    -4980743.48849  -3542332.39545  24211157.514    24211168.616
       211.000         146.000
  23493184.554    -6509544.86249  -5056321.62646  23493184.137    23493194.883
       220.000         166.000
 00  2  5  0  4  0.0000000  0  8G 5G24G 6G 4G10G 9G 7G30
  20766954.233   -25638074.23749 -19962334.40348  20766953.817    20766961.394
       248.000         216.000
  20187382.710   -26331674.78349 -19832699.27948  20187382.446    20187390.537
       245.000         218.000
  24853894.430    -5616064.88849  -4120451.57245  24853893.627    24853907.838
       211.000         145.000
  21454524.208   -19655993.31349 -15001894.25947  21454524.642    21454532.393
       240.000         202.000
  23916324.104    -8464044.47749  -6568431.78045  23916323.054    23916337.352
       216.000         158.000
  22315864.839   -17416571.20649 -13554712.21247  22315865.068    22315874.445
       234.000         192.000
  24224049.730    -4912999.01449  -3489544.52045  24224048.560    24224060.955
       212.000         145.000
  23474573.280    -6607346.84249  -5132530.73146  23474572.662    23474583.484
       220.000         166.000
 00  2  5  0  4 30.0000000  0  8G 5G24G 6G 4G10G 9G 7G30
  20757414.200   -25688207.40649 -20001399.16948  20757413.702    20757421.206
       248.000         216.000
  20187302.206   -26332097.65749 -19833028.76148  20187302.192    20187310.248
       245.000         218.000
  24840375.466    -5687107.53849  -4175809.47245  24840374.696    24840388.619
       211.000         146.000
  21468813.799   -19580901.05949 -14943380.83447  21468813.859    21468821.653
       240.000         201.000
  23897233.166    -8564367.13649  -6646605.03245  23897231.611    23897245.633
       215.000         158.000
  22329746.564   -17343622.55549 -13497869.16947  22329746.778    22329756.127
       234.000         191.000
  24236949.512    -4845210.33049  -3436722.19845  24236948.899    24236959.772
       213.000         145.000
  23455983.382    -6705036.54349  -5208652.36346  23455983.191    23455993.141
       221.000         166.000
 00  2  5  0  5  0.0000000  0  8G 5G24G 6G 4G10G 9G 7G30
  20747944.324   -25737971.63049 -20040176.44548  20747943.618    20747951.396
       248.000         216.000
  20187323.340   -26331986.58249 -19832942.17348  20187323.147    20187331.121
       245.000         218.000
  24826864.586    -5758107.64449  -4231134.21645  24826864.669    24826877.778
       212.000         147.000
  21483165.465   -19505482.61849 -14884613.23747  21483165.794    21483173.600
       239.000         201.000
  23878145.945    -8664670.17549  -6724763.00545  23878144.724    23878158.493
       215.000         158.000
  22343687.010   -17270365.26249 -13440785.62347  22343687.247    22343696.235
       234.000         191.000
  24249856.593    -4777383.11449  -3383869.83245  24249856.554    24249867.802
       212.000         144.000
  23437413.191    -6802622.52049  -5284693.17546  23437412.967    23437424.233
       222.000         166.000
 00  2  5  0  5 30.0000000  0  8G 5G24G 6G 4G10G 9G 7G30
  20738548.713   -25787345.66649 -20078649.68248  20738548.122    20738555.853
       248.000         216.000
  20187441.486   -26331365.46949 -19832458.15548  20187441.145    20187449.161
       245.000         218.000
  24813360.484    -5829072.09749  -4286431.18245  24813360.608    24813373.243
       211.000         149.000
  21497580.571   -19429730.98649 -14825586.01147  21497580.685    21497588.694
       239.000         201.000
  23859063.509    -8764948.14149  -6802901.45345  23859061.705    23859076.141
       217.000         158.000
  22357688.679   -17196785.96449 -13383451.16947  22357688.574    22357698.377
       234.000         191.000
  24262773.145    -4709506.57849  -3330979.03545  24262771.553    24262783.552
       211.000         144.000
  23418863.424    -6900101.43349  -5360650.57946  23418864.208    23418872.723
       221.000         166.000
 00  2  5  0  6  0.0000000  0  8G 5G24G 6G 4G10G 9G 7G30
  20729227.382   -25836329.50649 -20116818.86648  20729226.705    20729234.648
       248.000         216.000
  20187653.054   -26330253.58049 -19831591.71048  20187652.799    20187660.824
       245.000         218.000
  24799861.477    -5900009.87649  -4341707.35045  24799861.343    24799874.810
       212.000         150.000
  21512057.837   -19353652.48449 -14766304.07947  21512058.022    21512065.475
       239.000         201.000
  23839985.674    -8865201.89149  -6881021.03545  23839983.543    23839997.298
       216.000         158.000
  22371751.406   -17122886.11449 -13325866.92847  22371751.479    22371760.921
       233.000         191.000
  24275697.273    -4641589.95849  -3278057.00345  24275696.595    24275707.831
       212.000         144.000
  23400333.976    -6997473.48749  -5436524.73846  23400333.406    23400343.962
       222.000         166.000
 00  2  5  0  6 30.0000000  0  8G 5G24G 6G 4G10G 9G 7G30
  20719982.081   -25884913.59049 -20154676.55748  20719981.405    20719989.186
       248.000         216.000
  20187956.423   -26328659.27349 -19830349.36048  20187956.279    20187964.322
       245.000         218.000
  24786367.576    -5970920.55549  -4396962.37745  24786367.235    24786381.295
       213.000         151.000
  21526595.028   -19277259.10749 -14706776.79347  21526595.138    21526603.035
       239.000         200.000
  23820911.464    -8965436.70149  -6959125.86645  23820909.907    23820924.272
       217.000         158.000
  22385873.396   -17048674.71049 -13268039.92447  22385873.622    22385883.007
       233.000         190.000
  24288626.671    -4573645.57749  -3225113.34245  24288626.644    24288636.930
       213.000         144.000
  23381824.610    -7094740.21149  -5512316.84046  23381824.730    23381834.561
       222.000         165.000
 00  2  5  0  7  0.0000000  0  8G 5G24G 6G 4G10G 9G 7G30
  20710814.208   -25933090.96449 -20192217.32748  20710813.572    20710821.231
       248.000         216.000
  20188349.925   -26326591.22149 -19828737.85648  20188349.816    20188357.786
       245.000         218.000
  24772877.718    -6041810.37549  -4452201.12245  24772877.504    24772890.986
       212.000         152.000
  21541189.477   -19200564.77349 -14647014.99147  21541189.785    21541197.556
       239.000         200.000
  23801843.040    -9065640.79349  -7037206.77745  23801841.878    23801854.804
       215.000         157.000
  22400055.162   -16974149.07149 -13209968.05547  22400055.304    22400064.911
       232.000         190.000
  24301560.977    -4505675.19849  -3172149.41145  24301560.050    24301570.957
       213.000         145.000
  23363337.054    -7191892.37649  -5588019.70146  23363337.758    23363347.095
       222.000         165.000
 00  2  5  0  7 30.0000000  0  8G 5G24G 6G 4G10G 9G 7G30
  20701720.301   -25980879.70149 -20229455.26748  20701719.788    20701727.550
       248.000         216.000
  20188833.349   -26324050.76749 -19826758.24948  20188833.052    20188840.911
       245.000         218.000
  24759391.075    -6112682.94349  -4507426.39845  24759390.681    24759403.945
       211.000         152.000
  21555840.553   -19123572.87749 -14587021.32347  21555840.942    21555848.798
       239.000         200.000
  23782780.657    -9165813.41549  -7115263.15845  23782779.514    23782793.587
       216.000         157.000
  22414295.024   -16899318.31949 -13151658.44547  22414295.086    22414304.635
       233.000         190.000
  24314498.997    -4437685.68249  -3119170.57445  24314498.643    24314509.043
       212.000         145.000
  23344873.310    -7288919.41749  -5663625.06446  23344873.450    23344883.117
       222.000         166.000
 00  2  5  0  8  0.0000000  0  8G 5G24G 6G 4G10G 9G 7G30
  20692696.531   -26028299.73549 -20266405.90248  20692695.855    20692703.472
       248.000         217.000
  20189409.638   -26321022.17349 -19824398.27248  20189409.463    20189417.379
       245.000         218.000
  24745912.171    -6183514.48549  -4562619.68545  24745911.502    24745925.654
       212.000         152.000
  21570547.847   -19046285.75549 -14526797.60847  21570548.310    21570556.050
       238.000         200.000
  23763723.249    -9265959.73749  -7193299.04645  23763721.438    23763734.972
       215.000         157.000
  22428591.517   -16824190.08649 -13093117.01847  22428591.739    22428601.156
       232.000         190.000
  24327438.428    -4369688.63249  -3066185.86645  24327438.405    24327448.931
       211.000         145.000
  23326431.685    -7385830.16849  -5739139.81346  23326431.717    23326441.494
       222.000         165.000
 00  2  5  0  8 30.0000000  0  8G 5G24G 6G 4G10G 9G 7G30
  20683741.831   -26075356.79449 -20303073.70448  20683741.264    20683749.027
       247.000         217.000
  20190082.425   -26317486.59549 -19821643.24848  20190082.227    20190090.265
       245.000         218.000
  24732441.126    -6254304.81149  -4617780.81645  24732440.778    24732453.930
       210.000         151.000
  21585311.778   -18968700.74749 -14466341.78047  21585311.800    21585319.803
       239.000         199.000
  23744672.863    -9366069.31449  -7271306.31245  23744671.486    23744685.300
       215.000         156.000
  22442944.969   -16748762.51449 -13034342.35147  22442945.052    22442954.818
       232.000         189.000
  24340379.822    -4301681.26049  -3013193.11145  24340379.906    24340390.501
       212.000         145.000
  23308011.058    -7482630.44449  -5814568.49646  23308011.180    23308020.798
       221.000         165.000
 00  2  5  0  9  0.0000000  0  8G 5G24G 6G 4G10G 9G 7G30
  20674853.524   -26122065.04149 -20339469.69948  20674852.897    20674860.604
       247.000         217.000
  20190853.149   -26313436.25149 -19818487.10548  20190853.143    20190860.932
       245.000         218.000
  24718977.634    -6325055.55249  -4672911.08745  24718978.088    24718990.997
       209.000         151.000
  21600136.745   -18890795.23849 -14405636.20647  21600137.076    21600144.866
       238.000         199.000
  23725630.317    -9466137.59949  -7349281.39845  23725629.868    23725642.431
       215.000         156.000
  22457354.717   -16673038.94749 -12975337.03347  22457355.087    22457364.303
       232.000         189.000
  24353324.382    -4233657.18149  -2960187.33345  24353324.105    24353334.572
       212.000         145.000
  23289612.486    -7579315.01449  -5889907.01846  23289612.737    23289622.723
       221.000         165.000
 00  2  5  0  9 30.0000000  0  8G 5G24G 6G 4G10G 9G 7G30
  20666030.507   -26168430.07449 -20375598.25748  20666029.855    20666037.553
       246.000         217.000
  20191722.374   -26308868.39949 -19814927.71348  20191722.122    20191730.010
       245.000         218.000
  24705522.289    -6395763.37249  -4728007.89445  24705522.203    24705534.378
       209.000         150.000
  21615024.587   -18812559.29149 -14344673.15447  21615024.800    21615032.408
       238.000         199.000
  23706594.114    -9566172.65149  -7427230.58645  23706592.238    23706606.317
       215.000         155.000
  22471821.903   -16597013.72649 -12916096.66047  22471821.602    22471831.490
       232.000         189.000
  24366271.571    -4165619.09449  -2907170.64045  24366271.032    24366282.796
       210.000         145.000
  23271235.869    -7675884.14549  -5965155.58746  23271235.399    23271245.971
       221.000         165.000
 00  2  5  0 10  0.0000000  0  8G 5G24G 6G 4G10G 9G 7G30
  20657274.326   -26214443.98449 -20411453.21248  20657273.727    20657281.361
       246.000         217.000
  20192689.226   -26303787.25649 -19810968.35648  20192689.222    20192696.971
       245.000         218.000
  24692075.957    -6466423.70449  -4783067.68545  24692075.072    24692088.604
       211.000         150.000
  21629972.125   -18734009.49149 -14283465.54247  21629972.152    21629980.246
       239.000         199.000
  23687567.042    -9666159.77949  -7505142.43845  23687565.939    23687579.106
       213.000         155.000
  22486348.622   -16520675.72949 -12856612.57047  22486348.885    22486358.456
       232.000         189.000
  24379221.433    -4097567.39949  -2854143.33545  24379220.267    24379233.625
       211.000         144.000
  23252879.198    -7772348.61549  -6040322.59046  23252879.437    23252888.056
       221.000         164.000
 00  2  5  0 10 30.0000000  0  8G 5G24G 6G 4G10G 9G 7G30
  20648588.549   -26260087.85649 -20447019.82648  20648587.930    20648595.629
       247.000         217.000
  20193752.853   -26298197.89449 -19806612.98448  20193752.616    20193760.619
       245.000         218.000
  24678635.295    -6537054.41749  -4838104.38145  24678635.556    24678647.831
       207.000         149.000
  21644978.435   -18655150.86949 -14222017.28847  21644978.563    21644986.323
       238.000         198.000
  23668549.267    -9766098.02449  -7583016.17645  23668547.316    23668561.207
       214.000         155.000
  22500933.613   -16444031.16349 -12796889.59547  22500933.728    22500943.141
       232.000         188.000
  24392173.789    -4029502.42249  -2801105.67945  24392172.740    24392184.220
       211.000         145.000
  23234545.478    -7868692.32249  -6115395.48046  23234545.539    23234555.538
       221.000         165.000
 00  2  5  0 11  0.0000000  0  8G 5G24G 6G 4G10G 9G 7G30
  20639978.069   -26305336.11549 -20482278.17348  20639977.471    20639985.076
       247.000         217.000
  20194910.507   -26292114.34849 -19801872.53848  20194910.354    20194918.343
       245.000         218.000
  24665201.880    -6607646.79349  -4893111.20545  24665201.616    24665215.201
       205.000         149.000
  21660041.930   -18575991.81349 -14160334.93047  21660042.205    21660050.033
       238.000         198.000
  23649540.352    -9865989.72049  -7660853.64545  23649539.095    23649552.310
       214.000         156.000
  22515575.226   -16367089.11249 -12736934.81147  22515575.202    22515584.983
       231.000         188.000
  24405129.682    -3961418.66849  -2748053.38045  24405128.571    24405139.699
       208.000         144.000
  23216235.682    -7964910.66449  -6190370.67346  23216235.325    23216245.081
       221.000         165.000
 00  2  5  0 11 30.0000000  0  8G 5G24G 6G 4G10G 9G 7G30
  20631446.162   -26350171.34549 -20517214.67748  20631445.647    20631453.256
       247.000         218.000
  20196161.614   -26285539.78649 -19796749.47948  20196161.568    20196169.384
       245.000         218.000
  24651777.000    -6678194.05049  -4948082.87045  24651776.880    24651789.146
       206.000         148.000
  21675159.535   -18496548.17349 -14098430.81747  21675159.659    21675167.532
       238.000         198.000
  23630541.919    -9965826.30549  -7738648.16845  23630540.107    23630552.708
       214.000         156.000
  22530273.219   -16289850.95849 -12676749.29647  22530272.857    22530282.550
       231.000         188.000
  24418090.201    -3893310.81149  -2694982.31645  24418089.978    24418100.703
       208.000         144.000
  23197948.992    -8061007.33349  -6265251.04946  23197948.704    23197958.126
       221.000         165.000
 00  2  5  0 12  0.0000000  0  8G 5G24G 6G 4G10G 9G 7G30
  20622995.176   -26394581.52849 -20551819.97948  20622994.528    20623002.308
       247.000         218.000
  20197506.421   -26278472.66749 -19791242.61248  20197506.257    20197514.237
       245.000         218.000
  24638359.348    -6748703.63749  -5003025.18845  24638358.649    24638370.850
       206.000         148.000
  21690331.696   -18416817.87449 -14036303.33847  21690332.006    21690339.863
       237.000         198.000
  23611555.239   -10065600.99949  -7816394.45645  23611553.801    23611566.811
       216.000         156.000
  22545023.278   -16212339.06449 -12616350.47446  22545023.365    22545032.826
       231.000         187.000
  24431058.693    -3825160.93549  -2641878.50045  24431058.100    24431069.127
       207.000         144.000
  23179684.442    -8156987.52549  -6340040.64646  23179684.059    23179693.976
       221.000         165.000
 00  2  5  0 12 30.0000000  0  8G 5G24G 6G 4G10G 9G 7G30
  20614625.781   -26438562.76449 -20586091.03548  20614625.192    20614632.919
       247.000         218.000
  20198947.173   -26270901.40849 -19785342.91048  20198947.150    20198954.990
       245.000         218.000
  24624948.323    -6819178.01849  -5057940.08545  24624947.254    24624960.717
       205.000         148.000
  21705559.721   -18336794.27549 -13973947.31247  21705560.143    21705567.599
       238.000         197.000
  23592580.096   -10165315.05249  -7894093.48945  23592578.947    23592591.933
       215.000         157.000
  22559823.763   -16134562.19849 -12555745.18946  22559823.459    22559833.125
       230.000         187.000
  24444038.695    -3756950.49349  -2588727.47945  24444038.604    24444049.356
       207.000         143.000
  23161443.902    -8252841.65849  -6414732.00146  23161444.086    23161453.675
       222.000         166.000
 00  2  5  0 13  0.0000000  0  8G 5G24G 6G 4G10G 9G 7G30
  20606337.480   -26482117.91849 -20620030.08148  20606336.800    20606344.520
       247.000         218.000
  20200484.200   -26262824.15149 -19779048.92348  20200483.826    20200491.810
       245.000         218.000
  24611545.206    -6889611.05949  -5112822.78245  24611545.392    24611558.412
       204.000         148.000
  21720841.538   -18256487.82649 -13911370.88247  21720841.704    21720849.577
       237.000         197.000
  23573619.688   -10264951.87249  -7971732.34145  23573618.723    23573631.579
       215.000         158.000
  22574677.155   -16056507.12349 -12494923.11946  22574677.216    22574686.797
       230.000         187.000
  24457031.816    -3688671.09149  -2535522.73945  24457031.789    24457042.034
       207.000         143.000
  23143226.247    -8348575.61849  -6489329.71546  23143225.818    23143235.760
       222.000         167.000
 00  2  5  0 13 30.0000000  0  8G 5G24G 6G 4G10G 9G 7G30
  20598127.916   -26525259.27749 -20653646.69148  20598127.403    20598135.047
       247.000         218.000
  20202119.636   -26254229.49649 -19772351.77048  20202119.374    20202127.396
       245.000         218.000
  24598147.490    -6960015.72149  -5167683.36745  24598147.427    24598159.874
       205.000         146.000
  21736177.848   -18175894.92649 -13848571.23947  21736178.007    21736186.063
       237.000         197.000
  23554677.274   -10364493.94749  -8049297.34545  23554675.737    23554688.499
       214.000         158.000
  22589583.095   -15978176.32349 -12433886.19046  22589582.987    22589592.634
       229.000         187.000
  24470035.928    -3620333.89049  -2482272.95645  24470036.246    24470047.920
       209.000         143.000
  23125033.110    -8444180.49749  -6563826.83746  23125032.613    23125042.436
       222.000         168.000
 00  2  5  0 14  0.0000000  0  8G 5G24G 6G 4G10G 9G 7G30
  20589995.889   -26567993.27549 -20686945.87548  20589995.173    20590002.960
       247.000         218.000
  20203854.004   -26245115.17849 -19765249.68548  20203853.643    20203861.706
       245.000         218.000
  24584754.942    -7030393.14149  -5222522.74145  24584754.439    24584766.817
       203.000         146.000
  21751568.669   -18095015.95449 -13785548.68547  21751568.932    21751576.828
       237.000         197.000
  23535754.758   -10463931.45149  -8126780.86445  23535753.437    23535765.945
       214.000         159.000
  22604541.914   -15899567.43149 -12372632.57046  22604542.181    22604551.670
       229.000         186.000
  24483049.673    -3551946.08749  -2428983.74645  24483048.528    24483060.561
       205.000         142.000
  23106866.186    -8539647.67049  -6638216.66646  23106866.119    23106875.527
       222.000         168.000
 00  2  5  0 14 30.0000000  0  8G 5G24G 6G 4G10G 9G 7G30
  20581940.010   -26610327.05649 -20719933.20148  20581939.450    20581947.193
       247.000         218.000
  20205685.774   -26235489.14449 -19757748.86148  20205685.735    20205693.600
       245.000         218.000
  24571370.390    -7100728.62249  -5277329.44145  24571369.455    24571382.757
       203.000         145.000
  21767011.278   -18013864.48449 -13722313.79447  21767011.781    21767019.488
       237.000         196.000
  23516852.697   -10563261.27349  -8204180.47345  23516851.612    23516864.233
       215.000         160.000
  22619557.137   -15820662.13949 -12311147.99446  22619557.196    22619567.024
       229.000         186.000
  24496070.123    -3483522.75449  -2375666.84945  24496067.705    24496081.789
       204.000         141.000
  23088728.077    -8634963.39949  -6712488.46346  23088728.346    23088737.685
       222.000         169.000
 00  2  5  0 15  0.0000000  0  8G 5G24G 6G 4G10G 9G 7G30
  20573959.426   -26652265.29749 -20752612.31648  20573958.915    20573966.352
       248.000         219.000
  20207611.432   -26225369.69149 -19749863.55648  20207611.302    20207619.172
       246.000         218.000
  24557993.691    -7171022.85949  -5332104.03545  24557992.625    24558005.551
       205.000         145.000
  21782507.211   -17932433.01249 -13658860.72047  21782507.484    21782515.061
       237.000         196.000
  23497969.791   -10662490.84449  -8281501.96245  23497967.895    23497981.160
       216.000         160.000
  22634624.075   -15741484.99649 -12249451.58446  22634624.016    22634634.118
       229.000         186.000
  24509095.323    -3415074.25149  -2322330.34545  24509095.186    24509105.441
       203.000         140.000
  23070620.003    -8730121.27749  -6786637.27646  23070619.682    23070628.970
       222.000         169.000
 00  2  5  0 15 30.0000000  0  8G 5G24G 6G 4G10G 9G 7G30
  20566052.518   -26693816.33049 -20784989.70848  20566051.889    20566059.360
       247.000         219.000
  20209628.157   -26214771.75249 -19741605.40248  20209628.066    20209635.874
       245.000         218.000
  24544624.693    -7241276.70249  -5386847.15345  24544624.040    24544636.907
       203.000         145.000
  21798057.719   -17850714.63649 -13595184.08747  21798058.168    21798065.801
       237.000         196.000
  23479102.739   -10761636.90449  -8358758.37745  23479101.536    23479114.443
       215.000         160.000
  22649737.628   -15662062.83949 -12187564.25446  22649737.243    22649747.186
       228.000         185.000
  24522125.452    -3346600.42349  -2268974.09445  24522124.556    24522136.816
       203.000         141.000
  23052543.589    -8825112.78649  -6860656.43846  23052544.296    23052552.856
       223.000         170.000
 00  2  5  0 16  0.0000000  0  8G 5G24G 6G 4G10G 9G 7G30
  20558217.301   -26734990.42249 -20817073.38048  20558216.873    20558224.364
       248.000         219.000
  20211732.613   -26203712.72049 -19732987.95648  20211732.459    20211740.343
       245.000         218.000
  24531264.527    -7311484.10349  -5441554.10045  24531264.149    24531276.395
       204.000         146.000
  21813659.207   -17768728.35449 -13531298.69747  21813659.548    21813667.555
       236.000         195.000
  23460245.581   -10860731.15749  -8435974.42545  23460244.051    23460257.146
       218.000         161.000
  22664896.789   -15582401.08249 -12125490.22746  22664897.328    22664906.662
       229.000         185.000
  24535160.837    -3278098.84249  -2215596.22445  24535161.031    24535171.762
       203.000         140.000
  23034498.111    -8919941.71749  -6934548.93546  23034498.199    23034507.210
       223.000         170.000
 00  2  5  0 16 30.0000000  0  8G 5G24G 6G 4G10G 9G 7G30
  20550454.733   -26775782.96149 -20848859.73448  20550454.227    20550461.748
       248.000         219.000
  20213923.810   -26192197.76349 -19724015.24148  20213923.492    20213931.388
       245.000         218.000
  24517911.842    -7381652.35249  -5496230.56245  24517911.393    24517924.588
       209.000         148.000
  21829309.529   -17686485.45549 -13467213.34547  21829310.003    21829317.833
       236.000         195.000
  23441396.315   -10959783.73349  -8513158.00145  23441394.480    23441408.024
       217.000         162.000
  22680100.506   -15502505.36049 -12063233.88746  22680100.973    22680110.306
       229.000         185.000
  24548202.109    -3209566.74349  -2162194.56645  24548200.924    24548211.870
       202.000         141.000
  23016484.565    -9014602.67749  -7008310.54446  23016484.419    23016493.858
       223.000         171.000
 00  2  5  0 17  0.0000000  0  8G 5G24G 6G 4G10G 9G 7G30
  20542766.559   -26816184.38649 -20880341.32748  20542765.899    20542773.368
       248.000         219.000
  20216202.174   -26180224.58749 -19714685.47448  20216202.095    20216209.841
       245.000         218.000
  24504562.746    -7451801.86849  -5550892.42445  24504563.344    24504574.772
       208.000         149.000
  21845008.262   -17603988.01649 -13402929.65547  21845008.216    21845016.227
       236.000         195.000
  23422555.439   -11058792.25749  -8590307.24446  23422554.023    23422565.914
       218.000         163.000
  22695347.161   -15422383.84649 -12000801.60646  22695346.918    22695357.149
       228.000         185.000
  24561248.888    -3141005.46349  -2108770.17645  24561247.712    24561259.166
       200.000         141.000
  22998501.330    -9109104.63349  -7081948.26446  22998501.968    22998510.584
       224.000         172.000
 00  2  5  0 17 30.0000000  0  7G 5G24G 6G 4G10G 9G30
  20535155.479   -26856180.68149 -20911507.23448  20535155.068    20535162.536
       248.000         219.000
  20218571.511   -26167773.51649 -19704983.32048  20218571.414    20218579.392
       245.000         218.000
  24491217.271    -7521932.58349  -5605539.65645  24491216.614    24491229.762
       213.000         150.000
  21860754.727   -17521239.93049 -13338450.65347  21860755.174    21860763.119
       236.000         194.000
  23403728.793   -11157726.22549  -8667398.39346  23403727.297    23403739.996
       218.000         164.000
  22710645.284   -15341991.77549 -11938158.49746  22710645.357    22710654.422
       228.000         184.000
  22980548.777    -9203445.07549  -7155460.14446  22980548.927    22980557.536
       224.000         173.000
 00  2  5  0 18  0.0000000  0  7G 5G24G 6G 4G10G 9G30
  20527625.787   -26895749.38349 -20942339.95148  20527625.301    20527632.828
       247.000         219.000
  20221035.504   -26154824.98749 -19694893.53748  20221035.169    20221043.149
       245.000         218.000
  24477875.701    -7592042.74249  -5660170.88345  24477875.549    24477887.584
       211.000         151.000
  21876549.850   -17438236.13949 -13273772.40247  21876550.100    21876557.749
       235.000         194.000
  23384922.329   -11256554.02749  -8744406.84146  23384920.956    23384933.437
       218.000         165.000
  22725999.639   -15261304.37449 -11875285.27346  22726000.068    22726009.813
       228.000         184.000
  22962627.790    -9297619.97449  -7228843.02646  22962626.974    22962636.991
       225.000         174.000
 00  2  5  0 18 30.0000000  0  7G 5G24G 6G 4G10G 9G30
  20520176.000   -26934898.24749 -20972845.52048  20520175.518    20520182.775
       248.000         219.000
  20223590.452   -26141398.59249 -19684431.38748  20223590.330    20223598.090
       245.000         218.000
  24464530.824    -7662170.02249  -5714815.44545  24464530.318    24464542.942
       212.000         152.000
  21892391.756   -17354986.49849 -13208902.57647  21892392.092    21892399.877
       235.000         194.000
  23366136.153   -11355275.14949  -8821332.13846  23366134.672    23366147.841
       220.000         165.000
  22741403.490   -15180356.94049 -11812209.41346  22741404.183    22741413.614
       229.000         184.000
  22944733.134    -9391656.29949  -7302117.94146  22944733.502    22944742.709
       225.000         174.000
 00  2  5  0 19  0.0000000  0  7G 5G24G 6G 4G10G 9G30
  20512809.095   -26973611.46449 -21003011.62548  20512808.508    20512816.080
       248.000         219.000
  20226238.786   -26127481.27249 -19673586.70048  20226238.486    20226246.443
       245.000         218.000
  24451184.549    -7732305.14849  -5769466.11345  24451184.367    24451197.126
       213.000         152.000
  21908282.385   -17271480.86649 -13143833.27847  21908282.592    21908290.360
       236.000         193.000
  23347374.109   -11453869.61649  -8898158.74946  23347372.670    23347385.108
       220.000         166.000
  22756856.656   -15099150.20149 -11748931.50246  22756857.046    22756866.949
       228.000         184.000
  22926865.544    -9485550.41449  -7375282.05246  22926865.661    22926874.662
       226.000         175.000
 00  2  5  0 19 30.0000000  0  7G 5G24G 6G 4G10G 9G30
  20505525.055   -27011889.18349 -21032838.38148  20505524.601    20505531.989
       248.000         220.000
  20228981.227   -26113069.46449 -19662356.69648  20228980.898    20228988.972
       245.000         218.000
  24437842.095    -7802419.90949  -5824100.90545  24437841.684    24437854.359
       212.000         152.000
  21924222.406   -17187715.41149 -13078561.52347  21924222.796    21924230.432
       235.000         193.000
  23328638.798   -11552323.15749  -8974875.55746  23328637.560    23328649.186
       219.000         166.000
  22772357.117   -15017694.99649 -11685459.98046  22772357.665    22772367.432
       228.000         183.000
  22909028.037    -9579286.52049  -7448323.03346  22909027.740    22909037.411
       225.000         175.000
 00  2  5  0 20  0.0000000  0  7G 5G24G 6G 4G10G 9G30
  20498325.932   -27049720.66049 -21062317.41648  20498325.355    20498332.951
       248.000         220.000
  20231816.903   -26098167.79449 -19650744.98048  20231816.815    20231824.723
       245.000         218.000
  24424506.757    -7872497.43049  -5878706.67245  24424506.256    24424519.266
       213.000         151.000
  21940212.894   -17103684.92449 -13013083.24747  21940213.366    21940220.941
       235.000         193.000
  23309927.862   -11650648.66649  -9051492.60546  23309926.164    23309939.408
       219.000         167.000
  22787897.920   -14936027.84249 -11621823.30546  22787897.797    22787907.621
       228.000         183.000
  22891221.467    -9672860.06149  -7521237.35946  22891221.567    22891230.283
       226.000         176.000
 00  2  5  0 20 30.0000000  0  7G 5G24G 6G 4G10G 9G30
  20491212.925   -27087099.53749 -21091443.78248  20491212.269    20491219.696
       248.000         220.000
  20234745.946   -26082775.58849 -19638751.03248  20234745.847    20234753.702
       245.000         218.000
  24411180.939    -7942524.54049  -5933273.16945  24411180.212    24411192.156
       213.000         151.000
  21956253.733   -17019389.90149 -12947398.84247  21956254.271    21956262.030
       235.000         192.000
  23291241.337   -11748846.17749  -9128009.92446  23291239.980    23291252.114
       221.000         168.000
  22803478.304   -14854152.69349 -11558024.55946  22803478.730    22803488.233
       228.000         183.000
  22873446.627    -9766266.70749  -7594021.63246  22873446.572    22873456.079
       226.000         176.000
 00  2  5  0 21  0.0000000  0  7G 5G24G 6G 4G10G 9G30
  20484184.424   -27124034.46249 -21120224.20948  20484183.845    20484191.349
       248.000         220.000
  20237766.148   -26066904.40949 -19626383.85548  20237766.046    20237773.797
       245.000         218.000
  24397868.540    -8012481.42449  -5987784.91545  24397867.957    24397880.447
       211.000         150.000
  21972343.391   -16934838.09449 -12881514.34247  21972343.743    21972351.262
       234.000         192.000
  23272579.837   -11846912.18049  -9204424.76946  23272578.229    23272589.926
       220.000         168.000
  22819101.557   -14772052.38049 -11494050.36046  22819101.455    22819110.720
       228.000         182.000
  22855703.946    -9859504.58449  -7666674.40146  22855703.925    22855712.963
       226.000         177.000
 00  2  5  0 21 30.0000000  0  7G 5G24G 6G 4G10G 9G30
  20477238.146   -27160537.09249 -21148667.78948  20477237.653    20477245.062
       248.000         220.000
  20240872.715   -26050579.21549 -19613662.90548  20240872.765    20240880.494
       245.000         218.000
  24384568.676    -8082372.33649  -6042245.25345  24384568.894    24384580.899
       212.000         150.000
  21988481.910   -16850029.73749 -12815429.93447  21988482.111    21988490.153
       234.000         191.000
  23253940.176   -11944863.08249  -9280749.93146  23253938.453    23253951.152
       219.000         168.000
  22834766.541   -14689732.50049 -11429905.07246  22834766.540    22834776.276
       228.000         182.000
  22837992.500    -9952578.38949  -7739199.32046  22837992.277    22838001.621
       226.000         177.000
 00  2  5  0 22  0.0000000  0  7G 5G24G 6G 4G10G 9G30
  20470373.698   -27196609.86049 -21176776.40948  20470373.186    20470380.503
       248.000         220.000
  20244064.827   -26033804.59249 -19600591.74748  20244064.626    20244072.539
       245.000         218.000
  24371275.991    -8152225.38249  -6096676.08345  24371275.347    24371286.670
       212.000         150.000
  22004666.966   -16764976.65749 -12749154.83047  22004667.216    22004675.125
       234.000         191.000
  23235319.666   -12042713.48949  -9356996.78246  23235318.494    23235330.248
       220.000         168.000
  22850474.279   -14607188.30649 -11365584.99046  22850474.316    22850484.358
       228.000         182.000
  22820310.621   -10045496.81549  -7811603.17446  22820310.578    22820319.409
       227.000         177.000
 00  2  5  0 22 30.0000000  0  7G 5G24G 6G 4G10G 9G30
  20463589.928   -27232258.78349 -21204554.75848  20463589.272    20463596.754
       248.000         220.000
  20247342.775   -26016578.61049 -19587168.88048  20247342.556    20247350.442
       246.000         219.000
  24357990.765    -8222038.93849  -6151076.12145  24357990.584    24358002.942
       212.000         149.000
  22020896.408   -16679690.34949 -12682697.98847  22020896.840    22020904.632
       233.000         191.000
  23216720.896   -12140449.95749  -9433154.85446  23216719.220    23216731.220
       220.000         168.000
  22866226.528   -14524409.80649 -11301082.33146  22866226.551    22866236.462
       228.000         182.000
  22802659.488   -10138253.73649  -7883881.17046  22802658.618    22802668.507
       227.000         178.000
 00  2  5  0 23  0.0000000  0  7G 5G24G 6G 4G10G 9G30
  20456885.378   -27267491.23449 -21232008.58548  20456884.773    20456892.283
       248.000         220.000
  20250706.436   -25998902.46249 -19573395.23548  20250706.468    20250714.062
       246.000         218.000
  24344713.980    -8291808.36549  -6205441.76245  24344714.005    24344725.610
       212.000         150.000
  22037168.987   -16594177.52649 -12616064.63447  22037169.635    22037177.471
       234.000         190.000
  23198141.490   -12238084.25249  -9509233.30646  23198140.032    23198151.805
       220.000         168.000
  22882021.784   -14441405.53949 -11236403.75446  22882022.256    22882031.772
       228.000         181.000
  22785041.837   -10230834.55049  -7956021.93246  22785041.764    22785050.402
       226.000         178.000
 00  2  5  0 23 30.0000000  0  7G 5G24G 6G 4G10G 9G30
  20450262.770   -27302293.16549 -21259126.94248  20450262.238    20450269.610
       248.000         220.000
  20254158.822   -25980759.97149 -19559258.20748  20254158.668    20254166.457
       246.000         219.000
  24331443.388    -8361545.54449  -6259782.28345  24331442.763    24331455.693
       214.000         150.000
  22053483.958   -16508441.96449 -12549257.72047  22053484.131    22053492.368
       233.000         190.000
  23179579.966   -12335624.89449  -9585238.79846  23179579.041    23179590.521
       220.000         168.000
  22897854.781   -14358202.81449 -11171570.53546  22897855.045    22897864.818
       227.000         181.000
  22767460.001   -10323227.37049  -8028016.21546  22767460.195    22767468.398
       226.000         178.000
 00  2  5  0 24  0.0000000  0  7G 5G24G 6G 4G10G 9G30
  20443726.202   -27336642.86749 -21285892.91048  20443725.653    20443733.110
       249.000         220.000
  20257704.001   -25962129.96749 -19544741.29948  20257703.833    20257711.527
       246.000         219.000
  24318179.982    -8431244.81849  -6314093.25145  24318179.854    24318191.420
       212.000         150.000
  22069842.118   -16422479.20649 -12482273.76247  22069842.516    22069849.977
       234.000         190.000
  23161041.729   -12433042.96049  -9661148.77046  23161039.756    23161051.724
       219.000         168.000
  22913725.993   -14274799.36949 -11106580.91146  22913726.147    22913736.012
       227.000         180.000
  22749916.160   -10415420.31449  -8099854.74946  22749916.251    22749924.751
       227.000         178.000
 00  2  5  0 24 30.0000000  0  7G 5G24G 6G 4G10G 9G30
  20437276.317   -27370537.09349 -21312303.96148  20437275.678    20437283.097
       248.000         220.000
  20261341.581   -25943014.25349 -19529845.91548  20261341.515    20261349.095
       246.000         219.000
  24304926.196    -8500893.31149  -6368364.64645  24304925.850    24304937.783
       214.000         151.000
  22086244.710   -16336283.16749 -12415108.03147  22086244.881    22086253.068
       233.000         189.000
  23142530.050   -12530321.67649  -9736950.16246  23142528.681    23142540.408
       220.000         169.000
  22929635.675   -14191193.39549 -11041433.47346  22929635.384    22929646.132
       227.000         180.000
  22732412.681   -10507401.23149  -8171528.06246  22732413.138    22732422.056
       225.000         178.000
 00  2  5  0 25  0.0000000  0  7G 5G24G 6G 4G10G 9G30
  20430914.877   -27403966.63049 -21338352.91548  20430914.382    20430921.548
       249.000         221.000
  20265071.152   -25923415.17749 -19514573.88548  20265071.053    20265078.768
       246.000         219.000
  24291679.211    -8570506.22549  -6422608.31345  24291679.100    24291690.963
       211.000         151.000
  22102691.773   -16249853.40749 -12347760.18047  22102692.185    22102699.888
       233.000         189.000
  23124045.199   -12627459.29649  -9812641.61946  23124043.838    23124055.051
       220.000         169.000
  22945585.383   -14107377.34049 -10976122.33746  22945585.542    22945595.458
       227.000         180.000
  22714949.368   -10599171.01649  -8243036.86446  22714949.807    22714957.934
       227.000         178.000
 00  2  5  0 25 30.0000000  0  7G 5G24G 6G 4G10G 9G30
  20424642.812   -27436926.42349 -21364035.83548  20424642.214    20424649.574
       248.000         221.000
  20268892.591   -25903333.20049 -19498925.56948  20268892.208    20268900.138
       245.000         219.000
  24278434.389    -8640107.44549  -6476842.86945  24278433.550    24278445.691
       214.000         152.000
  22119184.558   -16163183.23449 -12280224.99447  22119184.757    22119192.620
       233.000         188.000
  23105592.770   -12724426.62649  -9888200.38746  23105591.762    23105603.079
       221.000         169.000
  22961576.658   -14023343.20049 -10910641.26046  22961576.681    22961587.223
       226.000         179.000
  22697523.760   -10690742.69549  -8314391.30346  22697523.052    22697532.642
       227.000         178.000
 00  2  5  0 26  0.0000000  0  7G 5G24G 6G 4G10G 9G30
  20418455.577   -27469440.50449 -21389371.44948  20418455.038    20418462.381
       248.000         221.000
  20272803.194   -25882782.59749 -19482912.09248  20272802.971    20272810.739
       246.000         219.000
  24265193.291    -8709689.10849  -6531062.18645  24265192.916    24265204.444
       213.000         152.000
  22135721.284   -16076282.28149 -12212509.97947  22135721.459    22135729.431
       232.000         188.000
  23087176.790   -12821202.41249  -9963609.89646  23087175.031    23087186.875
       222.000         169.000
  22977613.152   -13939071.17849 -10844974.82846  22977613.659    22977623.115
       226.000         179.000
  22680134.886   -10782121.30949  -8385595.29346  22680134.699    22680143.529
       226.000         178.000
 00  2  5  0 26 30.0000000  0  7G 5G24G 6G 4G10G 9G30
  20412349.203   -27501529.55349 -21414375.86548  20412348.655    20412356.049
       248.000         221.000
  20276800.741   -25861775.23449 -19466542.69848  20276800.523    20276808.321
       246.000         218.000
  24251953.830    -8779262.49849  -6585275.04645  24251953.452    24251964.492
       214.000         153.000
  22152297.488   -15989173.71349 -12144633.18947  22152297.853    22152305.532
       233.000         188.000
  23068794.175   -12917803.05949 -10038882.94346  23068792.957    23068804.540
       222.000         169.000
  22993692.937   -13854571.81149 -10779131.24246  22993692.608    22993702.878
       227.000         179.000
  22662782.201   -10873309.73049  -8456651.08746  22662781.933    22662790.406
       228.000         178.000
 00  2  5  0 27  0.0000000  0  7G 5G24G 6G 4G10G 9G30
  20406324.383   -27533190.07749 -21439046.36848  20406323.846    20406331.144
       248.000         221.000
  20280884.721   -25840313.49549 -19449819.24548  20280884.626    20280892.421
       246.000         219.000
  24238715.381    -8848830.27149  -6639483.53145  24238714.977    24238727.424
       214.000         153.000
  22168913.167   -15901857.92049 -12076594.92847  22168913.401    22168921.398
       233.000         188.000
  23050444.481   -13014230.65949 -10114021.15146  23050443.710    23050454.446
       222.000         170.000
  23009812.244   -13769864.36349 -10713125.52246  23009812.478    23009822.381
       226.000         178.000
  22645465.120   -10964311.05149  -8527561.08446  22645465.291    22645474.167
       229.000         178.000
 00  2  5  0 27 30.0000000  0  7G 5G24G 6G 4G10G 9G30
  20400378.653   -27564434.88249 -21463392.93448  20400378.182    20400385.567
       248.000         221.000
  20285053.406   -25818406.96449 -19432749.20348  20285053.300    20285061.243
       246.000         219.000
  24225478.399    -8918390.51249  -6693686.15545  24225478.150    24225490.078
       214.000         153.000
  22185567.447   -15814339.12849 -12008398.48547  22185567.921    22185575.510
       233.000         188.000
  23032128.564   -13110480.69849 -10189020.99646  23032127.470    23032138.587
       221.000         170.000
  23025966.338   -13684974.37849 -10646977.56346  23025966.825    23025975.996
       226.000         178.000
  22628186.464   -11055110.78749  -8598314.01646  22628186.123    22628194.776
       228.000         178.000
 00  2  5  0 28  0.0000000  0  7G 5G24G 6G 4G10G 9G30
  20394511.010   -27595269.38749 -21487419.78548  20394510.524    20394517.782
       248.000         221.000
  20289304.016   -25796069.82549 -19415343.62148  20289303.757    20289311.689
       245.000         219.000
  24212244.669    -8987933.36549  -6747875.22645  24212243.633    24212256.535
       214.000         154.000
  22202257.757   -15726630.87949 -11940054.41146  22202257.817    22202265.574
       232.000         187.000
  23013841.763   -13206577.79849 -10263901.66646  23013840.520    23013851.655
       221.000         170.000
  23042150.994   -13599923.70949 -10580704.40146  23042151.391    23042161.809
       225.000         177.000
  22610947.696   -11145700.49049  -8668903.27746  22610947.277    22610956.377
       228.000         178.000
 00  2  5  0 28 30.0000000  0  7G 5G24G 6G 4G10G 9G30
  20388727.686   -27625660.79249 -21511101.36848  20388727.138    20388734.443
       248.000         221.000
  20293637.615   -25773296.38849 -19397598.06848  20293637.437    20293645.339
       246.000         219.000
  24199012.851    -9057466.58349  -6802056.78445  24199012.023    24199024.195
       215.000         154.000
  22218984.247   -15638732.45749 -11871562.16046  22218984.257    22218992.252
       232.000         187.000
  22995580.470   -13302540.75749 -10338677.81146  22995579.891    22995590.109
       220.000         170.000
  23058362.887   -13514730.05649 -10514319.81346  23058362.638    23058373.149
       224.000         177.000
  22593748.814   -11236080.66649  -8739329.27546  22593748.843    22593757.512
       227.000         178.000
 00  2  5  0 29  0.0000000  0  7G 5G24G 6G 4G10G 9G30
  20383032.416   -27655589.56449 -21534422.45848  20383031.831    20383039.221
       248.000         221.000
  20298054.958   -25750083.12049 -19379509.79448  20298054.849    20298062.552
       246.000         219.000
  24185786.939    -9126968.54949  -6856214.00745  24185785.989    24185798.185
       215.000         155.000
  22235749.100   -15550632.83049 -11802913.12346  22235749.791    22235757.700
       232.000         187.000
  22977348.792   -13398347.95349 -10413332.57446  22977347.443    22977359.328
       223.000         170.000
  23074604.755   -13429378.61349 -10447812.28246  23074604.434    23074614.700
       226.000         177.000
  22576590.794   -11326246.33049  -8809588.11746  22576591.331    22576599.594
       228.000         179.000
 00  2  5  0 29 30.0000000  0  7G 5G24G 6G 4G10G 9G30
  20377425.808   -27685052.39049 -21557380.47248  20377425.202    20377432.711
       248.000         221.000
  20302555.669   -25726431.59549 -19361080.01948  20302555.573    20302563.411
       245.000         219.000
  24172568.253    -9196432.47949  -6910341.58845  24172567.090    24172580.497
       217.000         156.000
  22252550.186   -15462342.62649 -11734115.58946  22252550.580    22252558.943
       232.000         187.000
  22959148.465   -13493990.70949 -10487859.21446  22959147.433    22959157.875
       222.000         170.000
  23090880.641   -13343848.45549 -10381165.49046  23090880.376    23090890.978
       225.000         176.000
  22559474.188   -11416194.33649  -8879677.35646  22559474.321    22559483.190
       229.000         179.000
 00  2  5  0 30  0.0000000  0  7G 5G24G 6G 4G10G 9G30
  20371911.524   -27714029.99149 -21579960.39048  20371910.999    20371918.224
       248.000         221.000
  20307140.544   -25702337.90249 -19342305.69948  20307140.299    20307148.099
       246.000         219.000
  24159358.981    -9265847.10449  -6964430.74645  24159358.684    24159369.788
       218.000         157.000
  22269387.649   -15373861.22049 -11665169.06146  22269387.914    22269396.058
       231.000         187.000
  22940979.760   -13589467.21849 -10562256.29546  22940978.721    22940990.054
       222.000         171.000
  23107193.220   -13258125.68749 -10314368.60246  23107193.193    23107203.626
       225.000         176.000
  22542395.314   -11505943.91949  -8949611.97346  22542395.384    22542403.274
       229.000         179.000
 00  2  5  0 30 30.0000000  0  7G 5G24G 6G 4G10G 9G30
  20366492.601   -27742506.32949 -21602149.71748  20366492.041    20366499.323
       248.000         221.000
  20311811.864   -25677789.86049 -19323177.34248  20311811.845    20311819.564
       246.000         218.000
  24146160.508    -9335205.06949  -7018475.75045  24146159.662    24146171.937
       218.000         157.000
  22286262.209   -15285184.90849 -11596070.65746  22286262.302    22286270.568
       231.000         187.000
  22922848.585   -13684746.18149 -10636499.45146  22922847.783    22922859.022
       222.000         171.000
  23123543.227   -13172206.21349 -10247418.45046  23123543.754    23123553.634
       224.000         176.000
  22525354.575   -11595493.24949  -9019390.55146  22525354.582    22525363.018
       229.000         180.000
 00  2  5  0 31  0.0000000  0  7G 5G24G 6G 4G10G 9G30
  20361164.244   -27770506.90349 -21623968.31648  20361163.770    20361171.032
       248.000         221.000
  20316568.026   -25652796.12749 -19303701.69248  20316568.023    20316575.641
       246.000         218.000
  24132972.130    -9404509.89449  -7072479.36745  24132971.192    24132982.851
       219.000         158.000
  22303175.102   -15196307.14349 -11526815.28446  22303175.753    22303183.701
       231.000         186.000
  22904758.831   -13779807.75049 -10710573.20846  22904757.436    22904768.998
       223.000         171.000
  23139929.828   -13086094.46249 -10180318.46246  23139929.990    23139940.274
       225.000         175.000
  22508355.320   -11684824.20649  -9088998.96046  22508355.150    22508364.356
       230.000         180.000
 00  2  5  0 31 30.0000000  0  7G 5G24G 6G 4G10G 9G30
  20355923.933   -27798044.90149 -21645426.47048  20355923.427    20355930.592
       248.000         221.000
  20321407.682   -25627363.48649 -19283884.03748  20321407.542    20321415.148
       246.000         218.000
  24119789.200    -9473786.14649  -7126460.72245  24119788.808    24119800.551
       219.000         159.000
  22320126.079   -15107229.31649 -11457404.00446  22320126.408    22320134.553
       231.000         186.000
  22886707.189   -13874669.13349 -10784490.96946  22886705.823    22886717.004
       223.000         172.000
  23156347.804   -12999817.67449 -10113089.88546  23156347.764    23156358.282
       224.000         175.000
  22491397.117   -11773939.86849  -9158439.62146  22491396.880    22491405.820
       229.000         181.000
 00  2  5  0 32  0.0000000  0  7G 5G24G 6G 4G10G 9G30
  20350771.139   -27825122.90049 -21666526.18348  20350770.595    20350778.031
       248.000         221.000
  20326330.526   -25601493.68549 -19263725.73948  20326330.314    20326338.026
       246.000         218.000
  24106609.878    -9543043.42249  -7180427.29245  24106609.122    24106621.376
       219.000         158.000
  22337114.702   -15017953.64049 -11387838.56546  22337114.987    22337123.197
       231.000         186.000
  22868693.347   -13969331.79149 -10858253.88146  22868691.894    22868703.300
       223.000         172.000
  23172792.895   -12913398.40049 -10045750.27446  23172792.879    23172803.662
       224.000         175.000
  22474479.911   -11862839.86049  -9227712.21346  22474479.741    22474488.331
       231.000         181.000
 00  2  5  0 32 30.0000000  0  7G 5G24G 6G 4G10G 9G30
  20345703.990   -27851750.78749 -21687275.15648  20345703.383    20345710.660
       248.000         221.000
  20331337.188   -25575183.22849 -19243224.07248  20331336.998    20331344.646
       245.000         218.000
  24093432.464    -9612290.81849  -7234386.14745  24093431.444    24093443.699
       218.000         158.000
  22354139.497   -14928487.80649 -11318124.94746  22354140.081    22354147.742
       230.000         185.000
  22850716.989   -14063797.55949 -10931863.37246  22850715.409    22850726.908
       223.000         173.000
  23189265.136   -12826836.35349  -9978299.41446  23189265.426    23189275.905
       223.000         175.000
  22457607.706   -11951503.36649  -9296800.53046  22457607.572    22457615.706
       230.000         182.000
 00  2  5  0 33  0.0000000  0  7G 5G24G 6G 4G10G 9G30
  20340721.872   -27877931.84849 -21707675.95648  20340721.282    20340728.545
       248.000         221.000
  20336427.612   -25548432.72349 -19222379.51248  20336427.474    20336435.048
       246.000         218.000
  24080256.535    -9681530.18549  -7288338.74145  24080255.566    24080267.973
       217.000         157.000
  22371198.600   -14838841.80449 -11248270.93546  22371198.781    22371207.012
       230.000         185.000
  22832774.039   -14158087.63449 -11005335.95546  22832772.980    22832783.680
       224.000         173.000
  23205767.666   -12740115.22749  -9910724.59546  23205767.471    23205778.023
       224.000         174.000
  22440780.033   -12039932.91349  -9365706.55146  22440780.041    22440788.366
       231.000         182.000
 00  2  5  0 33 30.0000000  0  7G 5G24G 6G 4G10G 9G30
  20335830.653   -27903635.24049 -21727704.54548  20335830.018    20335837.427
       248.000         221.000
  20341603.128   -25521235.12249 -19201186.56348  20341603.061    20341610.717
       246.000         218.000
  24067085.541    -9750743.47849  -7342271.00845  24067085.114    24067096.404
       217.000         157.000
  22388290.376   -14749023.86249 -11178282.94646  22388290.489    22388298.753
       230.000         185.000
  22814865.474   -14252197.00049 -11078667.73946  22814864.188    22814874.995
       224.000         174.000
  23222304.140   -12653216.01449  -9843011.00446  23222304.593    23222315.108
       224.000         175.000
  22423995.068   -12128138.03749  -9434437.69346  22423994.721    22424003.358
       230.000         183.000
 00  2  5  0 34  0.0000000  0  7G 5G24G 6G 4G10G 9G30
  20331033.046   -27928846.74149 -21747349.84348  20331032.499    20331039.795
       248.000         221.000
  20346864.407   -25493586.84149 -19179642.43748  20346864.329    20346872.042
       245.000         218.000
  24053923.709    -9819908.66749  -7396165.79045  24053923.325    24053934.682
       216.000         156.000
  22405413.826   -14659039.58249 -11108165.34146  22405414.274    22405421.663
       231.000         185.000
  22796994.212   -14346110.28949 -11151846.73546  22796993.410    22797003.706
       225.000         174.000
  23238877.545   -12566122.54349  -9775146.05046  23238877.510    23238887.836
       224.000         174.000
  22407254.800   -12216108.18749  -9502985.74746  22407254.700    22407263.327
       230.000         183.000
 00  2  5  0 34 30.0000000  0  7G 5G24G 6G 4G10G 9G30
  20326330.039   -27953561.18949 -21766607.82648  20326329.535    20326336.686
       248.000         221.000
  20352211.711   -25465486.69349 -19157746.20648  20352211.667    20352219.240
       246.000         218.000
  24040771.876    -9889021.10449  -7450019.44845  24040771.520    24040781.666
       214.000         155.000
  22422571.477   -14568875.55449 -11037907.67546  22422571.787    22422579.557
       230.000         184.000
  22779160.801   -14439824.73849 -11224870.79646  22779159.806    22779170.138
       226.000         175.000
  23255489.189   -12478828.22849  -9707124.59246  23255489.490    23255499.944
       224.000         174.000
  22390561.469   -12303831.64949  -9571341.58146  22390561.117    22390569.979
       230.000         184.000
 00  2  5  0 35  0.0000000  0  7G 5G24G 6G 4G10G 9G30
  20321722.418   -27977774.30649 -21785475.16248  20321721.965    20321729.255
       248.000         221.000
  20357642.729   -25436946.44249 -19135507.03548  20357642.677    20357650.348
       246.000         218.000
  24027630.164    -9958080.45749  -7503831.73645  24027628.859    24027640.476
       212.000         155.000
  22439763.544   -14478530.76449 -10967509.14946  22439763.655    22439772.041
       230.000         184.000
  22761367.244   -14533329.76849 -11297731.68046  22761366.194    22761376.750
       225.000         175.000
  23272134.918   -12391354.65549  -9638963.44246  23272134.507    23272145.721
       223.000         174.000
  22373915.033   -12391308.76549  -9639505.45446  22373915.201    22373923.436
       231.000         184.000
 00  2  5  0 35 30.0000000  0  7G 5G24G 6G 4G10G 9G30
  20317207.622   -28001499.41949 -21803962.23548  20317207.060    20317214.256
       248.000         221.000
  20363154.657   -25407981.07849 -19112936.60748  20363154.481    20363162.202
       246.000         218.000
  24014496.671   -10027096.47849  -7557610.24745  24014495.491    24014507.914
       211.000         154.000
  22456992.318   -14387993.02449 -10896960.27746  22456992.308    22457000.981
       232.000         184.000
  22743615.839   -14626613.16749 -11370419.85646  22743614.164    22743625.408
       226.000         176.000
  23288809.050   -12303731.50149  -9570685.75546  23288809.083    23288819.321
       224.000         174.000
  22357317.400   -12478529.68849  -9707469.69846  22357316.832    22357325.768
       231.000         185.000
 00  2  5  0 36  0.0000000  0  7G 5G24G 6G 4G10G 9G30
  20312781.537   -28024758.56949 -21822086.22148  20312781.074    20312788.301
       248.000         221.000
  20368744.565   -25378605.71049 -19090046.69548  20368744.412    20368752.232
       246.000         218.000
  24001365.916   -10096098.11949  -7611377.53545  24001365.121    24001376.346
       210.000         153.000
  22474256.331   -14297270.18049 -10826267.17246  22474256.276    22474264.430
       231.000         183.000
  22725904.416   -14719686.61749 -11442944.44846  22725903.624    22725913.786
       226.000         176.000
  23305507.287   -12215982.03249  -9502309.62746  23305507.553    23305518.490
       223.000         173.000
  22340769.217   -12565490.46049  -9775231.23246  22340769.247    22340777.004
       230.000         185.000
 00  2  5  0 36 30.0000000  0  7G 5G24G 6G 4G10G 9G30
  20308442.783   -28047558.83249 -21839852.63348  20308442.298    20308449.439
       248.000         221.000
  20374410.594   -25348830.37349 -19066845.11948  20374410.399    20374418.124
       246.000         218.000
  23988234.172   -10165104.69949  -7665148.69045  23988233.971    23988244.974
       211.000         154.000
  22491555.506   -14206362.50449 -10755430.04146  22491555.650    22491563.410
       231.000         183.000
  22708231.828   -14812556.10549 -11515310.10346  22708230.679    22708241.387
       227.000         176.000
  23322226.985   -12128119.78649  -9433845.62846  23322227.398    23322237.690
       223.000         173.000
  22324268.737   -12652200.51149  -9842797.40046  22324268.820    22324276.307
       231.000         185.000
 00  2  5  0 37  0.0000000  0  7G 5G24G 6G 4G10G 9G30
  20304190.839   -28069902.87549 -21857263.55248  20304190.222    20304197.352
       248.000         221.000
  20380151.955   -25318659.42749 -19043335.27648  20380151.904    20380159.639
       246.000         218.000
  23975101.661   -10234115.79249  -7718923.35645  23975101.443    23975113.188
       212.000         155.000
  22508887.292   -14115283.42449 -10684459.34146  22508887.941    22508895.011
       231.000         183.000
  22690600.207   -14905210.07549 -11587507.83146  22690598.895    22690609.207
       227.000         177.000
  23338967.092   -12040150.32849  -9365298.08546  23338966.879    23338978.621
       221.000         173.000
  22307812.554   -12738678.09949  -9910182.42946  22307812.433    22307820.246
       231.000         186.000
 00  2  5  0 37 30.0000000  0  7G 5G24G 6G 4G10G 9G30
  20300025.106   -28091793.66349 -21874321.28548  20300024.575    20300031.701
       248.000         221.000
  20385967.698   -25288097.42449 -19019520.71048  20385967.428    20385975.133
       246.000         218.000
  23961967.518   -10303135.33149  -7772704.60845  23961966.426    23961978.408
       211.000         156.000
  22526251.487   -14024034.01149 -10613355.92446  22526251.561    22526259.554
       231.000         182.000
  22673009.251   -14997650.33349 -11659539.03046  22673008.423    22673018.206
       227.000         178.000
  23355728.674   -11952067.92349  -9296662.53446  23355729.085    23355739.784
       222.000         173.000
  22291399.311   -12824929.74849  -9977391.40346  22291398.976    22291407.215
       231.000         186.000
 00  2  5  0 38  0.0000000  0  7G 5G24G 6G 4G10G 9G30
  20295946.768   -28113225.29949 -21891021.23748  20295946.289    20295953.468
       248.000         221.000
  20391858.993   -25257138.34049 -18995396.73248  20391858.950    20391866.738
       246.000         218.000
  23948834.411   -10372149.65549  -7826481.81345  23948833.508    23948845.172
       211.000         157.000
  22543645.157   -13932629.79649 -10542131.87846  22543645.429    22543653.187
       230.000         182.000
  22655459.187   -15089875.83249 -11731402.87646  22655458.273    22655468.505
       228.000         178.000
  23372512.072   -11863871.13749  -9227937.85346  23372512.306    23372522.814
       223.000         173.000
  22275028.486   -12910958.53449 -10044426.72046  22275029.138    22275036.907
       231.000         186.000
 00  2  5  0 38 30.0000000  0  7G 5G24G 6G 4G10G 9G30
  20291956.066   -28134196.44949 -21907362.36948  20291955.631    20291962.779
       248.000         221.000
  20397827.493   -25225773.90949 -18970956.89848  20397827.368    20397835.113
       246.000         218.000
  23935706.743   -10441135.41549  -7880236.75045  23935706.195    23935717.736
       213.000         158.000
  22561067.015   -13841077.31849 -10470792.31046  22561066.699    22561074.711
       230.000         181.000
  22637952.746   -15181872.11249 -11803088.12446  22637951.352    22637961.122
       227.000         178.000
  23389315.803   -11775567.35449  -9159129.79646  23389315.374    23389326.184
       222.000         173.000
  22258699.904   -12996765.29349 -10111289.02646  22258699.833    22258707.944
       231.000         186.000
 00  2  5  0 39  0.0000000  0  7G 5G24G 6G 4G10G 9G30
  20288052.609   -28154709.16049 -21923346.27948  20288052.154    20288059.325
       248.000         221.000
  20403872.691   -25194006.20649 -18946202.82748  20403872.623    20403880.265
       246.000         218.000
  23922585.029   -10510089.61449  -7933967.11345  23922584.909    23922595.946
       213.000         159.000
  22578514.956   -13749387.84149 -10399345.98346  22578515.489    22578522.925
       230.000         181.000
  22620491.373   -15273631.44949 -11874588.73046  22620490.450    22620500.662
       226.000         179.000
  23406140.005   -11687155.87649  -9090237.83546  23406139.937    23406150.641
       221.000         173.000
  22242416.771   -13082333.35649 -10177965.32946  22242416.815    22242424.691
       231.000         187.000
 00  2  5  0 39 30.0000000  0  7G 5G24G 6G 4G10G 9G30
  20284237.214   -28174759.12049 -21938969.60048  20284236.755    20284244.010
       249.000         221.000
  20409995.240   -25161832.01949 -18921132.01748  20409994.955    20410002.689
       246.000         218.000
  23909469.243   -10579012.96749  -7987673.43645  23909468.869    23909480.119
       214.000         161.000
  22595987.667   -13657568.15849 -10327798.20146  22595988.053    22595995.396
       230.000         180.000
  22603071.541   -15365172.55249 -11945919.29746  22603069.750    22603080.311
       227.000         179.000
  23422983.225   -11598644.49749  -9021268.01946  23422983.476    23422994.531
       223.000         173.000
  22226183.676   -13167638.38049 -10244436.67646  22226183.533    22226191.163
       231.000         187.000
 00  2  5  0 40  0.0000000  0  7G 5G24G 6G 4G10G 9G30
  20280512.349   -28194333.37849 -21954222.24748  20280511.834    20280518.956
       249.000         221.000
  20416197.356   -25129239.57249 -18895735.29248  20416197.211    20416204.918
       246.000         218.000
  23896360.957   -10647896.65249  -8041348.86245  23896359.994    23896371.283
       214.000         162.000
  22613482.247   -13565633.52449 -10256160.85046  22613482.412    22613490.665
       228.000         180.000
  22585694.556   -15456488.64149 -12017074.53246  22585693.540    22585703.029
       227.000         179.000
  23439846.436   -11510028.02949  -8952216.31046  23439847.221    23439857.529
       222.000         172.000
  22210003.475   -13252665.31749 -10310691.32546  22210003.824    22210011.694
       231.000         187.000
 00  2  5  0 40 30.0000000  0  7G 5G24G 6G 4G10G 9G30
  20276882.443   -28213408.59649 -21969086.03148  20276881.947    20276889.126
       249.000         221.000
  20422478.574   -25096231.30649 -18870014.55448  20422478.372    20422486.051
       246.000         218.000
  23883259.416   -10716745.23449  -8094996.93446  23883259.184    23883269.833
       216.000         164.000
  22631000.562   -13473574.13249 -10184426.27946  22631000.844    22631008.804
       229.000         179.000
  22568363.096   -15547565.37949 -12088043.26946  22568361.938    22568372.274
       227.000         180.000
  23456731.532   -11421296.49849  -8883074.96346  23456731.443    23456742.808
       221.000         172.000
  22193879.032   -13337399.46149 -10376717.82747  22193879.127    22193887.141
       231.000         188.000
 00  2  5  0 41  0.0000000  0  7G 5G24G 6G 4G10G 9G30
  20273350.291   -28231970.14149 -21983549.55148  20273349.822    20273357.047
       248.000         221.000
  20428839.253   -25062805.70449 -18843968.61848  20428839.039    20428846.763
       246.000         218.000
  23870162.414   -10785569.72049  -8148626.22846  23870162.211    23870173.121
       217.000         165.000
  22648545.730   -13381373.58149 -10112581.71046  22648545.958    22648554.148
       228.000         179.000
  22551076.174   -15638407.83849 -12158829.44646  22551074.946    22551085.272
       228.000         180.000
  23473640.594   -11332439.30649  -8813835.68746  23473640.187    23473651.764
       222.000         172.000
  22177811.747   -13421833.15349 -10442510.20947  22177811.750    22177819.782
       232.000         188.000
 00  2  5  0 41 30.0000000  0  7G 5G24G 6G 4G10G 9G30
  20269920.284   -28249994.87749 -21997594.77748  20269919.807    20269926.925
       248.000         222.000
  20435282.644   -25028945.39449 -18817583.94948  20435282.538    20435290.336
       246.000         218.000
  23857071.116   -10854364.36449  -8202232.27446  23857070.874    23857081.610
       217.000         167.000
  22666117.972   -13289030.73749 -10040626.26546  22666118.203    22666126.175
       228.000         178.000
  22533837.514   -15728996.94149 -12229418.21746  22533836.370    22533846.549
       227.000         180.000
  23490574.073   -11243453.58249  -8744496.25946  23490574.114    23490585.231
       221.000         172.000
  22161800.634   -13505971.72949 -10508072.62847  22161800.435    22161808.491
       232.000         188.000
 00  2  5  0 42  0.0000000  0  7G 5G24G 6G 4G10G 9G30
  20266594.593   -28267471.52549 -22011212.92048  20266594.059    20266601.141
       248.000         222.000
  20441807.942   -24994654.91149 -18790864.08148  20441807.851    20441815.582
       246.000         218.000
  23843987.798   -10923117.13749  -8255805.70246  23843987.331    23843997.859
       218.000         168.000
  22683720.140   -13196530.74849  -9968548.36646  22683720.427    22683728.587
       228.000         178.000
  22516653.470   -15819299.09449 -12299783.38546  22516651.996    22516662.181
       228.000         180.000
  23507533.593   -11154330.98849  -8675050.19546  23507533.643    23507544.226
       221.000         171.000
  22145845.159   -13589817.99349 -10573407.27947  22145845.240    22145852.729
       232.000         188.000
 00  2  5  0 42 30.0000000  0  7G 5G24G 6G 4G10G 9G30
  20263371.687   -28284407.74549 -22024409.95048  20263371.200    20263378.258
       249.000         222.000
  20448414.330   -24959938.06649 -18763811.98548  20448414.197    20448421.797
       246.000         218.000
  23830911.008   -10991835.54049  -8309352.34146  23830910.384    23830921.379
       218.000         168.000
  22701356.031   -13103853.56149  -9896332.39346  22701355.868    22701364.077
       228.000         177.000
  22499525.381   -15909307.22849 -12369919.45446  22499524.074    22499534.231
       226.000         181.000
  23524517.704   -11065079.33049  -8605503.55546  23524517.665    23524528.797
       221.000         171.000
  22129941.882   -13673389.79449 -10638528.05947  22129941.760    22129949.706
       232.000         189.000
 00  2  5  0 43  0.0000000  0  7G 5G24G 6G 4G10G 9G30
  20260249.291   -28300815.88949 -22037195.49348  20260248.712    20260255.774
       248.000         222.000
  20455103.365   -24924786.69549 -18736421.29748  20455103.137    20455110.827
       246.000         218.000
  23817839.884   -11060524.10349  -8362875.72646  23817839.403    23817850.394
       219.000         169.000
  22719022.992   -13011013.31949  -9823989.36946  22719023.387    22719031.440
       227.000         177.000
  22482452.241   -15999026.63749 -12439830.55446  22482451.343    22482461.285
       226.000         181.000
  23541525.905   -10975700.92049  -8535858.14346  23541525.491    23541537.255
       220.000         171.000
  22114089.140   -13756696.01849 -10703441.89747  22114088.885    22114096.811
       233.000         189.000
 00  2  5  0 43 30.0000000  0  7G 5G24G 6G 4G10G 9G30
  20257226.432   -28316701.00949 -22049573.48248  20257225.904    20257232.974
       248.000         222.000
  20461874.594   -24889203.48949 -18708694.11448  20461874.459    20461882.162
       246.000         218.000
  23804777.235   -11129168.06649  -8416364.35546  23804776.606    23804786.974
       220.000         168.000
  22736718.265   -12918024.11149  -9751530.26246  22736718.727    22736726.478
       228.000         176.000
  22465436.379   -16088445.07849 -12509507.13146  22465435.842    22465445.240
       227.000         182.000
  23558558.350   -10886195.25049  -8466113.57246  23558558.769    23558569.394
       220.000         170.000
  22098288.841   -13839726.74249 -10768141.06647  22098289.373    22098296.749
       232.000         189.000
 00  2  5  0 44  0.0000000  0  7G 5G24G 6G 4G10G 9G30
  20254299.242   -28332083.31849 -22061559.67148  20254298.671    20254305.798
       248.000         222.000
  20468722.907   -24853215.46849 -18680651.48748  20468722.828    20468730.426
       246.000         218.000
  23791722.100   -11197772.73949  -8469822.36846  23791721.874    23791732.491
       218.000         168.000
  22754442.658   -12824881.83249  -9678951.88046  22754443.267    22754451.709
       227.000         176.000
  22448475.961   -16177572.34549 -12578956.83246  22448474.754    22448485.256
       228.000         182.000
  23575613.030   -10796572.53149  -8396277.79746  23575613.153    23575624.392
       220.000         170.000
  22082541.623   -13922478.52049 -10832622.87747  22082541.784    22082549.600
       233.000         190.000
 00  2  5  0 44 30.0000000  0  7G 5G24G 6G 4G10G 9G30
  20251463.795   -28346983.45249 -22073170.14048  20251463.354    20251470.376
       248.000         222.000
  20475646.867   -24816829.64449 -18652298.88848  20475646.655    20475654.304
       246.000         218.000
  23778669.907   -11266361.85349  -8523268.25846  23778669.030    23778680.301
       219.000         168.000
  22772192.536   -12731605.74349  -9606269.22746  22772192.809    22772200.648
       227.000         175.000
  22431567.799   -16266424.66049 -12648192.28746  22431566.819    22431576.594
       227.000         182.000
  23592689.865   -10706833.44249  -8326351.34646  23592690.560    23592701.138
       218.000         169.000
  22066847.465   -14004951.51849 -10896887.46247  22066847.529    22066855.439
       233.000         190.000
 00  2  5  0 45  0.0000000  0  7G 5G24G 6G 4G10G 9G30
  20248720.101   -28361401.75249 -22084405.15648  20248719.593    20248726.656
       248.000         222.000
  20482643.393   -24780062.52449 -18623649.17348  20482643.271    20482650.806
       246.000         218.000
  23765621.082   -11334933.07849  -8576700.20646  23765620.803    23765631.353
       219.000         167.000
  22789962.554   -12638223.74749  -9533504.05246  22789962.707    22789970.838
       226.000         175.000
  22414708.829   -16355018.63049 -12717226.44246  22414708.021    22414717.673
       228.000         182.000
  23609787.985   -10616982.78049  -8256337.95346  23609789.043    23609799.410
       219.000         169.000
  22051209.630   -14087128.46349 -10960921.35947  22051209.755    22051217.370
       233.000         190.000
 00  2  5  0 45 30.0000000  0  7G 5G24G 6G 4G10G 9G30
  20246066.358   -28375347.00349 -22095271.56248  20246065.980    20246072.950
       248.000         222.000
  20489707.380   -24742941.05849 -18594723.34348  20489707.191    20489714.841
       246.000         218.000
  23752576.217   -11403483.49649  -8630115.93946  23752575.964    23752585.898
       219.000         167.000
  22807755.481   -12544721.27949  -9460645.00646  22807755.869    22807764.120
       226.000         175.000
  22397899.530   -16443351.61749 -12786057.21946  22397898.687    22397908.101
       228.000         183.000
  23626904.225   -10527036.72449  -8186250.22946  23626904.374    23626915.691
       219.000         168.000
  22035629.359   -14169003.08649 -11024719.68547  22035629.361    22035637.116
       233.000         191.000
 00  2  5  0 46  0.0000000  0  7G 5G24G 6G 4G10G 9G30
  20243500.632   -28388829.99449 -22105777.76848  20243500.236    20243507.378
       248.000         222.000
  20496835.264   -24705483.72249 -18565535.79848  20496835.176    20496842.910
       246.000         218.000
  23739531.609   -11472032.84349  -8683530.84446  23739530.795    23739541.755
       219.000         167.000
  22825571.415   -12451098.08449  -9387691.88746  22825571.486    22825579.713
       226.000         174.000
  22381137.783   -16531434.63849 -12854693.22646  22381136.691    22381146.557
       228.000         183.000
  23644033.299   -10437023.15849  -8116109.88946  23644033.556    23644044.505
       219.000         167.000
  22020102.521   -14250596.79449 -11088299.11947  22020102.900    22020110.418
       234.000         191.000
 00  2  5  0 46 30.0000000  0  7G 5G24G 6G 4G10G 9G30
  20241022.700   -28401851.53149 -22115924.40248  20241022.242    20241029.418
       249.000         222.000
  20504028.808   -24667681.49049 -18536079.50348  20504028.726    20504036.315
       246.000         218.000
  23726489.693   -11540567.71449  -8736934.46446  23726489.193    23726499.413
       219.000         166.000
  22843406.658   -12357373.16949  -9314659.51446  22843406.918    22843415.299
       225.000         173.000
  22364421.836   -16619277.15749 -12923141.82046  22364421.133    22364430.335
       228.000         183.000
  23661172.610   -10346955.74149  -8045927.59146  23661172.841    23661184.391
       219.000         167.000
  22004628.401   -14331913.55549 -11151662.75247  22004628.423    22004636.259
       233.000         191.000
 00  2  5  0 47  0.0000000  0  7G 5G24G 6G 4G10G 9G30
  20238637.417   -28414386.28949 -22125691.72848  20238637.003    20238643.902
       248.000         222.000
  20511287.762   -24629535.22149 -18506355.12548  20511287.601    20511295.234
       246.000         218.000
  23713453.382   -11609073.22549  -8790315.21446  23713452.958    23713463.338
       219.000         165.000
  22861262.584   -12263539.84849  -9241542.65446  22861263.666    22861270.466
       226.000         173.000
  22347753.639   -16706868.73749 -12991394.87146  22347753.302    22347762.511
       228.000         183.000
  23678316.004   -10256867.19449  -7975728.82846  23678316.383    23678327.823
       218.000         167.000
  21989207.549   -14412950.19149 -11214808.11147  21989207.428    21989215.137
       235.000         191.000
 00  2  5  0 47 30.0000000  0  7G 5G24G 6G 4G10G 9G30
  20236346.584   -28426424.68349 -22135072.27648  20236346.139    20236353.262
       249.000         222.000
  20518614.121   -24591034.99849 -18476354.94248  20518613.869    20518621.607
       247.000         218.000
  23700423.068   -11677547.28849  -8843671.45246  23700422.359    23700432.920
       219.000         165.000
  22879141.355   -12169586.37449  -9168332.16846  22879141.400    22879149.984
       224.000         172.000
  22331138.917   -16794179.29549 -13059428.94046  22331138.085    22331147.132
       228.000         184.000
  23695460.480   -10166772.94249  -7905525.62046  23695460.434    23695471.415
       218.000         166.000
  21973839.538   -14493709.25549 -11277737.17547  21973839.737    21973847.569
       234.000         192.000
 00  2  5  0 48  0.0000000  0  7G 5G24G 6G 4G10G 9G30
  20234155.041   -28437941.35749 -22144046.29248  20234154.566    20234161.536
       249.000         222.000
  20526012.114   -24552158.34949 -18446061.44048  20526011.998    20526019.659
       247.000         218.000
  23687400.073   -11745982.52849  -8896997.45146  23687399.854    23687409.854
       220.000         164.000
  22897039.827   -12075529.40849  -9095041.04146  22897040.269    22897047.760
       224.000         172.000
  22314579.810   -16881197.63249 -13127235.30046  22314578.659    22314588.233
       229.000         184.000
  23712608.447   -10076660.20949  -7835308.01446  23712608.353    23712620.071
       217.000         165.000
  21958525.427   -14574185.14149 -11340445.58547  21958525.439    21958533.129
       234.000         192.000
 00  2  5  0 48 30.0000000  0  7G 5G24G 6G 4G10G 9G30
  20232068.358   -28448906.85949 -22152590.82348  20232067.951    20232074.962
       249.000         222.000
  20533485.136   -24512887.26149 -18415460.58248  20533484.894    20533492.636
       247.000         218.000
  23674387.892   -11814361.44549  -8950279.56646  23674387.842    23674397.398
       218.000         163.000
  22914958.255   -11981367.35249  -9021668.01946  22914958.654    22914966.493
       224.000         172.000
  22298079.159   -16967908.53949 -13194802.10146  22298078.082    22298087.990
       229.000         185.000
  23729765.512    -9986499.49649  -7765053.01546  23729766.465    23729776.998
       218.000         164.000
  21943269.882   -14654353.38449 -11402914.27547  21943270.050    21943277.786
       235.000         192.000
 00  2  5  0 49  0.0000000  0  7G 5G24G 6G 4G10G 9G30
  20230088.781   -28459309.63649 -22160696.86448  20230088.301    20230095.289
       249.000         222.000
  20541034.669   -24473214.03849 -18384546.37048  20541034.568    20541042.295
       246.000         218.000
  23661385.909   -11882686.41949  -9003519.63246  23661385.514    23661395.612
       218.000         163.000
  22932900.242   -11887081.67349  -8948198.67346  22932900.453    22932908.797
       224.000         172.000
  22281640.506   -17054293.66749 -13262115.03446  22281639.472    22281648.920
       230.000         185.000
  23746935.651    -9896270.26349  -7694744.63046  23746935.788    23746947.159
       217.000         164.000
  21928075.693   -14734199.16549 -11465131.69247  21928075.759    21928083.330
       234.000         193.000
 00  2  5  0 49 30.0000000  0  7G 5G24G 6G 4G10G 9G30
  20228214.126   -28469160.93349 -22168373.18548  20228213.459    20228220.597
       249.000         222.000
  20548662.820   -24433127.87349 -18353310.39048  20548662.727    20548670.328
       246.000         218.000
  23648395.073   -11950953.07049  -9056714.26645  23648394.697    23648404.709
       218.000         162.000
  22950864.440   -11792679.37449  -8874638.45846  22950864.677    22950873.005
       225.000         172.000
  22265262.429   -17140360.37849 -13329179.85246  22265261.150    22265271.064
       229.000         185.000
  23764125.778    -9805935.98649  -7624354.39046  23764126.278    23764137.075
       216.000         163.000
  21912943.945   -14813716.89549 -11527093.48747  21912944.124    21912951.724
       235.000         193.000
 00  2  5  0 50  0.0000000  0  7G 5G24G 6G 4G10G 9G30
  20226441.257   -28478477.34149 -22175632.70748  20226440.756    20226447.736
       249.000         222.000
  20556369.802   -24392627.33649 -18321751.52348  20556369.551    20556377.131
       246.000         218.000
  23635415.826   -12019158.74849  -9109861.39245  23635414.793    23635425.853
       218.000         162.000
  22968850.133   -11698164.15449  -8800990.24646  22968850.696    22968858.593
       223.000         172.000
  22248941.544   -17226126.70349 -13396010.59646  22248940.329    22248950.105
       230.000         186.000
  23781339.064    -9715479.99549  -7553869.31346  23781339.251    23781350.184
       217.000         163.000
  21897876.190   -14892898.12749 -11588793.07747  21897876.256    21897883.634
       235.000         193.000
 00  2  5  0 50 30.0000000  0  7G 5G24G 6G 4G10G 9G30
  20224765.648   -28487282.79549 -22182494.08348  20224765.246    20224772.357
       249.000         222.000
  20564153.566   -24351723.26749 -18289878.21648  20564153.363    20564161.103
       246.000         218.000
  23622443.919   -12087326.10149  -9162978.66845  23622443.073    23622454.259
       219.000         162.000
  22986856.533   -11603540.07949  -8727257.20946  22986856.950    22986864.588
       224.000         172.000
  22232677.311   -17311595.28449 -13462609.33846  22232676.169    22232685.412
       230.000         186.000
  23798572.699    -9624916.97849  -7483300.84246  23798573.031    23798584.337
       218.000         163.000
  21882873.217   -14971739.18549 -11650227.59147  21882873.112    21882880.947
       235.000         194.000
 00  2  5  0 51  0.0000000  0  7G 5G24G 6G 4G10G 9G30
  20223185.667   -28495585.53349 -22188963.72948  20223185.190    20223192.190
       249.000         222.000
  20572011.192   -24310431.09749 -18257702.48948  20572011.043    20572018.791
       246.000         218.000
  23609474.840   -12155478.49949  -9216084.28345  23609474.471    23609484.715
       220.000         162.000
  23004881.146   -11508820.17349  -8653449.49346  23004881.432    23004889.331
       225.000         173.000
  22216470.267   -17396763.30049 -13528973.87346  22216468.939    22216478.511
       230.000         186.000
  23815822.713    -9534268.01049  -7412665.38345  23815822.969    23815833.635
       216.000         162.000
  21867935.676   -15050236.03749 -11711393.89247  21867935.563    21867942.944
       236.000         194.000
 00  2  5  0 51 30.0000000  0  7G 5G24G 6G 4G10G 9G30
  20221702.760   -28503378.17849 -22195035.90248  20221702.297    20221709.264
       249.000         222.000
  20579940.289   -24268763.35249 -18225234.11348  20579940.104    20579947.726
       246.000         217.000
  23596505.642   -12223631.44749  -9269190.33545  23596504.730    23596514.664
       219.000         162.000
  23022922.713   -11414011.18949  -8579572.38246  23022922.702    23022930.852
       224.000         173.000
  22200322.488   -17481619.91149 -13595095.76446  22200321.397    22200331.110
       230.000         186.000
  23833087.210    -9443542.88549  -7341970.59345  23833087.417    23833098.700
       216.000         162.000
  21853064.464   -15128384.42049 -11772288.66447  21853064.658    21853072.252
       235.000         194.000
 00  2  5  0 52  0.0000000  0  7G 5G24G 6G 4G10G 9G30
  20220317.192   -28510659.32749 -22200709.50148  20220316.776    20220323.743
       249.000         222.000
  20587937.898   -24226735.47349 -18192485.10648  20587937.817    20587945.358
       246.000         217.000
  23583532.917   -12291802.94649  -9322310.83845  23583533.160    23583542.917
       219.000         162.000
  23040982.118   -11319108.60149  -8505622.32346  23040982.020    23040990.045
       224.000         173.000
  22184238.247   -17566142.57949 -13660957.43346  22184237.682    22184246.679
       231.000         187.000
  23850362.430    -9352761.58749  -7271232.04045  23850362.628    23850374.110
       216.000         162.000
  21838260.277   -15206180.66449 -11832909.03547  21838260.517    21838267.698
       235.000         194.000
 00  2  5  0 52 30.0000000  0  7G 5G24G 6G 4G10G 9G30
  20219033.476   -28517405.32449 -22205966.10548  20219032.915    20219039.939
       249.000         222.000
  20596001.846   -24184359.21649 -18159464.63948  20596001.755    20596009.374
       246.000         217.000
  23570557.202   -12359990.26649  -9375443.68546  23570556.943    23570566.219
       220.000         163.000
  23059059.555   -11224111.03849  -8431598.26646  23059058.816    23059068.056
       223.000         173.000
  22168218.964   -17650323.85749 -13726553.09446  22168218.062    22168227.235
       231.000         187.000
  23867645.791    -9261937.21549  -7200459.90846  23867645.993    23867656.809
       217.000         163.000
  21823522.614   -15283627.34849 -11893257.01847  21823522.840    21823530.191
       236.000         195.000
 00  2  5  0 53  0.0000000  0  7G 5G24G 6G 4G10G 9G30
  20217854.203   -28523602.30549 -22210794.90448  20217853.681    20217860.639
       249.000         222.000
  20604131.175   -24141639.18649 -18126176.29548  20604131.047    20604138.698
       246.000         217.000
  23557584.906   -12428159.53449  -9428562.46746  23557584.534    23557593.941
       219.000         163.000
  23077158.500   -11129000.54749  -8357486.21646  23077158.935    23077167.322
       223.000         173.000
  22152265.438   -17734159.61849 -13791879.51946  22152264.516    22152273.894
       231.000         187.000
  23884936.967    -9171071.89849  -7129655.87946  23884937.632    23884948.359
       217.000         163.000
  21808849.338   -15360735.74049 -11953341.40047  21808849.318    21808856.718
       236.000         195.000
 00  2  5  0 53 30.0000000  0  7G 5G24G 6G 4G10G 9G30
  20216774.732   -28529274.79849 -22215215.01448  20216774.218    20216781.158
       249.000         222.000
  20612325.854   -24098575.87949 -18092620.46648  20612325.604    20612333.283
       246.000         217.000
  23544621.022   -12496284.79449  -9481646.96346  23544620.189    23544630.478
       219.000         164.000
  23095279.718   -11033773.11749  -8283283.03446  23095280.340    23095288.150
       224.000         173.000
  22136376.872   -17817654.03449 -13856939.96346  22136375.756    22136384.839
       231.000         187.000
  23902234.463    -9080173.63549  -7058826.16545  23902234.727    23902245.933
       217.000         162.000
  21794237.329   -15437521.97149 -12013174.74647  21794237.583    21794245.107
       236.000         195.000
 00  2  5  0 54  0.0000000  0  7G 5G24G 6G 4G10G 9G30
  20215792.941   -28534434.02249 -22219235.17648  20215792.458    20215799.493
       249.000         222.000
  20620583.215   -24055183.05149 -18058807.86248  20620583.087    20620590.750
       246.000         217.000
  23531667.145   -12564357.17549  -9534690.26246  23531666.246    23531676.944
       219.000         165.000
  23113421.448   -10938437.58449  -8208995.61846  23113421.591    23113429.918
       223.000         173.000
  22120548.864   -17900830.23249 -13921752.45247  22120547.703    22120557.019
       231.000         188.000
  23919536.358    -8989252.09549  -6987978.30846  23919536.469    23919548.206
       217.000         163.000
  21779683.903   -15514000.49349 -12072768.31547  21779683.919    21779691.297
       237.000         196.000
 00  2  5  0 54 30.0000000  0  7G 5G24G 6G 4G10G 9G30
  20214908.198   -28539083.25749 -22222857.94548  20214907.681    20214914.730
       248.000         222.000
  20628902.312   -24011465.98449 -18024742.60948  20628902.268    20628909.859
       246.000         217.000
  23518725.589   -12632365.05949  -9587683.29446  23518725.465    23518734.672
       218.000         165.000
  23131582.534   -10843000.61249  -8134629.15646  23131582.389    23131591.114
       223.000         173.000
  22104779.211   -17983699.85149 -13986326.05147  22104778.470    22104787.227
       231.000         188.000
  23936840.899    -8898316.66749  -6917119.62645  23936840.790    23936852.334
       217.000         162.000
  21765186.697   -15590183.63849 -12132131.72247  21765186.615    21765194.046
       236.000         196.000
 00  2  5  0 55  0.0000000  0  7G 5G24G 6G 4G10G 9G30
  20214117.058   -28543240.61249 -22226097.42948  20214116.588    20214123.442
       249.000         222.000
  20637282.599   -23967427.40449 -17990426.82348  20637282.577    20637290.081
       246.000         217.000
  23505793.301   -12700324.06849  -9640638.25946  23505792.748    23505803.038
       218.000         166.000
  23149759.538   -10747479.61849  -8060197.22046  23149758.686    23149768.244
       223.000         173.000
  22089070.030   -18066251.48049 -14050651.86247  22089069.405    22089078.442
       231.000         188.000
  23954148.164    -8807366.76449  -6846249.67645  23954148.348    23954160.004
       217.000         162.000
  21750745.463   -15666072.41549 -12191265.74747  21750745.702    21750752.671
       237.000         196.000
 00  2  5  0 55 30.0000000  0  7G 5G24G 6G 4G10G 9G30
  20213418.785   -28546910.12549 -22228956.77748  20213418.342    20213425.268
       249.000         222.000
  20645725.279   -23923060.63849 -17955855.31048  20645725.152    20645732.862
       246.000         217.000
  23492864.217   -12768266.37749  -9693580.20046  23492863.899    23492874.444
       218.000         166.000
  23167947.581   -10651900.87249  -7985720.29146  23167947.664    23167956.129
       224.000         172.000
  22073421.783   -18148482.91249 -14114728.17047  22073420.569    22073429.386
       231.000         189.000
  23971457.358    -8716406.96049  -6775372.00745  23971457.795    23971469.069
       217.000         162.000
  21736363.607   -15741649.08049 -12250156.57547  21736363.699    21736370.863
       238.000         197.000
 00  2  5  0 56  0.0000000  0  7G 5G24G 6G 4G10G 9G30
  20212817.599   -28550069.23049 -22231418.40648  20212817.108    20212824.103
       249.000         222.000
  20654232.125   -23878356.97949 -17921021.27948  20654232.063    20654239.604
       246.000         217.000
  23479935.513   -12836206.45349  -9746520.40546  23479934.719    23479944.386
       217.000         165.000
  23186147.434   -10556260.13649  -7911195.03546  23186147.914    23186156.201
       223.000         172.000
  22057837.318   -18230379.32749 -14178543.43047  22057836.188    22057845.388
       232.000         189.000
  23988769.485    -8625431.56749  -6704482.18945  23988769.101    23988780.723
       218.000         162.000
  21722043.833   -15816899.63349 -12308793.28547  21722043.872    21722051.361
       237.000         197.000
 00  2  5  0 56 30.0000000  0  7G 5G24G 6G 4G10G 9G30
  20212314.005   -28552715.60449 -22233480.50748  20212313.576    20212320.650
       248.000         222.000
  20662806.107   -23833300.18749 -17885912.07548  20662805.737    20662813.485
       246.000         217.000
  23467008.564   -12904137.50949  -9799453.57546  23467007.968    23467018.729
       217.000         166.000
  23204358.511   -10460560.33849  -7836623.78146  23204358.597    23204366.928
       223.000         171.000
  22042320.366   -18311920.89249 -14242082.18347  22042319.500    22042328.627
       232.000         189.000
  24006083.911    -8534444.06049  -6633582.95245  24006083.734    24006095.299
       216.000         162.000
  21707789.128   -15891808.44549 -12367163.70647  21707789.280    21707796.581
       238.000         197.000
 00  2  5  0 57  0.0000000  0  7G 5G24G 6G 4G10G 9G30
  20211910.333   -28554836.93549 -22235133.48448  20211909.756    20211916.737
       249.000         222.000
  20671449.239   -23787880.00549 -17850519.71448  20671449.084    20671456.682
       246.000         217.000
  23454083.152   -12972060.46949  -9852380.44746  23454082.537    23454093.012
       217.000         166.000
  23222580.402   -10364803.74449  -7762008.26346  23222580.642    23222589.191
       221.000         170.000
  22026871.673   -18393103.92049 -14305341.55747  22026870.385    22026879.643
       232.000         189.000
  24023401.215    -8443441.50849  -6562671.98945  24023401.515    24023413.176
       217.000         162.000
  21693603.323   -15966354.82749 -12425251.72047  21693603.491    21693610.466
       237.000         198.000
 00  2  5  0 57 30.0000000  0  7G 5G24G 6G 4G10G 9G30
  20211609.586   -28556417.17549 -22236364.82648  20211609.274    20211616.256
       249.000         222.000
  20680163.442   -23742086.60549 -17814836.52848  20680163.331    20680170.909
       245.000         217.000
  23441161.713   -13039962.30349  -9905290.85046  23441161.092    23441171.567
       218.000         167.000
  23240815.570   -10268977.25849  -7687338.27146  23240816.178    23240823.938
       222.000         169.000
  22011490.444   -18473932.10349 -14368324.42947  22011489.683    22011498.673
       232.000         190.000
  24040721.860    -8352421.31249  -6491747.28945  24040722.054    24040733.493
       216.000         161.000
  21679489.915   -16040521.02249 -12483043.47947  21679489.981    21679497.500
       237.000         198.000
 00  2  5  0 58  0.0000000  0  7G 5G24G 6G 4G10G 9G30
  20211412.784   -28557451.34749 -22237170.66248  20211412.340    20211419.284
       249.000         222.000
  20688947.436   -23695926.37449 -17778867.50148  20688947.250    20688954.894
       246.000         216.000
  23428248.868   -13107819.26649  -9958166.28846  23428248.491    23428258.450
       217.000         167.000
  23259064.989   -10173075.50949  -7612609.64046  23259065.354    23259073.060
       220.000         168.000
  21996178.269   -18554397.70649 -14431024.77047  21996177.663    21996186.303
       232.000         190.000
  24058047.630    -8261374.18049  -6420801.59445  24058047.570    24058059.382
       216.000         161.000
  21665448.870   -16114306.80449 -12540538.82447  21665449.112    21665456.013
       238.000         198.000
 00  2  5  0 58 30.0000000  0  7G 5G24G 6G 4G10G 9G30
  20211321.072   -28557933.21649 -22237546.13748  20211320.574    20211327.567
       249.000         222.000
  20697800.283   -23649404.31949 -17742616.53548  20697800.181    20697807.876
       245.000         216.000
  23415344.137   -13175633.65349 -10011008.55046  23415343.295    23415353.456
       218.000         167.000
  23277325.784   -10077114.30749  -7537834.68446  23277325.893    23277334.579
       221.000         167.000
  21980934.982   -18634500.98249 -14493442.77947  21980933.966    21980943.191
       233.000         191.000
  24075379.217    -8170296.64749  -6349832.21545  24075379.891    24075390.763
       216.000         160.000
  21651481.058   -16187707.99549 -12597734.48747  21651481.271    21651488.543
       237.000         199.000
 00  2  5  0 59  0.0000000  0  7G 5G24G 6G 4G10G 9G30
  20211334.703   -28557861.66249 -22237490.37148  20211334.214    20211341.237
       248.000         222.000
  20706723.203   -23602513.89049 -17706078.52348  20706723.084    20706730.655
       245.000         216.000
  23402446.742   -13243409.66049 -10063820.89946  23402445.924    23402456.414
       219.000         168.000
  23295599.360    -9981085.76549  -7463007.24846  23295598.932    23295607.687
       219.000         166.000
  21965762.380   -18714233.07349 -14555571.54547  21965761.620    21965770.276
       232.000         191.000
  24092718.865    -8079176.48049  -6278829.60045  24092718.358    24092730.596
       215.000         160.000
  21637587.468   -16260719.10749 -12654626.19447  21637587.600    21637594.624
       238.000         199.000
 00  2  5  0 59 30.0000000  0  7G 5G24G 6G 4G10G 9G30
  20211450.927   -28557250.91749 -22237014.46048  20211450.414    20211457.478
       249.000         222.000
  20715713.512   -23555269.35149 -17669264.58448  20715713.410    20715720.980
       246.000         216.000
  23389557.173   -13311144.53049 -10116601.19246  23389556.707    23389565.984
       220.000         169.000
  23313886.639    -9884985.52749  -7388123.95346  23313887.382    23313895.198
       218.000         164.000
  21950663.207   -18793579.35649 -14617399.68447  21950662.063    21950671.293
       232.000         191.000
  24110065.982    -7988017.09649  -6207796.43745  24110066.778    24110078.372
       216.000         160.000
  21623766.037   -16333350.99949 -12711222.40847  21623765.968    21623773.365
       239.000         199.000
 00  2  5  1  0  0.0000000  0  7G 5G24G 6G 4G10G 9G30
  20211667.983   -28556110.17449 -22236125.56248  20211667.464    20211674.494
       248.000         222.000
  20724766.402   -23507696.26849 -17632194.63848  20724766.393    20724774.023
       245.000         216.000
  23376672.521   -13378853.60849 -10169361.37946  23376671.987    23376681.435
       220.000         170.000
  23332187.193    -9788815.41249  -7313186.21046  23332186.833    23332195.774
       218.000         163.000
  21935638.196   -18872535.83949 -14678924.08947  21935636.915    21935646.063
       233.000         192.000
  24127417.424    -7896835.18549  -6136745.71245  24127417.776    24127429.365
       215.000         160.000
  21610012.666   -16405625.05949 -12767539.79047  21610012.690    21610019.925
       237.000         200.000
 00  2  5  1  0 30.0000000  0  7G 5G24G 6G 4G10G 9G30
  20211985.841   -28554439.68449 -22234823.87348  20211985.424    20211992.457
       248.000         222.000
  20733879.908   -23459804.32549 -17594876.23048  20733879.664    20733887.363
       246.000         216.000
  23363790.388   -13446549.22349 -10222111.07146  23363790.115    23363799.285
       221.000         171.000
  23350502.977    -9692565.33749  -7238186.16345  23350502.893    23350511.253
       218.000         162.000
  21920685.209   -18951113.66149 -14740153.42947  21920684.136    21920692.774
       233.000         192.000
  24144769.808    -7805648.14949  -6065690.98645  24144769.764    24144782.521
       215.000         160.000
  21596326.556   -16477545.76949 -12823581.83647  21596326.684    21596334.085
       238.000         200.000
 00  2  5  1  1  0.0000000  0  7G 5G24G 6G 4G10G 9G30
  20212402.286   -28552251.27149 -22233118.60648  20212401.715    20212408.916
       248.000         222.000
  20743050.559   -23411612.01649 -17557323.77148  20743050.255    20743057.993
       245.000         216.000
  23350912.504   -13514222.51749 -10274843.37446  23350912.200    23350921.795
       222.000         171.000
  23368834.807    -9596230.96049  -7163120.42445  23368834.992    23368844.339
       217.000         162.000
  21905802.400   -19029322.76749 -14801095.46047  21905801.629    21905810.164
       233.000         192.000
  24162120.800    -7714468.44649  -5994641.98345  24162120.882    24162132.662
       214.000         160.000
  21582707.189   -16549115.75649 -12879350.59247  21582707.323    21582714.436
       238.000         200.000
 00  2  5  1  1 30.0000000  0  7G 5G24G 6G 4G10G 9G30
  20212918.255   -28549539.87449 -22231005.82048  20212917.778    20212924.740
       248.000         222.000
  20752275.119   -23363136.62749 -17519550.73548  20752275.169    20752282.768
       245.000         215.000
  23338038.319   -13581876.25449 -10327560.43546  23338038.362    23338047.483
       222.000         172.000
  23387180.251    -9499825.00849  -7087998.91645  23387180.642    23387189.245
       216.000         161.000
  21890987.691   -19107174.24349 -14861758.82347  21890986.725    21890995.310
       233.000         193.000
  24179468.453    -7623306.10849  -5923606.50245  24179468.762    24179480.986
       213.000         160.000
  21569154.234   -16620336.65249 -12934847.33147  21569154.515    21569161.402
       239.000         200.000
 00  2  5  1  2  0.0000000  0  7G 5G24G 6G 4G10G 9G30
  20213534.841   -28546299.58649 -22228480.91048  20213534.331    20213541.310
       248.000         222.000
  20761556.562   -23314362.36949 -17481544.81548  20761556.474    20761564.027
       245.000         215.000
  23325167.824   -13649510.76249 -10380262.50746  23325167.103    23325176.787
       222.000         173.000
  23405536.640    -9403361.50349  -7012832.55045  23405536.334    23405545.172
       216.000         160.000
  21876239.550   -19184675.67449 -14922149.42247  21876238.405    21876247.038
       233.000         193.000
  24196811.947    -7532165.72249  -5852588.13645  24196812.205    24196824.493
       213.000         160.000
  21555671.466   -16691188.85849 -12990056.78247  21555671.499    21555678.629
       239.000         201.000
 00  2  5  1  2 30.0000000  0  7G 5G24G 6G 4G10G 9G30
  20214251.234   -28542534.97749 -22225547.43648  20214250.805    20214257.687
       248.000         222.000
  20770898.632   -23265269.52049 -17443290.64248  20770898.576    20770905.881
       245.000         215.000
  23312304.597   -13717106.77649 -10432934.59246  23312304.178    23312313.038
       222.000         173.000
  23423902.689    -9306847.24649  -6937626.64345  23423902.849    23423911.620
       216.000         160.000
  21861558.541   -19261824.36849 -14982265.16147  21861557.479    21861566.508
       234.000         193.000
  24214152.953    -7441038.54749  -5781580.05845  24214153.370    24214165.467
       216.000         160.000
  21542261.677   -16761657.67149 -13044967.48347  21542262.082    21542268.656
       239.000         201.000
 00  2  5  1  3  0.0000000  0  7G 5G24G 6G 4G10G 9G30
  20215064.422   -28538261.60349 -22222217.52748  20215063.843    20215071.024
       248.000         222.000
  20780301.511   -23215856.95449 -17404787.34048  20780301.297    20780308.831
       245.000         215.000
  23299448.388   -13784665.90649 -10485577.92546  23299447.938    23299456.486
       223.000         173.000
  23442274.392    -9210303.22449  -6862397.54245  23442274.671    23442282.324
       215.000         159.000
  21846949.016   -19338597.45149 -15042088.22347  21846947.933    21846956.906
       234.000         194.000
  24231492.149    -7349921.05649  -5710579.52545  24231492.857    24231504.979
       215.000         160.000
  21528924.871   -16831742.96649 -13099579.34447  21528925.275    21528932.030
       239.000         201.000
 00  2  5  1  3 30.0000000  0  7G 5G24G 6G 4G10G 9G30
  20215974.122   -28533481.03649 -22218492.40248  20215973.593    20215980.717
       249.000         222.000
  20789766.005   -23166120.45549 -17366031.62348  20789765.895    20789773.330
       245.000         215.000
  23286596.914   -13852200.13149 -10538201.86246  23286596.974    23286605.714
       223.000         174.000
  23460651.507    -9113730.36149  -6787145.96645  23460652.158    23460659.762
       219.000         159.000
  21832412.390   -19414987.53749 -15101612.84447  21832411.416    21832420.017
       234.000         194.000
  24248826.719    -7258827.54149  -5639597.66145  24248826.677    24248838.733
       216.000         160.000
  21515660.174   -16901449.11449 -13153895.76647  21515660.358    21515667.023
       240.000         201.000
 00  2  5  1  4  0.0000000  0  7G 5G24G 6G 4G10G 9G30
  20216979.347   -28528198.34649 -22214376.00848  20216978.857    20216985.840
       249.000         222.000
  20799290.224   -23116070.32449 -17327031.51548  20799290.211    20799297.776
       245.000         215.000
  23273750.434   -13919708.41949 -10590805.58546  23273749.818    23273759.303
       223.000         174.000
  23479034.978    -9017124.51449  -6711868.68145  23479035.852    23479043.123
       218.000         159.000
  21817950.797   -19490983.23249 -15160830.14947  21817950.027    21817958.801
       234.000         194.000
  24266156.693    -7167758.19349  -5568634.64445  24266156.869    24266169.388
       213.000         159.000
  21502467.371   -16970777.54549 -13207917.86047  21502467.631    21502474.397
       241.000         202.000
 00  2  5  1  4 30.0000000  0  7G 5G24G 6G 4G10G 9G30
  20218081.765   -28522405.02949 -22209861.72548  20218081.254    20218088.241
       248.000         222.000
  20808869.438   -23065731.31549 -17287806.30948  20808869.419    20808876.898
       245.000         214.000
  23260908.347   -13987193.65549 -10643391.34946  23260908.268    23260917.702
       222.000         174.000
  23497424.176    -8920488.68549  -6636568.03445  23497423.922    23497432.551
       217.000         159.000
  21803564.933   -19566581.10249 -15219737.46047  21803563.887    21803572.694
       234.000         195.000
  24283482.531    -7076710.91849  -5497688.83045  24283482.775    24283495.132
       213.000         159.000
  21489342.305   -17039749.97849 -13261662.55347  21489342.328    21489349.465
       240.000         202.000
 00  2  5  1  5  0.0000000  0  7G 5G24G 6G 4G10G 9G30
  20219284.767   -28516083.17149 -22204935.59348  20219284.351    20219291.370
       248.000         222.000
  20818500.143   -23015121.67349 -17248370.21948  20818500.072    20818507.756
       245.000         214.000
  23248069.527   -14054661.73149 -10695963.74746  23248069.177    23248078.171
       223.000         175.000
  23515818.241    -8823827.16049  -6561247.36145  23515818.198    23515827.344
       217.000         159.000
  21789255.677   -19641776.26349 -15278330.98047  21789254.913    21789263.252
       235.000         195.000
  24300801.640    -6985698.75149  -5426770.36945  24300802.295    24300814.359
       213.000         158.000
  21476286.610   -17108357.70149 -13315123.05947  21476286.816    21476293.931
       240.000         202.000
 00  2  5  1  5 30.0000000  0  7G 5G24G 6G 4G10G 9G30
  20220592.806   -28509209.45949 -22199579.44248  20220592.225    20220599.197
       248.000         222.000
  20828182.465   -22964240.78649 -17208722.76548  20828182.349    20828189.865
       245.000         214.000
  23235236.014   -14122101.88049 -10748514.37146  23235235.421    23235244.840
       223.000         175.000
  23534220.738    -8727121.35749  -6485892.18545  23534221.018    23534229.506
       219.000         159.000
  21775021.753   -19716575.36849 -15336615.88247  21775020.647    21775029.455
       235.000         195.000
  24318113.508    -6894724.80949  -5355881.70145  24318113.091    24318125.320
       213.000         158.000
  21463302.560   -17176589.00449 -13368290.25147  21463302.625    21463309.787
       240.000         202.000
 00  2  5  1  6  0.0000000  0  7G 5G24G 6G 4G10G 9G30
  20222007.304   -28501776.20249 -22193787.28648  20222006.856    20222013.803
       248.000         222.000
  20837916.565   -22913087.61249 -17168863.13848  20837916.341    20837923.943
       245.000         214.000
  23222408.623   -14189509.56549 -10801039.71046  23222408.141    23222417.802
       223.000         175.000
  23552630.305    -8630378.62949  -6410508.23645  23552630.853    23552639.171
       218.000         159.000
  21760867.365   -19790956.76049 -15394575.30647  21760866.336    21760874.979
       235.000         195.000
  24335420.291    -6803777.29749  -5285013.60445  24335420.529    24335432.610
       212.000         158.000
  21450391.469   -17244436.96449 -13421158.73847  21450391.583    21450398.733
       241.000         203.000
 00  2  5  1  6 30.0000000  0  7G 5G24G 6G 4G10G 9G30
  20223530.608   -28493771.09049 -22187549.52548  20223530.101    20223537.225
       248.000         222.000
  20847706.008   -22861643.62949 -17128776.90248  20847705.764    20847713.322
       245.000         214.000
  23209587.297   -14256885.56249 -10853540.35246  23209587.217    23209595.992
       221.000         175.000
  23571047.122    -8533597.47149  -6335094.35145  23571047.343    23571055.165
       219.000         160.000
  21746793.627   -19864914.31149 -15452204.46447  21746792.399    21746801.137
       235.000         196.000
  24352720.156    -6712866.47049  -5214174.11145  24352720.233    24352732.260
       213.000         157.000
  21437554.784   -17311893.90149 -13473722.53447  21437555.189    21437562.139
       240.000         203.000
 00  2  5  1  7  0.0000000  0  7G 5G24G 6G 4G10G 9G30
  20225160.438   -28485206.14449 -22180875.53048  20225159.923    20225166.887
       248.000         222.000
  20857554.547   -22809889.08649 -17088448.67148  20857554.366    20857561.805
       245.000         214.000
  23196771.576   -14324231.79049 -10906017.80646  23196771.389    23196779.971
       223.000         175.000
  23589474.464    -8436761.21649  -6259637.52345  23589474.776    23589483.267
       218.000         159.000
  21732801.094   -19938445.08949 -15509501.07747  21732800.126    21732808.907
       235.000         196.000
  24370013.046    -6621991.95649  -5143362.90745  24370013.311    24370025.454
       212.000         156.000
  21424798.251   -17378929.76249 -13525958.21647  21424798.481    21424805.387
       241.000         203.000
 00  2  5  1  7 30.0000000  0  7G 5G24G 6G 4G10G 9G30
  20226893.598   -28476098.15749 -22173778.38748  20226893.233    20226900.158
       248.000         222.000
  20867465.813   -22757804.94449 -17047863.60748  20867465.684    20867473.182
       245.000         214.000
  23183959.396   -14391559.56049 -10958480.87246  23183959.099    23183968.474
       222.000         175.000
  23607910.512    -8339879.32449  -6184145.13945  23607910.574    23607918.612
       217.000         159.000
  21718890.241   -20011546.73549 -15566463.29847  21718889.366    21718897.601
       235.000         196.000
  24387301.616    -6531140.57249  -5072569.73045  24387301.712    24387314.016
       210.000         155.000
  21412120.678   -17445550.72349 -13577870.59847  21412120.887    21412127.759
       241.000         203.000
 00  2  5  1  8  0.0000000  0  7G 5G24G 6G 4G10G 9G30
  20228727.055   -28466463.47949 -22166270.83548  20228726.554    20228733.463
       248.000         222.000
  20877441.311   -22705383.31849 -17007015.56748  20877440.948    20877448.767
       244.000         214.000
  23171150.791   -14458868.80749 -11010929.50346  23171150.526    23171159.910
       222.000         176.000
  23626352.752    -8242964.80949  -6108627.33745  23626353.356    23626360.544
       218.000         160.000
  21705060.581   -20084221.62949 -15623092.99647  21705059.610    21705068.151
       236.000         196.000
  24404585.282    -6440314.36349  -5001796.17045  24404585.347    24404597.697
       211.000         154.000
  21399523.123   -17511751.10749 -13629455.25847  21399523.398    21399530.226
       241.000         203.000
 00  2  5  1  8 30.0000000  0  7G 5G24G 6G 4G10G 9G30
  20230658.589   -28456312.96049 -22158361.32948  20230658.027    20230665.053
       248.000         222.000
  20887480.211   -22652628.48949 -16965907.88548  20887480.128    20887487.667
       245.000         214.000
  23158347.712   -14526148.91549 -11063355.44046  23158347.680    23158356.627
       223.000         177.000
  23644802.013    -8146013.40749  -6033080.77445  23644802.194    23644809.921
       218.000         160.000
  21691306.538   -20156499.22249 -15679413.10947  21691305.642    21691314.010
       236.000         197.000
  24421862.996    -6349519.72849  -4931047.20845  24421863.855    24421875.470
       211.000         153.000
  21387007.283   -17577522.06849 -13680705.30247  21387007.753    21387014.273
       241.000         204.000
 00  2  5  1  9  0.0000000  0  7G 5G24G 6G 4G10G 9G30
  20232686.167   -28445658.03949 -22150058.78048  20232685.793    20232692.802
       248.000         222.000
  20897579.434   -22599556.70749 -16924553.23148  20897579.297    20897586.937
       245.000         214.000
  23145549.967   -14593400.90249 -11115759.47746  23145549.300    23145559.188
       225.000         177.000
  23663256.525    -8049034.38749  -5957512.70245  23663256.728    23663264.701
       218.000         160.000
  21677628.044   -20228379.86349 -15735423.90547  21677627.251    21677635.636
       236.000         197.000
  24439133.493    -6258763.05949  -4860327.81845  24439133.850    24439146.061
       210.000         152.000
  21374572.064   -17642869.29549 -13731625.16547  21374572.212    21374579.137
       242.000         204.000
 00  2  5  1  9 30.0000000  0  7G 5G24G 6G 4G10G 9G30
  20234811.706   -28434488.25949 -22141355.04348  20234811.082    20234818.078
       248.000         222.000
  20907736.573   -22546180.41849 -16882961.29948  20907736.535    20907743.998
       244.000         213.000
  23132758.420   -14660620.68649 -11168138.42946  23132757.905    23132767.236
       225.000         177.000
  23681713.038    -7952044.61249  -5881936.23745  23681713.061    23681722.039
       218.000         161.000
  21664025.385   -20299861.96849 -15791124.16247  21664024.648    21664032.889
       236.000         197.000
  24456394.574    -6168056.11649  -4789647.18545  24456395.660    24456407.253
       209.000         151.000
  21362215.341   -17707803.94149 -13782223.53547  21362215.576    21362222.323
       241.000         204.000
 00  2  5  1 10  0.0000000  0  7G 5G24G 6G 4G10G 9G30
  20237037.345   -28422792.19549 -22132241.21448  20237036.861    20237043.828
       248.000         222.000
  20917948.166   -22492518.19949 -16841146.56048  20917948.006    20917955.474
       245.000         213.000
  23119976.301   -14727790.64249 -11220478.54646  23119976.104    23119985.143
       225.000         178.000
  23700174.035    -7855031.39949  -5806341.51845  23700173.891    23700182.665
       219.000         161.000
  21650499.627   -20370939.99149 -15846509.54547  21650498.552    21650507.018
       236.000         198.000
  24473642.618    -6077417.30149  -4719019.63945  24473642.510    24473655.049
       208.000         150.000
  21349938.032   -17772321.59049 -13832496.96947  21349938.145    21349944.839
       241.000         204.000
 00  2  5  1 10 30.0000000  0  7G 5G24G 6G 4G10G 9G30
  20239367.304   -28410548.28049 -22122700.49148  20239366.878    20239373.718
       248.000         222.000
  20928212.489   -22438578.66649 -16799115.74248  20928212.420    20928220.069
       245.000         213.000
  23107202.057   -14794919.47049 -11272786.61646  23107201.587    23107210.510
       225.000         178.000
  23718639.856    -7757992.83049  -5730727.03145  23718640.537    23718648.866
       216.000         161.000
  21637052.716   -20441603.62049 -15901572.02747  21637051.511    21637060.358
       237.000         198.000
  24490876.126    -5986854.93949  -4648451.67645  24490875.240    24490889.665
       211.000         150.000
  21337739.956   -17836422.60349 -13882445.75547  21337740.010    21337746.931
       242.000         204.000
 00  2  5  1 11  0.0000000  0  7G 5G24G 6G 4G10G 9G30
  20241805.573   -28397735.01249 -22112716.11648  20241805.000    20241812.082
       249.000         222.000
  20938530.301   -22384358.27949 -16756866.07448  20938530.107    20938537.653
       245.000         213.000
  23094433.135   -14862020.16749 -11325072.78246  23094432.767    23094441.977
       226.000         178.000
  23737110.714    -7660927.72249  -5655091.87745  23737110.181    23737119.912
       217.000         161.000
  21623690.685   -20511821.14549 -15956286.89047  21623689.911    21623697.955
       236.000         198.000
  24508096.733    -5896360.40249  -4577936.55545  24508097.207    24508109.694
       211.000         150.000
  21325623.215   -17900096.34949 -13932061.60347  21325623.478    21325630.156
       242.000         205.000
 00  2  5  1 11 30.0000000  0  7G 5G24G 6G 4G10G 9G30
  20244354.992   -28384337.41649 -22102276.41848  20244354.675    20244361.544
       249.000         222.000
  20948903.376   -22329847.18249 -16714389.88248  20948903.226    20948910.775
       244.000         213.000
  23081671.855   -14929080.81049 -11377327.74146  23081671.591    23081680.362
       227.000         178.000
  23755588.534    -7563826.10049  -5579428.27045  23755589.148    23755596.974
       217.000         161.000
  21610414.498   -20581587.60049 -16010650.26947  21610413.722    21610422.008
       236.000         198.000
  24525307.140    -5805919.59349  -4507463.30245  24525307.273    24525320.301
       213.000         151.000
  21313590.554   -17963328.25149 -13981333.15947  21313590.618    21313597.635
       242.000         205.000
 00  2  5  1 12  0.0000000  0  7G 5G24G 6G 4G10G 9G30
  20247015.316   -28370357.51049 -22091382.97148  20247014.973    20247021.792
       248.000         222.000
  20959331.410   -22275047.50649 -16671688.81948  20959331.357    20959338.760
       244.000         213.000
  23068920.286   -14996090.23349 -11429542.77846  23068919.829    23068929.150
       227.000         178.000
  23774074.560    -7466681.32949  -5503731.04045  23774075.130    23774083.724
       215.000         161.000
  21597226.110   -20650892.71949 -16064654.16347  21597225.192    21597233.494
       237.000         199.000
  24542508.180    -5715527.77949  -4437028.21545  24542508.825    24542520.148
       214.000         152.000
  21301641.881   -18026118.67349 -14030260.69947  21301642.030    21301648.786
       241.000         205.000
 00  2  5  1 12 30.0000000  0  7G 5G24G 6G 4G10G 9G30
  20249785.523   -28355799.97149 -22080039.42248  20249785.026    20249792.115
       248.000         222.000
  20969813.705   -22219962.66149 -16628765.55148  20969813.390    20969821.058
       245.000         213.000
  23056176.466   -15063059.10949 -11481726.22346  23056176.131    23056184.731
       226.000         178.000
  23792566.989    -7369503.08749  -5428007.72945  23792567.378    23792575.676
       216.000         161.000
  21584125.421   -20719736.99749 -16118298.96047  21584124.651    21584132.690
       238.000         199.000
  24559702.457    -5625171.94449  -4366621.17245  24559703.841    24559715.160
       213.000         152.000
  21289778.571   -18088460.51349 -14078838.70047  21289778.613    21289785.496
       241.000         205.000
 00  2  5  1 13  0.0000000  0  7G 5G24G 6G 4G10G 9G30
  20252663.022   -28340678.45249 -22068256.40948  20252662.583    20252669.420
       248.000         222.000
  20980349.479   -22164596.59449 -16585623.14948  20980349.236    20980356.627
       244.000         213.000
  23043442.701   -15129975.04949 -11533868.42146  23043442.477    23043451.167
       226.000         178.000
  23811062.550    -7272308.35349  -5352271.57645  23811063.074    23811070.584
       216.000         161.000
  21571112.228   -20788121.40349 -16171585.41447  21571111.111    21571119.269
       238.000         199.000
  24576891.685    -5534842.74749  -4296234.89445  24576891.962    24576904.676
       213.000         152.000
  21277999.338   -18150360.65649 -14127072.52147  21277999.467    21278006.432
       241.000         205.000
 00  2  5  1 13 30.0000000  0  7G 5G24G 6G 4G10G 9G30
  20255642.590   -28325020.59849 -22056055.47148  20255642.131    20255649.149
       248.000         222.000
  20990936.842   -22108959.32249 -16542269.42047  20990936.917    20990944.260
       244.000         212.000
  23030722.121   -15196821.85949 -11585956.75546  23030721.893    23030731.283
       226.000         178.000
  23829559.923    -7175104.15049  -5276528.02345  23829559.489    23829568.657
       214.000         160.000
  21558185.644   -20856050.45349 -16224517.04047  21558184.360    21558192.735
       239.000         199.000
  24594071.469    -5444562.63849  -4225886.87045  24594071.329    24594083.665
       214.000         152.000
  21266300.732   -18211836.94149 -14174976.06247  21266300.816    21266307.607
       242.000         206.000
 00  2  5  1 14  0.0000000  0  7G 5G24G 6G 4G10G 9G30
  20258719.985   -28308848.84649 -22043454.09948  20258719.590    20258726.617
       249.000         222.000
  21001572.242   -22053070.03949 -16498719.32047  21001572.234    21001579.542
       244.000         212.000
  23018011.918   -15263614.09049 -11638002.55946  23018011.232    23018020.629
       225.000         177.000
  23848055.243    -7077910.49349  -5200792.69645  23848054.765    23848064.121
       214.000         160.000
  21545344.966   -20923528.27249 -16277097.05747  21545343.859    21545351.805
       238.000         200.000
  24611238.057    -5354352.40149  -4155593.27245  24611238.044    24611250.549
       215.000         151.000
  21254681.468   -18272896.29749 -14222554.73047  21254681.670    21254688.629
       241.000         206.000
 00  2  5  1 14 30.0000000  0  7G 5G24G 6G 4G10G 9G30
  20261894.566   -28292166.26149 -22030454.67548  20261894.183    20261901.028
       249.000         222.000
  21012255.830   -21996927.38849 -16454971.79247  21012255.668    21012263.128
       244.000         212.000
  23005308.520   -15330370.29249 -11690020.29746  23005308.516    23005317.412
       225.000         177.000
  23866547.158    -6980734.66049  -5125071.24945  23866547.253    23866555.043
       213.000         159.000
  21532587.911   -20990566.55349 -16329334.57547  21532587.030    21532595.142
       238.000         200.000
  24628391.064    -5264212.74949  -4085354.69045  24628390.310    24628404.060
       214.000         151.000
  21243140.702   -18333543.02749 -14269811.86547  21243140.860    21243147.469
       242.000         206.000
 00  2  5  1 15  0.0000000  0  7G 5G24G 6G 4G10G 9G30
  20265166.541   -28274971.92549 -22017056.48648  20265166.147    20265173.017
       248.000         222.000
  21022988.963   -21940524.28749 -16411021.31947  21022988.748    21022996.278
       244.000         212.000
  22992611.410   -15397093.40049 -11742012.22046  22992610.387    22992619.750
       225.000         177.000
  23885036.180    -6883574.07249  -5049361.69145  23885036.263    23885045.038
       215.000         159.000
  21519914.935   -21057163.27249 -16381228.02647  21519914.054    21519922.202
       238.000         200.000
  24645528.646    -5174154.37649  -4015179.43345  24645529.145    24645541.447
       214.000         151.000
  21231676.112   -18393789.72549 -14316757.29147  21231676.316    21231683.160
       241.000         206.000
 00  2  5  1 15 30.0000000  0  7G 5G24G 6G 4G10G 9G30
  20268536.143   -28257264.47649 -22003258.46748  20268535.665    20268542.634
       249.000         222.000
  21033771.469   -21883861.79749 -16366868.71947  21033771.353    21033778.790
       244.000         212.000
  22979917.131   -15463801.93349 -11793992.79946  22979917.264    22979926.097
       224.000         177.000
  23903524.680    -6786416.32649  -4973654.34245  23903524.764    23903533.871
       212.000         157.000
  21507325.467   -21123321.05949 -16432779.44647  21507324.779    21507332.697
       238.000         200.000
  24662651.392    -5084174.33949  -3945065.21345  24662651.582    24662664.247
       212.000         150.000
  21220289.842   -18453624.83349 -14363381.99947  21220290.079    21220296.905
       242.000         207.000
 00  2  5  1 16  0.0000000  0  7G 5G24G 6G 4G10G 9G30
  20272006.731   -28239026.45349 -21989047.01648  20272006.212    20272013.194
       248.000         222.000
  21044605.147   -21826930.36649 -16322506.55947  21044604.863    21044612.464
       244.000         212.000
  22967222.636   -15530511.56449 -11845974.23246  22967222.043    22967231.229
       224.000         177.000
  23922012.471    -6689262.27949  -4897949.87845  23922012.156    23922021.090
       210.000         156.000
  21494818.176   -21189046.83049 -16483994.23547  21494817.438    21494825.192
       238.000         200.000
  24679762.842    -4994253.53549  -3874997.14745  24679763.195    24679775.498
       212.000         150.000
  21208983.244   -18513041.24249 -14409680.44847  21208983.166    21208990.076
       242.000         207.000
 00  2  5  1 16 30.0000000  0  7G 5G24G 6G 4G10G 9G30
  20275580.898   -28220243.98649 -21974411.32348  20275580.368    20275587.331
       248.000         222.000
  21055490.869   -21769725.40249 -16277931.25647  21055490.687    21055498.244
       244.000         211.000
  22954527.728   -15597223.33349 -11897957.33246  22954527.182    22954536.123
       225.000         177.000
  23940500.681    -6592105.98549  -4822243.66245  23940500.326    23940509.567
       212.000         156.000
  21482396.155   -21254324.45949 -16534859.82047  21482395.087    21482403.345
       238.000         200.000
  24696864.203    -4904385.64949  -3804970.32345  24696864.047    24696878.130
       212.000         150.000
  21197758.853   -18572025.40649 -14455642.08247  21197759.027    21197765.802
       242.000         207.000
 00  2  5  1 17  0.0000000  0  7G 5G24G 6G 4G10G 9G30
  20279258.590   -28200917.61449 -21959351.81248  20279258.192    20279264.990
       249.000         222.000
  21066426.858   -21712256.38549 -16233150.19647  21066426.576    21066434.101
       244.000         211.000
  22941835.584   -15663920.79749 -11949929.27546  22941835.228    22941844.132
       225.000         177.000
  23958989.172    -6494948.22649  -4746536.30545  23958989.667    23958998.921
       211.000         155.000
  21470063.176   -21319134.45549 -16585361.01847  21470062.315    21470070.048
       239.000         201.000
  24713952.253    -4814587.79349  -3734998.07345  24713951.857    24713964.856
       212.000         150.000
  21186621.223   -18630553.90549 -14501248.65447  21186621.467    21186628.060
       242.000         207.000
 00  2  5  1 17 30.0000000  0  7G 5G24G 6G 4G10G 9G30
  20283037.629   -28181058.56549 -21943877.22748  20283037.255    20283044.040
       248.000         222.000
  21077410.964   -21654534.44749 -16188172.05147  21077410.822    21077418.289
       244.000         211.000
  22929149.178   -15730587.80249 -12001877.48846  22929148.761    22929157.426
       225.000         177.000
  23977478.186    -6397787.67949  -4670826.77345  23977477.987    23977487.950
       211.000         154.000
  21457821.204   -21383466.11849 -16635489.49247  21457820.500    21457828.093
       238.000         201.000
  24731022.013    -4724886.05349  -3665100.71445  24731022.220    24731035.767
       214.000         149.000
  21175572.356   -18688615.84749 -14546491.67847  21175572.526    21175579.036
       242.000         207.000
 00  2  5  1 18  0.0000000  0  7G 5G24G 6G 4G10G 9G30
  20286917.458   -28160669.96649 -21927990.00648  20286916.930    20286923.948
       248.000         222.000
  21088441.388   -21596569.22449 -16143004.33447  21088441.266    21088448.705
       244.000         211.000
  22916470.934   -15797211.84349 -12053792.22446  22916470.328    22916479.725
       226.000         177.000
  23995967.429    -6300625.92849  -4595116.30245  23995967.357    23995976.818
       212.000         154.000
  21445672.010   -21447309.92149 -16685237.81747  21445670.991    21445678.997
       239.000         201.000
  24748066.404    -4635317.36049  -3595307.02145  24748067.519    24748078.958
       211.000         148.000
  21164612.725   -18746208.94549 -14591369.37047  21164612.863    21164619.836
       242.000         208.000
 00  2  5  1 18 30.0000000  0  7G 5G24G 6G 4G10G 9G30
  20290899.110   -28139746.12249 -21911685.70848  20290898.473    20290905.439
       248.000         222.000
  21099514.821   -21538377.75349 -16097660.31547  21099514.640    21099522.132
       243.000         211.000
  22903802.642   -15863783.64749 -12105666.25946  22903802.777    22903811.018
       225.000         177.000
  24014458.179    -6203456.60249  -4519399.91945  24014458.826    24014466.745
       212.000         153.000
  21433616.743   -21510660.30049 -16734601.65347  21433615.767    21433623.675
       239.000         201.000
  24765081.766    -4545901.37549  -3525632.30845  24765083.020    24765094.880
       211.000         147.000
  21153744.697   -18803320.62549 -14635871.93047  21153744.817    21153751.513
       242.000         208.000
 00  2  5  1 19  0.0000000  0  7G 5G24G 6G 4G10G 9G30
  20294981.751   -28118291.65049 -21894967.93648  20294981.257    20294988.275
       248.000         222.000
  21110632.585   -21479953.58849 -16052134.97847  21110632.503    21110639.915
       243.000         211.000
  22891146.318   -15930292.53949 -12157491.27546  22891145.839    22891154.658
       226.000         177.000
  24032953.605    -6106262.53849  -4443664.26345  24032953.652    24032961.682
       212.000         153.000
  21421652.921   -21573530.21549 -16783591.10847  21421651.949    21421660.178
       239.000         202.000
  24782068.382    -4456636.41049  -3456075.27645  24782069.081    24782081.780
       211.000         147.000
  21142965.437   -18859965.82649 -14680011.00147  21142965.689    21142972.179
       243.000         208.000
 00  2  5  1 19 30.0000000  0  7G 5G24G 6G 4G10G 9G30
  20299167.168   -28096297.20549 -21877829.40848  20299166.869    20299173.710
       248.000         221.000
  21121794.702   -21421296.09249 -16006427.82447  21121794.496    21121801.975
       244.000         211.000
  22878497.197   -15996763.79349 -12209286.95146  22878496.666    22878505.561
       225.000         178.000
  24051452.837    -6009048.38849  -4367912.95545  24051453.275    24051460.826
       211.000         153.000
  21409778.349   -21635931.20949 -16832215.17347  21409777.709    21409785.362
       239.000         202.000
  24799030.145    -4367502.19749  -3386620.14345  24799030.648    24799042.587
       210.000         147.000
  21132274.175   -18916148.47649 -14723789.64347  21132274.341    21132281.185
       243.000         208.000
 00  2  5  1 20  0.0000000  0  7G 5G24G 6G 4G10G 9G30
  20303459.251   -28073742.02949 -21860253.94548  20303458.788    20303465.760
       248.000         221.000
  21133002.120   -21362400.68849 -15960535.28647  21133001.997    21133009.487
       243.000         210.000
  22865853.548   -16063206.26349 -12261060.19746  22865852.650    22865861.491
       225.000         178.000
  24069955.332    -5911817.07649  -4292148.27845  24069955.237    24069963.760
       213.000         152.000
  21397990.863   -21697874.61949 -16880482.67847  21397989.990    21397997.804
       239.000         202.000
  24815975.796    -4278452.40749  -3317230.79945  24815976.597    24815989.710
       213.000         147.000
  21121671.811   -18971864.17949 -14767204.43147  21121672.121    21121678.605
       243.000         209.000
 00  2  5  1 20 30.0000000  0  7G 5G24G 6G 4G10G 9G30
  20307858.006   -28050626.46149 -21842241.81648  20307857.703    20307864.400
       248.000         221.000
  21144256.727   -21303257.30749 -15914449.51747  21144256.446    21144264.127
       243.000         210.000
  22853215.274   -16129620.32949 -12312811.32246  22853215.618    22853223.076
       226.000         179.000
  24088460.326    -5814572.72649  -4216373.43045  24088460.796    24088469.765
       213.000         151.000
  21386290.179   -21759361.94549 -16928394.79547  21386289.270    21386297.145
       239.000         202.000
  24832911.959    -4189452.99949  -3247880.70145  24832911.423    24832924.664
       209.000         147.000
  21111156.007   -19027124.86449 -14810264.66347  21111156.391    21111162.806
       243.000         209.000
 00  2  5  1 21  0.0000000  0  7G 5G24G 6G 4G10G 9G30
  20312360.712   -28026964.51249 -21823803.93348  20312360.256    20312367.231
       248.000         221.000
  21155560.263   -21243856.79149 -15868163.38247  21155560.150    21155567.597
       243.000         210.000
  22840582.075   -16196008.17149 -12364542.02146  22840581.944    22840590.279
       228.000         179.000
  24106962.084    -5717345.42149  -4140611.86145  24106961.768    24106970.170
       216.000         151.000
  21374677.332   -21820387.46649 -16975947.06747  21374676.329    21374684.347
       239.000         202.000
  24849837.694    -4100508.11249  -3178573.10145  24849838.185    24849851.695
       213.000         148.000
  21100725.944   -19081935.17349 -14852973.94947  21100726.251    21100732.776
       243.000         209.000
 00  2  5  1 21 30.0000000  0  7G 5G24G 6G 4G10G 9G30
  20316968.837   -28002748.68449 -21804934.45748  20316968.395    20316975.314
       248.000         221.000
  21166912.002   -21184202.76749 -15821679.71247  21166911.912    21166919.661
       243.000         210.000
  22827954.684   -16262365.10649 -12416248.62946  22827954.056    22827963.010
       226.000         180.000
  24125456.366    -5620157.56549  -4064881.04145  24125456.954    24125464.711
       212.000         151.000
  21363155.429   -21880935.11449 -17023126.97447  21363154.286    21363162.163
       239.000         203.000
  24866751.388    -4011626.37949  -3109314.71945  24866752.895    24866765.559
       208.000         148.000
  21090383.523   -19136284.74849 -14895324.22447  21090383.621    21090390.294
       243.000         209.000
 00  2  5  1 22  0.0000000  0  7G 5G24G 6G 4G10G 9G30
  20321680.546   -27977988.44949 -21785640.76448  20321680.054    20321687.121
       248.000         221.000
  21178312.960   -21124290.32349 -15774994.67547  21178312.749    21178320.405
       243.000         209.000
  22815339.007   -16328660.52349 -12467907.30146  22815339.119    22815346.481
       227.000         180.000
  24143943.700    -5523005.80049  -3989178.33945  24143944.645    24143951.513
       217.000         151.000
  21351728.549   -21940983.22649 -17069917.63447  21351727.816    21351735.446
       239.000         203.000
  24883647.191    -3922838.51249  -3040129.46245  24883647.429    24883659.861
       205.000         146.000
  21080126.202   -19190187.11649 -14937326.02747  21080126.342    21080132.998
       243.000         209.000
 00  2  5  1 22 30.0000000  0  7G 5G24G 6G 4G10G 9G30
  20326493.918   -27952694.06149 -21765930.85048  20326493.521    20326500.557
       248.000         221.000
  21189762.337   -21064123.22649 -15728111.20647  21189762.183    21189769.716
       243.000         209.000
  22802735.388   -16394892.74649 -12519516.74046  22802734.825    22802743.388
       228.000         181.000
  24162421.691    -5425903.29349  -3913514.01545  24162421.753    24162430.094
       215.000         151.000
  21340399.862   -22000515.47549 -17116306.32447  21340398.929    21340406.732
       239.000         203.000
  24900517.491    -3834184.68649  -2971048.66345  24900516.841    24900531.013
       208.000         145.000
  21069955.080   -19243636.65849 -14978974.97847  21069955.283    21069961.776
       243.000         209.000
 00  2  5  1 23  0.0000000  0  7G 5G24G 6G 4G10G 9G30
  20331409.681   -27926861.54249 -21745801.60948  20331409.188    20331416.108
       248.000         221.000
  21201259.305   -21003706.18249 -15681032.96947  21201259.014    21201266.601
       243.000         209.000
  22790144.643   -16461057.11049 -12571073.30446  22790144.651    22790152.613
       228.000         181.000
  24180890.742    -5328847.66049  -3837886.21045  24180890.828    24180898.634
       213.000         151.000
  21329171.797   -22059519.03849 -17162283.04847  21329170.832    21329178.526
       239.000         203.000
  24917357.940    -3745688.07249  -2902090.33845  24917357.982    24917370.675
       207.000         145.000
  21059873.803   -19296613.83249 -15020255.85047  21059874.013    21059880.443
       243.000         210.000
 00  2  5  1 23 30.0000000  0  7G 5G24G 6G 4G10G 9G30
  20336428.154   -27900489.30649 -21725251.81448  20336427.804    20336434.752
       248.000         221.000
  21212802.924   -20943044.24249 -15633763.90947  21212802.552    21212810.078
       242.000         209.000
  22777567.269   -16527151.25749 -12622575.15546  22777567.098    22777576.102
       228.000         182.000
  24199357.071    -5231806.47949  -3762269.67945  24199357.623    24199364.689
       216.000         150.000
  21318044.055   -22117995.37649 -17207848.94647  21318043.316    21318051.109
       239.000         203.000
  24934169.502    -3657343.30049  -2833250.35445  24934169.354    24934181.628
       207.000         144.000
  21049882.533   -19349118.23649 -15061168.33047  21049882.709    21049889.591
       243.000         210.000
 00  2  5  1 24  0.0000000  0  7G 5G24G 6G 4G10G 9G30
  20341548.535   -27873581.49849 -21704284.68448  20341548.169    20341555.117
       248.000         221.000
  21224390.314   -20882151.91749 -15586315.32347  21224390.160    21224397.731
       243.000         209.000
  22765001.748   -16593183.31649 -12674028.62746  22765001.477    22765010.442
       229.000         183.000
  24217820.791    -5134778.86149  -3686663.70345  24217821.571    24217828.334
       218.000         150.000
  21307013.864   -22175959.18649 -17253015.47147  21307012.992    21307020.696
       239.000         204.000
  24950952.418    -3569148.66349  -2764527.34545  24950953.354    24950964.637
       205.000         144.000
  21039983.588   -19401137.16449 -15101702.51147  21039983.742    21039990.436
       243.000         210.000
 00  2  5  1 24 30.0000000  0  7G 5G24G 6G 4G10G 9G30
  20346771.606   -27846134.09149 -21682897.09448  20346771.213    20346778.105
       248.000         221.000
  21236019.989   -20821037.46849 -15538693.66147  21236019.829    21236027.247
       242.000         208.000
  22752445.305   -16659167.63949 -12725444.90546  22752445.210    22752452.719
       228.000         183.000
  24236283.042    -5037759.22249  -3611063.95045  24236282.761    24236290.813
       217.000         149.000
  21296077.618   -22233429.18549 -17297797.20947  21296076.953    21296084.552
       240.000         204.000
  24967710.243    -3481086.24049  -2695907.34145  24967709.954    24967724.008
       205.000         144.000
  21030181.595   -19452646.88049 -15141839.91047  21030181.848    21030188.323
       243.000         210.000
 00  2  5  1 25  0.0000000  0  6G 5G24G 6G 4G10G30
  20352097.412   -27818146.73749 -21661088.76148  20352097.056    20352103.930
       248.000         221.000
  21247691.755   -20759701.71049 -15490899.54947  21247691.499    21247699.077
       242.000         208.000
  22739898.814   -16725099.53149 -12776820.33446  22739898.236    22739906.920
       229.000         183.000
  24254748.549    -4940722.26349  -3535450.69745  24254748.387    24254756.588
       217.000         148.000
  21285235.108   -22290406.81249 -17342195.27947  21285234.149    21285242.166
       239.000         204.000
  21020476.936   -19503645.19549 -15181578.81447  21020477.236    21020483.669
       244.000         210.000
 00  2  5  1 25 30.0000000  0  6G 5G24G 6G 4G10G30
  20357525.990   -27789619.37849 -21638859.64648  20357525.488    20357532.426
       248.000         221.000
  21259403.120   -20698157.94549 -15442943.34947  21259403.072    21259410.341
       242.000         208.000
  22727360.003   -16790991.27149 -12828164.46346  22727359.656    22727367.580
       229.000         184.000
  24273215.173    -4843679.36449  -3459832.81045  24273215.213    24273223.700
       215.000         149.000
  21274483.802   -22346904.92649 -17386219.70347  21274482.932    21274490.449
       239.000         204.000
  21010868.366   -19554138.29249 -15220924.03847  21010868.618    21010875.095
       244.000         210.000
 00  2  5  1 26  0.0000000  0  6G 5G24G 6G 4G10G30
  20363052.389   -27760577.88149 -21616229.90248  20363051.952    20363058.844
       248.000         221.000
  21271148.781   -20636434.01149 -15394846.76147  21271148.580    21271155.924
       242.000         208.000
  22714823.234   -16856872.16049 -12879500.14146  22714823.055    22714830.856
       229.000         184.000
  24291673.920    -4746678.01249  -3384247.29245  24291673.285    24291681.502
       211.000         148.000
  21263819.970   -22402943.24849 -17429885.84847  21263819.044    21263826.923
       239.000         204.000
  21001350.545   -19604154.61849 -15259897.75247  21001350.777    21001357.269
       244.000         210.000
 00  2  5  1 26 30.0000000  0  6G 5G24G 6G 4G10G30
  20368676.360   -27731023.42049 -21593200.44448  20368675.729    20368682.764
       248.000         221.000
  21282932.202   -20574511.74749 -15346595.62547  21282932.432    21282939.635
       242.000         208.000
  22702290.977   -16922729.38649 -12930817.38346  22702290.951    22702298.846
       229.000         185.000
  24310125.822    -4649712.34249  -3308689.60045  24310126.380    24310134.329
       217.000         149.000
  21253251.601   -22458480.01449 -17473161.17047  21253250.521    21253258.356
       240.000         205.000
  20991922.522   -19653698.98149 -15298503.70347  20991922.604    20991929.165
       244.000         211.000
 00  2  5  1 27  0.0000000  0  6G 5G24G 6G 4G10G30
  20374396.504   -27700963.89049 -21569777.42648  20374396.129    20374403.083
       248.000         221.000
  21294754.805   -20512383.61049 -15298184.07147  21294754.778    21294762.109
       242.000         207.000
  22689763.935   -16988559.33949 -12982113.36846  22689764.483    22689771.638
       229.000         185.000
  24328566.690    -4552804.62749  -3233177.05145  24328566.764    24328574.403
       215.000         148.000
  21242780.755   -22513504.36249 -17516037.20447  21242779.790    21242787.718
       240.000         205.000
  20982581.581   -19702785.65749 -15336753.01647  20982581.821    20982588.352
       243.000         211.000
 00  2  5  1 27 30.0000000  0  6G 5G24G 6G 4G10G30
  20380216.454   -27670379.95849 -21545945.78448  20380216.120    20380223.007
       248.000         221.000
  21306618.733   -20450038.14149 -15249603.16847  21306618.315    21306625.958
       242.000         207.000
  22677242.815   -17054357.88249 -13033384.88146  22677242.692    22677251.015
       229.000         185.000
  24346993.051    -4455973.49049  -3157724.17645  24346991.948    24347000.538
       214.000         148.000
  21232410.171   -22568001.83549 -17558502.68447  21232409.279    21232417.206
       240.000         205.000
  20973329.375   -19751406.04749 -15374638.98847  20973329.536    20973336.187
       244.000         211.000
 00  2  5  1 28  0.0000000  0  6G 5G24G 6G 4G10G30
  20386135.737   -27639273.96449 -21521707.34248  20386135.252    20386142.226
       248.000         221.000
  21318524.839   -20387470.99449 -15200849.52947  21318524.603    21318532.036
       242.000         207.000
  22664729.939   -17120113.31349 -13084622.80346  22664729.924    22664737.942
       229.000         186.000
  24365406.585    -4359209.47949  -3082323.61645  24365406.970    24365414.257
       213.000         147.000
  21222143.653   -22621952.31549 -17600541.93647  21222142.736    21222150.495
       240.000         205.000
  20964167.898   -19799549.86949 -15412153.60747  20964168.148    20964174.674
       244.000         211.000
 00  2  5  1 28 30.0000000  0  6G 5G24G 6G 4G10G30
  20392151.584   -27607660.39249 -21497073.38448  20392151.128    20392158.151
       248.000         221.000
  21330469.417   -20324701.70249 -15151938.37647  21330469.323    21330476.632
       242.000         207.000
  22652224.390   -17185830.13849 -13135830.63546  22652224.142    22652231.862
       229.000         186.000
  24383808.329    -4262507.43149  -3006971.33045  24383808.651    24383817.443
       211.000         148.000
  21211979.799   -22675363.55449 -17642160.99947  21211978.873    21211986.380
       240.000         205.000
  20955098.504   -19847209.62949 -15449291.03847  20955098.707    20955105.105
       244.000         211.000
 00  2  5  1 29  0.0000000  0  6G 5G24G 6G 4G10G30
  20398266.269   -27575527.33649 -21472034.63448  20398265.814    20398272.771
       248.000         221.000
  21342450.346   -20261741.54449 -15102878.49647  21342450.139    21342457.559
       242.000         207.000
  22639725.062   -17251514.06549 -13187012.83546  22639724.895    22639732.505
       230.000         186.000
  24402201.220    -4165851.77849  -2931655.19645  24402201.517    24402210.332
       210.000         147.000
  21201913.612   -22728261.23749 -17683379.89047  21201912.621    21201920.318
       240.000         206.000
  20946122.896   -19894376.62649 -15486044.49947  20946123.221    20946129.675
       244.000         211.000
 00  2  5  1 29 30.0000000  0  6G 5G24G 6G 4G10G30
  20404481.328   -27542866.98949 -21446585.01148  20404480.842    20404487.939
       247.000         221.000
  21354464.150   -20198608.35149 -15053683.78547  21354464.172    21354471.542
       241.000         207.000
  22627230.610   -17317172.51049 -13238175.17346  22627230.444    22627238.431
       229.000         186.000
  24420588.344    -4069226.64749  -2856362.84345  24420588.269    24420596.271
       211.000         147.000
  21191945.809   -22780642.04949 -17724196.03047  21191944.882    21191952.682
       240.000         206.000
  20937241.832   -19941046.85549 -15522410.86947  20937242.019    20937248.718
       244.000         211.000
 00  2  5  1 30  0.0000000  0  6G 5G24G 6G 4G10G30
  20410792.209   -27509703.11049 -21420743.02348  20410791.923    20410798.701
       248.000         220.000
  21366508.965   -20135312.47849 -15004362.31047  21366508.754    21366516.151
       243.000         207.000
  22614739.899   -17382811.08349 -13289322.03046  22614739.472    22614747.551
       230.000         186.000
  24438973.174    -3972613.54649  -2781079.86145  24438973.311    24438980.602
       213.000         147.000
  21182072.882   -22832524.40549 -17764623.76447  21182071.997    21182079.681
       240.000         206.000
  20928454.722   -19987223.34849 -15558392.50547  20928454.922    20928461.411
       244.000         211.000
 00  2  5  1 30 30.0000000  0  6G 5G24G 6G 4G10G30
  20417200.449   -27476027.42549 -21394502.22348  20417200.106    20417207.130
       247.000         220.000
  21378587.290   -20071840.45649 -14954903.57847  21378587.272    21378594.629
       241.000         206.000
  22602252.661   -17448431.52649 -13340454.75946  22602252.756    22602261.047
       229.000         186.000
  24457354.732    -3876017.70649  -2705810.35145  24457355.265    24457363.138
       210.000         146.000
  21172291.327   -22883926.49349 -17804677.25847  21172290.398    21172297.896
       240.000         206.000
  20919759.872   -20032914.90149 -15593996.27147  20919759.922    20919766.450
       244.000         212.000
 00  2  5  1 31  0.0000000  0  7G17G 5G24G 6G 4G10G30
  25079740.024    -3047803.87049  -2356294.36245  25079739.188    25079751.542
       201.000         140.000
  20423718.280   -27441776.11749 -21367812.88948  20423717.804    20423724.829
       248.000         220.000
  21390710.897   -20008130.42149 -14905259.38347  21390710.999    21390718.320
       241.000         206.000
  22589776.712   -17513992.93549 -13391541.49446  22589776.353    22589784.455
       229.000         186.000
  24475737.103    -3779417.29949  -2630537.25145  24475736.500    24475744.827
       199.000         145.000
  21162609.477   -22934804.51649 -17844322.39647  21162608.361    21162616.128
       240.000         206.000
  20911166.010   -20078075.78949 -15629186.53247  20911166.221    20911172.594
       244.000         212.000
 00  2  5  1 31 30.0000000  0  7G17G 5G24G 6G 4G10G30
  25062406.185    -3138892.49949  -2427272.21445  25062405.548    25062418.878
       202.000         139.000
  20430380.587   -27406765.30449 -21340531.73248  20430380.152    20430387.132
       248.000         220.000
  21402916.295   -19943990.58849 -14855280.27947  21402916.239    21402923.779
       241.000         206.000
  22577349.465   -17579298.17749 -13442428.61446  22577349.146    22577357.929
       229.000         187.000
  24494152.063    -3682645.50749  -2555130.63545  24494153.111    24494160.201
       210.000         145.000
  21153065.567   -22984957.71949 -17883402.73747  21153064.648    21153072.467
       240.000         206.000
  20902708.248   -20122521.41349 -15663819.44347  20902708.446    20902714.775
       244.000         212.000
 00  2  5  1 32  0.0000000  0  7G17G 5G24G 6G 4G10G30
  25045086.015    -3229909.34049  -2498194.10445  25045085.308    25045097.363
       199.000         137.000
  20437130.864   -27371292.47249 -21312890.55948  20437130.459    20437137.339
       248.000         220.000
  21415149.732   -19879703.43749 -14805186.38347  21415149.600    21415157.007
       241.000         206.000
  22564918.355   -17644623.70949 -13493331.54346  22564918.432    22564926.316
       229.000         187.000
  24512542.255    -3586003.88649  -2479825.43745  24512542.950    24512550.601
       203.000         144.000
  21143606.511   -23034665.09549 -17922135.68347  21143605.686    21143613.038
       240.000         207.000
  20894334.364   -20166526.26049 -15698108.89547  20894334.643    20894340.965
       244.000         212.000
 00  2  5  1 32 30.0000000  0  7G17G 5G24G 6G 4G10G30
  25027782.696    -3320837.71449  -2569047.05645  25027781.887    25027794.610
       199.000         137.000
  20443978.110   -27335309.76049 -21284852.08148  20443977.749    20443984.627
       248.000         220.000
  21427418.335   -19815231.46949 -14754948.47647  21427418.157    21427425.611
       241.000         206.000
  22552492.734   -17709920.37249 -13544211.97946  22552492.634    22552500.709
       229.000         187.000
  24530910.642    -3489476.98249  -2404609.62445  24530910.304    24530919.675
       203.000         143.000
  21134242.841   -23083871.24149 -17960478.06547  21134241.909    21134249.534
       240.000         207.000
  20886052.370   -20210048.23149 -15732022.08147  20886052.457    20886059.060
       245.000         212.000
 00  2  5  1 33  0.0000000  0  7G17G 5G24G 6G 4G10G30
  25010501.623    -3411648.91649  -2639808.70245  25010500.861    25010513.255
       200.000         138.000
  20450924.330   -27298807.26149 -21256408.57148  20450924.000    20450930.968
       248.000         220.000
  21439724.343   -19750563.05049 -14704557.48647  21439723.948    21439731.553
       241.000         205.000
  22540077.724   -17775161.38149 -13595049.05146  22540077.719    22540085.567
       229.000         187.000
  24549263.920    -3393029.85349  -2329455.97545  24549263.748    24549271.974
       205.000         142.000
  21124983.215   -23132530.64449 -17998394.41347  21124982.339    21124989.807
       240.000         207.000
  20877869.814   -20253047.68349 -15765528.10748  20877870.101    20877876.392
       245.000         213.000
 00  2  5  1 33 30.0000000  0  7G17G 5G24G 6G 4G10G30
  24993244.620    -3502333.53649  -2710471.70345  24993243.967    24993256.655
       200.000         140.000
  20457967.214   -27261796.51949 -21227569.03148  20457966.934    20457973.732
       248.000         220.000
  21452066.566   -19685704.07949 -14654018.01747  21452066.373    21452073.754
       242.000         205.000
  22527676.769   -17840328.48749 -13645828.53246  22527676.324    22527684.441
       229.000         187.000
  24567606.998    -3296636.06449  -2254343.88945  24567607.749    24567614.826
       208.000         142.000
  21115828.525   -23180638.56749 -18035881.03847  21115827.667    21115835.057
       240.000         207.000
  20869787.756   -20295519.09149 -15798622.67248  20869788.056    20869794.309
       244.000         213.000
 00  2  5  1 34  0.0000000  0  7G17G 5G24G 6G 4G10G30
  24976011.615    -3592892.55849  -2781036.83345  24976010.698    24976024.271
       199.000         141.000
  20465104.974   -27224287.46849 -21198341.19448  20465104.423    20465111.618
       247.000         220.000
  21464444.768   -19620656.12149 -14603331.28347  21464444.594    21464451.901
       241.000         205.000
  22515288.505   -17905428.73049 -13696555.91746  22515287.911    22515296.078
       230.000         187.000
  24585942.045    -3200284.20849  -2179264.48445  24585942.456    24585950.357
       207.000         143.000
  21106776.728   -23228205.89449 -18072946.41647  21106776.063    21106783.270
       240.000         207.000
  20861807.412   -20337455.91049 -15831300.67848  20861807.581    20861813.966
       245.000         213.000
 00  2  5  1 34 30.0000000  0  7G17G 5G24G 6G 4G10G30
  24958802.597    -3683325.20449  -2851503.48645  24958801.201    24958815.086
       198.000         142.000
  20472338.838   -27186273.14449 -21168719.64248  20472338.415    20472345.264
       248.000         220.000
  21476858.999   -19555418.92149 -14552497.08647  21476858.820    21476866.269
       241.000         205.000
  22502911.997   -17970467.41349 -13747235.32546  22502911.878    22502919.819
       229.000         187.000
  24604270.351    -3103968.08349  -2104212.92445  24604269.279    24604278.494
       205.000         143.000
  21097826.804   -23275237.83049 -18109594.61447  21097825.879    21097833.315
       240.000         207.000
  20853925.977   -20378872.91549 -15863573.63448  20853926.247    20853932.542
       245.000         213.000
 00  2  5  1 35  0.0000000  0  7G17G 5G24G 6G 4G10G30
  24941620.030    -3773619.01349  -2921861.97045  24941618.537    24941631.228
       205.000         143.000
  20479667.211   -27147762.29649 -21138711.18648  20479666.782    20479673.731
       247.000         220.000
  21489306.893   -19490004.76949 -14501525.00547  21489306.952    21489314.248
       240.000         204.000
  22490545.133   -18035455.28249 -13797875.13747  22490544.780    22490552.890
       230.000         188.000
  24622592.312    -3007685.42249  -2029187.43245  24622592.264    24622601.074
       202.000         143.000
  21088979.236   -23321731.64749 -18145823.49447  21088978.464    21088985.735
       241.000         207.000
  20846140.895   -20419783.69349 -15895452.13048  20846141.117    20846147.211
       245.000         213.000
 00  2  5  1 35 30.0000000  0  6G17G 5G24G 6G10G30
  24924473.358    -3863724.33449  -2992073.59645  24924472.027    24924485.960
       203.000         144.000
  20487103.202   -27108685.94149 -21108262.07648  20487102.624    20487109.720
       247.000         219.000
  21501798.860   -19424358.96349 -14450372.41547  21501798.884    21501806.075
       240.000         204.000
  22478196.901   -18100345.37549 -13848438.76947  22478196.448    22478204.563
       230.000         188.000
  21080244.917   -23367630.59849 -18181588.84747  21080244.101    21080251.541
       240.000         207.000
  20838459.033   -20460152.05949 -15926907.96748  20838459.235    20838465.325
       245.000         213.000
 00  2  5  1 36  0.0000000  0  6G17G 5G24G 6G10G30
  24907346.443    -3953725.75249  -3062204.28445  24907345.603    24907357.723
       207.000         146.000
  20494633.274   -27069115.04849 -21077427.61448  20494632.871    20494639.839
       247.000         219.000
  21514320.286   -19358558.26649 -14399099.12747  21514319.956    21514327.332
       240.000         204.000
  22465849.645   -18165230.27149 -13898998.33847  22465849.556    22465857.357
       229.000         188.000
  21071611.583   -23412998.71849 -18216940.56947  21071610.498    21071618.167
       241.000         207.000
  20830863.326   -20500067.53349 -15958010.89948  20830863.543    20830869.980
       245.000         213.000
 00  2  5  1 36 30.0000000  0  6G17G 5G24G 6G10G30
  24890239.136    -4043623.88149  -3132254.48845  24890238.037    24890250.934
       207.000         146.000
  20502256.853   -27029052.80249 -21046210.27848  20502256.443    20502263.380
       248.000         219.000
  21526866.874   -19292625.36349 -14347722.81947  21526866.600    21526873.841
       240.000         203.000
  22453500.728   -18230123.93449 -13949564.73947  22453500.265    22453508.224
       230.000         189.000
  21063078.770   -23457838.64449 -18251880.70647  21063077.805    21063085.157
       240.000         208.000
  20823351.800   -20539540.71949 -15988769.19348  20823351.943    20823358.336
       245.000         213.000
 00  2  5  1 37  0.0000000  0  6G17G 5G24G 6G10G30
  24873155.340    -4133398.81949  -3202208.71245  24873154.304    24873166.591
       207.000         146.000
  20509975.862   -26988488.98249 -21014602.10548  20509975.499    20509982.255
       247.000         219.000
  21539439.156   -19226557.50149 -14296241.35047  21539438.997    21539446.381
       240.000         203.000
  22441151.184   -18295020.94849 -14000133.74447  22441150.765    22441159.204
       231.000         189.000
  21054649.045   -23502136.77049 -18286398.66247  21054648.180    21054655.471
       241.000         208.000
  20815931.106   -20578536.53849 -16019155.51348  20815931.391    20815937.638
       245.000         214.000
 00  2  5  1 37 30.0000000  0  6G17G 5G24G 6G10G30
  24856097.868    -4223035.42149  -3272055.16145  24856096.682    24856108.927
       207.000         145.000
  20517795.060   -26947398.87949 -20982583.83948  20517794.686    20517801.581
       248.000         219.000
  21552041.005   -19160334.15549 -14244638.72147  21552040.683    21552048.316
       239.000         203.000
  22428804.477   -18359903.00549 -14050691.09647  22428804.172    22428812.224
       231.000         189.000
  21046322.765   -23545891.59549 -18320493.27247  21046321.865    21046329.181
       241.000         208.000
  20808609.290   -20617012.89049 -16049137.05548  20808609.559    20808615.816
       245.000         214.000
 00  2  5  1 38  0.0000000  0  6G17G 5G24G 6G10G30
  24839071.321    -4312509.63749  -3341775.07845  24839069.970    24839082.761
       209.000         145.000
  20525716.460   -26905771.72749 -20950147.09748  20525716.072    20525722.931
       247.000         219.000
  21564674.137   -19093946.47849 -14192908.04547  21564674.057    21564681.195
       239.000         202.000
  22416469.298   -18424724.48049 -14101201.24547  22416468.762    22416476.572
       231.000         189.000
  21038103.178   -23589085.55249 -18354150.84347  21038102.155    21038109.598
       241.000         208.000
  20801395.764   -20654919.99449 -16078675.03148  20801395.893    20801402.238
       245.000         214.000
 00  2  5  1 38 30.0000000  0  6G17G 5G24G 6G10G30
  24822080.113    -4401798.17349  -3411350.31745  24822079.112    24822091.255
       210.000         144.000
  20533740.622   -26863604.64149 -20917289.62748  20533740.227    20533747.070
       247.000         219.000
  21577339.475   -19027389.51949 -14141045.45947  21577339.359    21577346.759
       239.000         202.000
  22404150.784   -18489458.42449 -14151643.18947  22404150.469    22404158.361
       231.000         190.000
  21029992.188   -23631708.73449 -18387363.65047  21029991.390    21029998.510
       241.000         208.000
  20794296.147   -20692228.50949 -16107746.57148  20794296.328    20794302.715
       245.000         214.000
 00  2  5  1 39  0.0000000  0  6G17G 5G24G 6G10G30
  24805121.778    -4490913.77449  -3480790.80845  24805120.752    24805133.328
       211.000         145.000
  20541867.036   -26820900.02949 -20884013.30548  20541866.582    20541873.390
       247.000         219.000
  21590040.877   -18960643.01549 -14089035.17447  21590040.696    21590048.007
       240.000         202.000
  22391852.672   -18554085.07249 -14202001.52347  22391852.143    22391859.967
       231.000         190.000
  21021991.348   -23673753.20849 -18420125.52247  21021990.349    21021997.818
       241.000         208.000
  20787310.325   -20728939.08349 -16136352.18548  20787310.594    20787316.827
       245.000         214.000
 00  2  5  1 39 30.0000000  0  6G17G 5G24G 6G10G30
  24788193.962    -4579869.09149  -3550106.40345  24788192.911    24788204.797
       211.000         146.000
  20550093.284   -26777670.69349 -20850328.10648  20550092.767    20550099.509
       247.000         219.000
  21602778.365   -18893707.01749 -14036877.23347  21602778.218    21602785.771
       240.000         201.000
  22379577.750   -18618589.88449 -14252264.91647  22379577.441    22379585.420
       231.000         190.000
  21014099.481   -23715225.01749 -18452441.16347  21014098.852    21014105.997
       241.000         208.000
  20780433.616   -20765076.27549 -16164511.00848  20780434.105    20780440.418
       245.000         214.000
 00  2  5  1 40  0.0000000  0  6G17G 5G24G 6G10G30
  24771293.353    -4668681.70749  -3619310.82745  24771292.501    24771304.832
       211.000         146.000
  20558414.650   -26733941.52049 -20816253.42348  20558414.286    20558420.943
       247.000         219.000
  21615548.736   -18826598.28749 -13984584.69947  21615548.537    21615555.786
       240.000         201.000
  22367323.108   -18682988.05749 -14302445.21547  22367322.705    22367330.915
       232.000         190.000
  21006317.304   -23756120.39249 -18484307.63447  21006316.330    21006323.468
       241.000         208.000
  20773660.398   -20800669.73749 -16192246.14248  20773660.594    20773666.978
       245.000         214.000
 00  2  5  1 40 30.0000000  0  6G17G 5G24G 6G10G30
  24754417.845    -4757362.03349  -3688412.16845  24754416.344    24754428.192
       214.000         147.000
  20566829.705   -26689720.17749 -20781795.23348  20566829.370    20566836.347
       247.000         219.000
  21628353.032   -18759311.10949 -13932153.10947  21628352.853    21628360.193
       239.000         201.000
  22355082.450   -18747312.67549 -14352568.20447  22355082.329    22355090.045
       232.000         190.000
  20998642.568   -23796451.16749 -18515734.15847  20998641.613    20998648.874
       241.000         208.000
  20766986.525   -20835741.23649 -16219574.55748  20766986.794    20766993.243
       245.000         214.000
 00  2  5  1 41  0.0000000  0  6G17G 5G24G 6G10G30
  24737564.548    -4845925.84049  -3757422.71145  24737563.091    24737575.592
       213.000         147.000
  20575337.327   -26645012.33649 -20746957.95048  20575336.911    20575343.681
       247.000         219.000
  21641188.284   -18691861.31149 -13879594.80547  21641188.017    21641195.512
       239.000         201.000
  22342850.722   -18811590.50349 -14402654.73347  22342850.586    22342858.025
       232.000         190.000
  20991072.839   -23836229.99649 -18546730.58647  20991071.973    20991079.199
       241.000         209.000
  20760409.121   -20870305.53049 -16246507.74448  20760409.408    20760415.639
       246.000         214.000
 00  2  5  1 41 30.0000000  0  6G17G 5G24G 6G10G30
  24720736.452    -4934357.08549  -3826329.95345  24720735.381    24720746.961
       213.000         146.000
  20583939.429   -26599808.09549 -20711733.86348  20583939.036    20583945.799
       247.000         219.000
  21654052.740   -18624258.24249 -13826917.06647  21654052.591    21654060.025
       239.000         201.000
  22330626.131   -18875830.84349 -14452712.05047  22330625.949    22330632.929
       232.000         191.000
  20983609.316   -23875450.78849 -18577292.18147  20983608.490    20983615.596
       241.000         209.000
  20753930.414   -20904351.24549 -16273036.84348  20753930.593    20753936.889
       245.000         214.000
 00  2  5  1 42  0.0000000  0  6G17G 5G24G 6G10G30
  24703935.380    -5022646.46149  -3895126.65145  24703933.932    24703945.987
       212.000         146.000
  20592638.432   -26554094.66249 -20676113.00548  20592638.053    20592644.892
       247.000         218.000
  21666948.149   -18556492.40049 -13774112.49747  21666948.134    21666955.339
       239.000         201.000
  22318407.853   -18940037.92049 -14502743.45247  22318407.278    22318415.340
       233.000         191.000
  20976253.551   -23914105.22249 -18607412.45947  20976252.692    20976259.924
       241.000         209.000
  20747553.451   -20937862.34749 -16299149.36048  20747553.797    20747560.014
       246.000         215.000
 00  2  5  1 42 30.0000000  0  6G17G 5G24G 6G10G30
  24687163.631    -5110781.63149  -3963803.19845  24687161.923    24687174.590
       213.000         146.000
  20601435.359   -26507866.43949 -20640091.01348  20601434.773    20601441.719
       247.000         218.000
  21679875.800   -18488557.08449 -13721175.87047  21679875.784    21679883.129
       239.000         200.000
  22306197.645   -19004202.65049 -14552741.85247  22306197.181    22306205.436
       232.000         191.000
  20969006.454   -23952188.84349 -18637087.94747  20969005.540    20969012.915
       241.000         209.000
  20741281.210   -20970823.15849 -16324833.07648  20741281.570    20741287.898
       246.000         215.000
 00  2  5  1 43  0.0000000  0  6G17G 5G24G 6G10G30
  24670421.394    -5198761.58149  -4032358.79245  24670420.613    24670432.518
       214.000         147.000
  20610331.882   -26461114.81749 -20603661.17748  20610331.384    20610338.298
       247.000         218.000
  21692834.110   -18420460.70949 -13668113.74547  21692833.954    21692841.230
       239.000         200.000
  22293998.220   -19068310.73349 -14602696.11847  22293998.026    22294005.404
       232.000         191.000
  20961870.756   -23989686.88249 -18666307.13947  20961870.089    20961877.045
       241.000         209.000
  20735113.298   -21003235.52349 -16350089.43348  20735113.460    20735119.573
       245.000         215.000
 00  2  5  1 43 30.0000000  0  6G17G 5G24G 6G10G30
  24653709.318    -5286583.19049  -4100791.01745  24653708.443    24653720.311
       215.000         148.000
  20619325.952   -26413850.66449 -20566831.97048  20619325.578    20619332.403
       246.000         218.000
  21705823.927   -18352198.62749 -13614922.49547  21705823.961    21705831.036
       239.000         200.000
  22281812.206   -19132348.29349 -14652595.43747  22281811.883    22281819.453
       232.000         192.000
  20954844.746   -24026608.57249 -18695077.22447  20954843.913    20954851.048
       241.000         209.000
  20729050.304   -21035096.48749 -16374916.12348  20729050.547    20729056.636
       245.000         215.000
 00  2  5  1 44  0.0000000  0  6G17G 5G24G 6G10G30
  24637028.172    -5374242.64749  -4169096.88945  24637026.461    24637038.311
       213.000         149.000
  20628415.186   -26366086.48649 -20529613.13048  20628414.686    20628421.596
       246.000         218.000
  21718842.871   -18283783.56549 -13561612.04247  21718842.778    21718849.761
       239.000         200.000
  22269639.703   -19196314.80749 -14702439.39847  22269639.110    22269646.851
       233.000         192.000
  20947928.088   -24062955.69149 -18723399.59147  20947927.132    20947934.376
       241.000         209.000
  20723092.912   -21066402.69249 -16399310.53448  20723093.311    20723099.400
       246.000         215.000
 00  2  5  1 44 30.0000000  0  6G17G 5G24G 6G10G30
  24620378.456    -5461736.74949  -4237273.92145  24620377.218    24620388.661
       215.000         150.000
  20637597.739   -26317831.67949 -20492011.98548  20637597.299    20637604.215
       246.000         218.000
  21731887.271   -18215234.70149 -13508197.32647  21731887.228    21731894.243
       238.000         200.000
  22257480.575   -19260211.09749 -14752228.64347  22257480.457    22257487.898
       233.000         192.000
  20941121.830   -24098722.46749 -18751269.74747  20941121.004    20941128.263
       241.000         209.000
  20717240.542   -21097156.93949 -16423274.84748  20717240.643    20717246.921
       246.000         215.000
 00  2  5  1 45  0.0000000  0  6G17G 5G24G 6G10G30
  24603759.944    -5549066.73149  -4305323.05645  24603758.672    24603770.602
       214.000         151.000
  20646874.467   -26269082.10549 -20454025.30648  20646874.077    20646880.929
       247.000         217.000
  21744955.320   -18146561.45249 -13454685.68647  21744955.241    21744962.707
       238.000         199.000
  22245335.932   -19324031.32349 -14801958.61647  22245335.804    22245342.979
       233.000         192.000
  20934424.775   -24133915.63049 -18778692.93247  20934423.970    20934431.175
       241.000         210.000
  20711492.360   -21127363.74949 -16446812.58548  20711492.692    20711498.819
       246.000         215.000
 00  2  5  1 45 30.0000000  0  6G17G 5G24G 6G10G30
  24587174.908    -5636220.99549  -4373235.27845  24587174.273    24587184.941
       215.000         151.000
  20656244.948   -26219839.90049 -20415654.75748  20656244.450    20656251.485
       246.000         217.000
  21758047.091   -18077763.64049 -13401076.98247  21758047.087    21758054.176
       238.000         199.000
  22233205.377   -19387777.63149 -14851630.99747  22233205.002    22233213.054
       233.000         192.000
  20927836.487   -24168537.10649 -18805670.65047  20927835.611    20927842.651
       241.000         210.000
  20705852.854   -21156999.43249 -16469905.28748  20705852.876    20705859.234
       246.000         215.000
 00  2  5  1 46  0.0000000  0  6G17G 5G24G 6G10G30
  24570622.135    -5723205.59849  -4441015.28445  24570620.573    24570633.520
       212.000         151.000
  20665710.501   -26170098.12349 -20376894.93048  20665710.007    20665716.956
       246.000         217.000
  21771162.111   -18008843.58449 -13347373.02347  21771162.048    21771169.181
       238.000         199.000
  22221090.727   -19451440.29549 -14901238.19047  22221090.479    22221098.296
       233.000         193.000
  20921361.990   -24202560.73549 -18832182.51247  20921361.293    20921368.248
       242.000         210.000
  20700322.210   -21186062.99849 -16492552.18048  20700322.365    20700328.592
       246.000         215.000
 00  2  5  1 46 30.0000000  0  6G17G 5G24G 6G10G30
  24554099.707    -5810030.45149  -4508670.80645  24554098.801    24554109.547
       211.000         150.000
  20675273.773   -26119842.64849 -20337734.82548  20675273.296    20675280.390
       246.000         217.000
  21784303.764   -17939783.61749 -13293560.04747  21784303.780    21784311.239
       238.000         199.000
  22208993.824   -19515009.70149 -14950772.72547  22208993.254    22209000.800
       233.000         193.000
  20915001.343   -24235985.87649 -18858228.02847  20915000.506    20915007.584
       242.000         210.000
  20694900.253   -21214555.51149 -16514754.10348  20694900.588    20694906.708
       246.000         215.000
 00  2  5  1 47  0.0000000  0  6G17G 5G24G 6G10G30
  24537607.327    -5896697.74949  -4576203.54545  24537606.588    24537616.293
       214.000         150.000
  20684935.888   -26069067.99649 -20298170.16048  20684935.457    20684942.328
       246.000         217.000
  21797475.399   -17870566.04649 -13239624.25747  21797475.342    21797482.494
       238.000         198.000
  22196914.416   -19578487.01649 -15000235.49947  22196914.136    22196921.818
       233.000         193.000
  20908755.867   -24268805.88349 -18883802.00447  20908755.140    20908762.114
       242.000         210.000
  20689588.911   -21242466.74349 -16536503.07448  20689589.106    20689595.380
       246.000         215.000
 00  2  5  1 47 30.0000000  0  6G17G 5G24G 6G10G30
  24521145.596    -5983203.83749  -4643610.66945  24521144.415    24521156.104
       212.000         150.000
  20694695.366   -26017781.54449 -20258206.69348  20694694.931    20694701.958
       246.000         217.000
  21810679.175   -17801179.68549 -13185556.94747  21810678.741    21810686.351
       237.000         198.000
  22184851.854   -19641876.12849 -15049629.54847  22184851.837    22184859.184
       233.000         193.000
  20902628.113   -24301007.21249 -18908893.89847  20902627.172    20902634.496
       242.000         210.000
  20684387.831   -21269798.44949 -16557800.46948  20684388.006    20684394.114
       246.000         215.000
 00  2  5  1 48  0.0000000  0  6G17G 5G24G 6G10G30
  24504711.916    -6069562.74749  -4710903.10645  24504711.171    24504722.459
       212.000         151.000
  20704549.855   -25965995.83149 -20217854.18948  20704549.169    20704556.049
       246.000         217.000
  21823914.290   -17731628.57149 -13131361.25647  21823914.129    21823921.232
       238.000         198.000
  22172804.577   -19705184.69449 -15098960.83147  22172804.017    22172811.668
       233.000         194.000
  20896616.976   -24332595.76549 -18933508.29947  20896616.124    20896623.058
       242.000         210.000
  20679290.798   -21296583.35849 -16578671.78548  20679291.115    20679297.195
       246.000         215.000
 00  2  5  1 48 30.0000000  0  6G17G 5G24G 6G10G30
  24488307.059    -6155769.89149  -4778077.28345  24488306.258    24488317.625
       212.000         151.000
  20714497.707   -25913719.41749 -20177119.32248  20714497.242    20714504.191
       245.000         216.000
  21837179.028   -17661921.94749 -13077044.38347  21837178.926    21837186.307
       238.000         198.000
  22160766.437   -19768445.16649 -15148254.64747  22160766.091    22160773.656
       234.000         194.000
  20890718.227   -24363593.75649 -18957662.52047  20890717.347    20890724.539
       242.000         210.000
  20674295.777   -21322832.31149 -16599125.48048  20674295.943    20674301.949
       246.000         216.000
 00  2  5  1 49  0.0000000  0  6G17G 5G24G 6G10G30
  24471931.437    -6241823.63149  -4845131.91545  24471929.616    24471941.557
       211.000         151.000
  20724535.357   -25860971.19349 -20136016.81248  20724534.833    20724541.900
       245.000         216.000
  21850468.591   -17592084.87849 -13022625.86647  21850468.575    21850475.749
       237.000         198.000
  22148735.983   -19831665.27849 -15197517.00247  22148735.989    22148743.094
       234.000         194.000
  20884929.283   -24394014.57749 -18981367.00447  20884928.355    20884935.462
       242.000         210.000
  20669399.889   -21348560.20849 -16619173.15548  20669400.062    20669406.225
       246.000         216.000
 00  2  5  1 49 30.0000000  0  6G17G 5G24G 6G10G30
  24455584.624    -6327725.89749  -4912068.52545  24455583.852    24455594.759
       212.000         150.000
  20734660.822   -25807761.48749 -20094554.70748  20734660.323    20734667.380
       245.000         216.000
  21863778.385   -17522141.33849 -12968124.38747  21863778.401    21863785.708
       237.000         197.000
  22136714.286   -19894839.35949 -15246743.49847  22136714.072    22136721.684
       234.000         194.000
  20879245.592   -24423882.34149 -19004640.53447  20879244.800    20879251.823
       242.000         210.000
  20664601.071   -21373777.99449 -16638823.34448  20664601.314    20664607.319
       246.000         216.000
 00  2  5  1 50  0.0000000  0  6G17G 5G24G 6G10G30
  24439266.116    -6413479.00849  -4978888.91345  24439265.998    24439275.683
       211.000         150.000
  20744875.725   -25754081.77649 -20052726.36448  20744875.392    20744882.192
       245.000         216.000
  21877105.604   -17452106.25549 -12913551.57447  21877105.345    21877112.325
       237.000         197.000
  22124700.851   -19957970.20849 -15295936.30647  22124700.549    22124708.052
       234.000         195.000
  20873666.091   -24453202.58749 -19027487.43147  20873665.332    20873672.229
       242.000         210.000
  20659903.000   -21398466.39049 -16658061.02348  20659903.387    20659909.363
       246.000         216.000
 00  2  5  1 50 30.0000000  0  6G17G 5G24G 6G10G30
  24422979.166    -6499066.66849  -5045580.37545  24422978.634    24422989.388
       211.000         150.000
  20755180.209   -25699931.34849 -20010531.22748  20755179.768    20755186.822
       245.000         216.000
  21890452.858   -17381965.86549 -12858896.70747  21890452.675    21890459.992
       237.000         197.000
  22112699.020   -20021039.83149 -15345081.39947  22112698.717    22112706.235
       233.000         195.000
  20868192.954   -24481963.88449 -19049898.77947  20868192.051    20868198.936
       242.000         211.000
  20655311.279   -21422595.81749 -16676863.14248  20655311.585    20655317.529
       246.000         216.000
 00  2  5  1 51  0.0000000  0  6G17G 5G24G 6G10G30
  24406723.841    -6584488.08049  -5112142.30745  24406722.268    24406733.212
       211.000         151.000
  20765575.144   -25645305.49149 -19967965.62848  20765574.652    20765581.734
       245.000         215.000
  21903821.280   -17311714.30849 -12804155.21547  21903820.900    21903828.246
       237.000         196.000
  22100711.046   -20084036.90249 -15394169.95747  22100711.036    22100718.400
       234.000         195.000
  20862829.328   -24510149.66649 -19071861.67247  20862828.674    20862835.451
       242.000         211.000
  20650829.805   -21446145.88049 -16695213.81048  20650830.048    20650836.071
       246.000         216.000
 00  2  5  1 51 30.0000000  0  6G17G 5G24G 6G10G30
  24390501.895    -6669733.87549  -5178567.39445  24390500.798    24390511.667
       212.000         153.000
  20776063.052   -25590191.19249 -19925019.42248  20776062.471    20776069.649
       245.000         215.000
  21917214.879   -17241330.43049 -12749310.62047  21917214.878    21917222.033
       237.000         196.000
  22088736.242   -20146964.68049 -15443204.52247  22088735.856    22088743.517
       234.000         195.000
  20857579.956   -24537735.15049 -19093356.80747  20857579.128    20857586.076
       242.000         211.000
  20646461.718   -21469100.21249 -16713100.27648  20646461.922    20646468.052
       246.000         216.000
 00  2  5  1 52  0.0000000  0  6G17G 5G24G 6G10G30
  24374314.215    -6754800.02449  -5244852.49745  24374313.054    24374324.135
       211.000         154.000
  20786644.472   -25534585.51049 -19881690.32248  20786644.036    20786651.011
       245.000         215.000
  21930636.315   -17170800.16549 -12694351.95147  21930636.406    21930643.505
       237.000         196.000
  22076773.108   -20209831.26749 -15492191.40647  22076773.148    22076780.200
       234.000         196.000
  20852447.202   -24564707.74949 -19114374.36547  20852446.412    20852453.361
       242.000         211.000
  20642208.361   -21491451.61449 -16730516.92348  20642208.586    20642214.705
       246.000         216.000
 00  2  5  1 52 30.0000000  0  6G17G 5G24G 6G10G30
  24358160.247    -6839688.78849  -5310999.38945  24358158.858    24358170.615
       211.000         154.000
  20797317.228   -25478499.72949 -19837987.11648  20797316.857    20797323.845
       245.000         215.000
  21944087.078   -17100115.90249 -12639273.28647  21944087.255    21944094.220
       236.000         196.000
  22064821.569   -20272636.59149 -15541130.54547  22064821.472    22064828.690
       234.000         196.000
  20847431.447   -24591065.47949 -19134912.80347  20847430.764    20847437.626
       242.000         211.000
  20638067.659   -21513210.89449 -16747472.17748  20638067.913    20638073.911
       246.000         216.000
 00  2  5  1 53  0.0000000  0  6G17G 5G24G 6G10G30
  24342038.591    -6924407.96349  -5377014.13745  24342038.148    24342048.641
       211.000         154.000
  20808083.510   -25421922.68049 -19793901.10548  20808083.124    20808090.089
       245.000         215.000
  21957562.462   -17029302.31449 -12584093.85647  21957562.806    21957569.523
       236.000         195.000
  22052883.175   -20335373.07749 -15590016.04547  22052882.657    22052889.998
       235.000         196.000
  20842532.844   -24616807.50849 -19154971.47147  20842532.035    20842539.040
       242.000         211.000
  20634039.410   -21534379.44249 -16763967.12448  20634039.692    20634045.675
       246.000         216.000
 00  2  5  1 53 30.0000000  0  6G17G 5G24G 6G10G30
  24325950.637    -7008949.78549  -5442890.69545  24325949.935    24325959.447
       211.000         155.000
  20818942.205   -25364859.81149 -19749436.53048  20818941.667    20818948.631
       245.000         215.000
  21971062.251   -16958360.32349 -12528814.36547  21971061.980    21971069.135
       237.000         195.000
  22040962.763   -20398014.95949 -15638827.82647  22040962.579    22040969.732
       236.000         196.000
  20837750.783   -24641937.23249 -19174553.01947  20837749.986    20837756.781
       242.000         211.000
  20630123.314   -21554958.57649 -16780002.78548  20630123.623    20630129.645
       246.000         216.000
 00  2  5  1 54  0.0000000  0  6G17G 5G24G 6G10G30
  24309896.262    -7093315.38449  -5508629.95445  24309895.270    24309906.146
       211.000         155.000
  20829890.591   -25307325.66949 -19704604.73648  20829890.117    20829897.164
       245.000         215.000
  21984584.036   -16887302.66049 -12473444.74647  21984583.729    21984590.967
       236.000         195.000
  22029064.751   -20460539.20649 -15687547.94747  22029064.446    22029071.596
       237.000         197.000
  20833085.388   -24666453.75949 -19193656.75647  20833084.436    20833091.416
       242.000         211.000
  20626323.032   -21574929.12649 -16795564.22748  20626323.274    20626329.350
       246.000         216.000
 00  2  5  1 54 30.0000000  0  6G17G 5G24G 6G10G30
  24293877.812    -7177492.12649  -5574222.04245  24293876.189    24293888.123
       213.000         154.000
  20840929.418   -25249316.23249 -19659402.57848  20840929.075    20840936.046
       245.000         214.000
  21998126.828   -16816134.63849 -12417989.12947  21998126.764    21998134.017
       237.000         195.000
  22017193.531   -20522922.57749 -15736158.29247  22017193.474    22017200.569
       236.000         197.000
  20828540.404   -24690337.70549 -19212267.57247  20828539.582    20828546.573
       242.000         211.000
  20622638.444   -21594291.53049 -16810651.78648  20622638.524    20622644.672
       246.000         216.000
 00  2  5  1 55  0.0000000  0  6G17G 5G24G 6G10G30
  24277896.904    -7261471.55049  -5639660.38145  24277895.633    24277905.969
       212.000         154.000
  20852061.056   -25190819.10449 -19613820.40448  20852060.489    20852067.512
       244.000         214.000
  22011688.931   -16744865.25549 -12362454.52847  22011688.895    22011696.117
       236.000         195.000
  22005350.989   -20585155.41349 -15784651.33647  22005350.893    22005358.270
       236.000         197.000
  20824113.975   -24713598.60149 -19230392.89547  20824113.116    20824120.112
       242.000         211.000
  20619068.271   -21613052.83349 -16825270.95848  20619068.566    20619074.710
       246.000         216.000
 00  2  5  1 55 30.0000000  0  6G17G 5G24G 6G10G30
  24261953.100    -7345255.97049  -5704946.77945  24261952.280    24261962.890
       213.000         154.000
  20863282.933   -25131847.65649 -19567868.63048  20863282.320    20863289.396
       245.000         214.000
  22025272.201   -16673484.69449 -12306833.30347  22025271.952    22025279.107
       235.000         194.000
  21993532.049   -20647264.05649 -15833047.60747  21993531.815    21993538.974
       237.000         197.000
  20819805.112   -24736241.65949 -19248036.78347  20819804.199    20819811.177
       242.000         211.000
  20615610.399   -21631224.14749 -16839430.39748  20615610.610    20615616.575
       246.000         216.000
 00  2  5  1 56  0.0000000  0  6G17G 5G24G 6G10G30
  24246045.403    -7428850.70049  -5770085.35845  24246044.633    24246055.094
       214.000         155.000
  20874596.883   -25072392.43849 -19521539.89148  20874596.548    20874603.569
       245.000         214.000
  22038874.183   -16602005.82149 -12251135.47047  22038873.985    22038881.095
       236.000         194.000
  21981731.948   -20709273.63049 -15881366.68347  21981731.804    21981738.852
       236.000         198.000
  20815612.824   -24758272.08149 -19265203.29247  20815611.962    20815618.816
       243.000         211.000
  20612260.828   -21648826.10449 -16853146.18048  20612260.939    20612267.187
       246.000         216.000
 00  2  5  1 56 30.0000000  0  6G17G 5G24G 6G10G30
  24230170.000    -7512275.82349  -5835091.78245  24230168.613    24230179.363
       215.000         156.000
  20886004.010   -25012447.61749 -19474829.64348  20886003.591    20886010.594
       245.000         214.000
  22052493.349   -16530436.65849 -12195367.27847  22052492.897    22052500.740
       235.000         194.000
  21969946.050   -20771208.65649 -15929627.66547  21969945.973    21969953.008
       237.000         198.000
  20811533.879   -24779706.91749 -19281905.71347  20811533.105    20811539.985
       242.000         212.000
  20609012.485   -21665896.20549 -16866447.52848  20609012.777    20609018.782
       246.000         216.000
 00  2  5  1 57  0.0000000  0  6G17G 5G24G 6G10G30
  24214323.544    -7595548.97949  -5899979.80045  24214322.244    24214332.622
       215.000         156.000
  20897502.619   -24952022.07449 -19427744.80348  20897502.100    20897509.304
       244.000         214.000
  22066128.930   -16458781.05649 -12139531.73147  22066128.477    22066135.884
       236.000         193.000
  21958170.283   -20833090.32249 -15977847.06947  21958170.095    21958177.250
       237.000         198.000
  20807565.433   -24800560.98749 -19298155.58847  20807564.423    20807571.423
       242.000         212.000
  20605866.983   -21682425.81549 -16879327.71648  20605867.175    20605873.311
       246.000         216.000
 00  2  5  1 57 30.0000000  0  6G17G 5G24G 6G10G30
  24198507.096    -7678664.30449  -5964744.83445  24198506.093    24198516.476
       215.000         157.000
  20909091.310   -24891123.10349 -19380291.05948  20909090.908    20909097.811
       245.000         214.000
  22079781.419   -16387036.47549 -12083626.85347  22079781.116    22079788.580
       235.000         193.000
  21946405.040   -20894916.99949 -16026023.62947  21946404.650    21946411.676
       237.000         198.000
  20803710.046   -24820820.89849 -19313942.47947  20803709.152    20803715.787
       242.000         212.000
  20602829.208   -21698389.19749 -16891766.68748  20602829.528    20602835.377
       246.000         216.000
 00  2  5  1 58  0.0000000  0  6G17G 5G24G 6G10G30
  24182722.658    -7761611.23449  -6029378.65345  24182722.080    24182732.038
       214.000         156.000
  20920771.143   -24829745.08349 -19332464.03448  20920770.792    20920777.746
       244.000         214.000
  22093450.903   -16315202.88249 -12027652.61547  22093450.782    22093458.349
       234.000         193.000
  21934657.616   -20956649.70149 -16074126.96847  21934657.493    21934664.389
       237.000         198.000
  20799968.212   -24840484.07149 -19329264.38147  20799967.412    20799974.337
       242.000         212.000
  20599902.342   -21713769.95349 -16903751.66148  20599902.624    20599908.586
       246.000         216.000
 00  2  5  1 58 30.0000000  0  6G17G 5G24G 6G10G30
  24166971.623    -7844382.85649  -6093875.86445  24166970.504    24166981.197
       214.000         156.000
  20932540.120   -24767898.81049 -19284272.13248  20932539.624    20932546.535
       244.000         213.000
  22107140.135   -16243265.47649 -11971597.48347  22107140.385    22107147.238
       234.000         193.000
  21922931.815   -21018268.83049 -16122141.79747  21922931.740    21922938.414
       237.000         199.000
  20796343.728   -24859530.92749 -19344106.03747  20796342.891    20796349.607
       243.000         212.000
  20597093.823   -21728528.69749 -16915251.94948  20597094.138    20597099.937
       246.000         216.000
 00  2  5  1 59  0.0000000  0  6G17G 5G24G 6G10G30
  24151261.275    -7926940.60849  -6158206.43345  24151260.780    24151271.519
       214.000         157.000
  20944398.348   -24705583.25049 -19235714.55848  20944397.795    20944405.058
       244.000         213.000
  22120851.691   -16171210.66049 -11915450.86447  22120852.023    22120859.143
       234.000         192.000
  21911229.888   -21079762.51149 -16170058.88847  21911229.641    21911236.732
       237.000         199.000
  20792839.946   -24877943.11049 -19358453.14647  20792839.217    20792845.976
       242.000         212.000
  20594407.557   -21742644.90549 -16926251.56348  20594407.758    20594413.779
       248.000         216.000
 00  2  5  1 59 30.0000000  0  6G17G 5G24G 6G10G30
  24135591.617    -8009284.77349  -6222370.57245  24135590.778    24135601.390
       214.000         157.000
  20956344.280   -24642807.02749 -19186798.02448  20956343.685    20956350.763
       244.000         213.000
  22134585.132   -16099041.09549 -11859214.82747  22134584.886    22134591.840
       234.000         192.000
  21899552.316   -21141128.28249 -16217876.29847  21899552.006    21899559.156
       237.000         199.000
  20789457.778   -24895716.17449 -19372302.24347  20789456.868    20789463.790
       243.000         212.000
  20591840.239   -21756136.16849 -16936764.20748  20591840.396    20591846.323
       248.000         216.000
 00  2  5  2  0  0.0000000  0  6G17G 5G24G 6G10G30
  24119958.500    -8091436.74649  -6286384.96445  24119957.981    24119966.939
       215.000         157.000
  20968376.289   -24579578.53249 -19137529.07148  20968375.885    20968382.907
       244.000         213.000
  22148339.711   -16026760.09749 -11802891.96647  22148339.424    22148346.922
       234.000         192.000
  21887894.677   -21202389.39349 -16265612.16047  21887894.606    21887901.539
       238.000         200.000
  20786198.044   -24912846.05449 -19385650.15947  20786197.225    20786203.932
       242.000         212.000
  20589385.336   -21769036.54549 -16946816.41748  20589385.635    20589391.558
       248.000         216.000
 00  2  5  2  0 30.0000000  0  6G17G 5G24G 6G10G30
  24104359.450    -8173409.65949  -6350259.83645  24104358.490    24104368.724
       215.000         157.000
  20980493.290   -24515903.21049 -19087911.93948  20980492.927    20980499.853
       244.000         213.000
  22162114.490   -15954373.23849 -11746486.61147  22162114.527    22162121.343
       233.000         192.000
  21876248.983   -21263587.70649 -16313299.08647  21876248.928    21876255.989
       237.000         200.000
  20783060.849   -24929331.83649 -19398496.17947  20783060.107    20783066.699
       242.000         212.000
  20587040.089   -21781360.90149 -16956419.78148  20587040.389    20587046.314
       248.000         216.000
 00  2  5  2  1  0.0000000  0  6G17G 5G24G 6G10G30
  24088792.245    -8255215.41849  -6414004.45345  24088791.317    24088800.825
       215.000         157.000
  20992693.587   -24451790.17949 -19037953.73347  20992693.311    20992700.174
       244.000         212.000
  22175907.460   -15881890.57949 -11690006.61247  22175907.439    22175914.439
       233.000         191.000
  21864613.394   -21324732.97149 -16360944.68247  21864613.233    21864620.062
       237.000         200.000
  20780040.962   -24945201.19049 -19410861.86547  20780040.267    20780046.877
       243.000         212.000
  20584798.208   -21793141.99249 -16965599.82448  20584798.600    20584804.423
       248.000         216.000
 00  2  5  2  1 30.0000000  0  6G17G 5G24G 6G10G30
  24073250.448    -8336887.54849  -6477644.95545  24073248.907    24073259.148
       216.000         158.000
  21004975.454   -24387248.67549 -18987661.65247  21004975.058    21004982.118
       243.000         212.000
  22189717.706   -15809317.17249 -11633455.90047  22189717.378    22189724.541
       233.000         191.000
  21852988.478   -21385821.92249 -16408546.39647  21852988.061    21852995.241
       238.000         200.000
  20777134.835   -24960472.99249 -19422761.92447  20777133.989    20777140.797
       243.000         212.000
  20582659.972   -21804378.27149 -16974355.33648  20582660.001    20582665.989
       248.000         216.000
 00  2  5  2  2  0.0000000  0  6G17G 5G24G 6G10G30
  24057735.519    -8418418.55049  -6541175.50445  24057734.887    24057745.366
       216.000         158.000
  21017339.017   -24322277.64049 -18937034.87247  21017338.559    21017345.602
       243.000         212.000
  22203545.623   -15736650.93349 -11576832.84747  22203545.785    22203552.573
       233.000         190.000
  21841376.183   -21446844.60249 -16456096.46647  21841375.870    21841382.722
       238.000         200.000
  20774342.202   -24975148.08949 -19434197.02147  20774341.273    20774348.170
       242.000         212.000
  20580630.128   -21815044.85649 -16982666.93248  20580630.316    20580636.263
       248.000         216.000
 00  2  5  2  2 30.0000000  0  6G17G 5G24G 6G10G30
  24042251.698    -8499786.17949  -6604578.74545  24042251.056    24042261.031
       215.000         159.000
  21029785.423   -24256871.29049 -18886068.88647  21029785.013    21029792.087
       243.000         212.000
  22217393.468   -15663880.04249 -11520128.25347  22217393.109    22217400.575
       233.000         190.000
  21829782.741   -21507768.33949 -16503569.43947  21829782.536    21829789.207
       237.000         200.000
  20771660.362   -24989240.95749 -19445178.43347  20771659.689    20771666.206
       243.000         212.000
  20578712.726   -21825120.75749 -16990518.25648  20578712.963    20578719.098
       248.000         216.000
 00  2  5  2  3  0.0000000  0  6G17G 5G24G 6G10G30
  24026798.900    -8580990.69249  -6667854.88245  24026797.414    24026808.162
       216.000         159.000
  21042312.596   -24191040.61149 -18834772.25647  21042312.110    21042318.962
       243.000         212.000
  22231261.426   -15591003.36449 -11463341.21947  22231261.658    22231268.719
       233.000         190.000
  21818210.018   -21568582.93649 -16550957.36647  21818209.798    21818216.636
       237.000         201.000
  20769087.061   -25002763.63849 -19455715.54647  20769086.331    20769092.957
       243.000         212.000
  20576905.683   -21834616.82749 -16997917.76648  20576905.874    20576911.829
       248.000         216.000
 00  2  5  2  3 30.0000000  0  6G17G 5G24G 6G10G30
  24011376.446    -8662035.84149  -6731006.85845  24011376.000    24011385.061
       215.000         158.000
  21054920.631   -24124784.86749 -18783144.40547  21054920.212    21054927.034
       243.000         211.000
  22245146.167   -15518038.33349 -11406485.34447  22245146.276    22245152.867
       233.000         189.000
  21806657.340   -21629292.29349 -16598263.28747  21806656.936    21806664.041
       238.000         201.000
  20766625.500   -25015699.25249 -19465795.20547  20766624.645    20766631.229
       243.000         212.000
  20575210.483   -21843525.07549 -17004859.23148  20575210.878    20575216.690
       247.000         216.000
 00  2  5  2  4  0.0000000  0  6G17G 5G24G 6G10G30
  23995986.924    -8742907.78749  -6794023.86345  23995985.465    23995995.691
       216.000         158.000
  21067611.622   -24058093.33849 -18731176.98447  21067611.176    21067617.913
       243.000         211.000
  22259047.746   -15444985.13249 -11349560.76847  22259047.592    22259054.668
       232.000         189.000
  21795125.439   -21689892.42049 -16645484.10147  21795125.299    21795132.208
       237.000         201.000
  20764277.921   -25028035.77049 -19475408.04147  20764277.120    20764283.798
       243.000         212.000
  20573627.829   -21851841.87849 -17011339.83148  20573627.974    20573634.133
       248.000         216.000
 00  2  5  2  4 30.0000000  0  6G17G 5G24G 6G10G30
  23980630.174    -8823607.66549  -6856906.78445  23980629.346    23980639.773
       216.000         158.000
  21080385.539   -23990965.97849 -18678869.95047  21080384.973    21080391.943
       243.000         211.000
  22272966.151   -15371843.33849 -11292567.15247  22272965.697    22272973.510
       232.000         189.000
  21783613.238   -21750389.15949 -16692624.34347  21783613.088    21783619.886
       238.000         201.000
  20762042.852   -25039780.87349 -19484560.02947  20762042.017    20762048.519
       243.000         212.000
  20572153.818   -21859587.70349 -17017375.51848  20572154.164    20572159.921
       247.000         216.000
 00  2  5  2  5  0.0000000  0  6G17G 5G24G 6G10G30
  23965303.529    -8904149.26349  -6919666.35645  23965302.906    23965312.793
       216.000         158.000
  21093240.299   -23923413.66149 -18626231.78347  21093239.954    21093246.792
       243.000         211.000
  22286896.755   -15298637.50649 -11235523.63647  22286896.932    22286904.181
       232.000         189.000
  21772118.522   -21810794.10749 -16739693.06747  21772118.416    21772125.277
       238.000         201.000
  20759923.738   -25050916.59949 -19493237.17747  20759922.964    20759929.517
       243.000         212.000
  20570789.408   -21866757.54349 -17022962.38148  20570789.659    20570795.693
       248.000         216.000
 00  2  5  2  5 30.0000000  0  6G17G 5G24G 6G10G30
  23950010.881    -8984512.31949  -6982286.81945  23950009.923    23950021.011
       218.000         159.000
  21106180.409   -23855412.82749 -18573244.12347  21106179.926    21106187.036
       243.000         210.000
  22300839.870   -15225365.81549 -11178428.80747  22300839.530    22300846.474
       232.000         188.000
  21760646.078   -21871082.06749 -16786670.63447  21760645.808    21760652.508
       238.000         202.000
  20757924.772   -25061421.13149 -19501422.48947  20757923.918    20757930.470
       243.000         212.000
  20569541.469   -21873315.39949 -17028072.38348  20569541.743    20569547.658
       248.000         216.000
 00  2  5  2  6  0.0000000  0  6G17G 5G24G 6G10G30
  23934756.035    -9064676.66849  -7044752.42545  23934755.434    23934764.760
       217.000         160.000
  21119207.489   -23786955.06249 -18519900.41147  21119206.957    21119213.821
       242.000         210.000
  22314799.051   -15152009.80849 -11121268.26747  22314798.556    22314806.382
       232.000         188.000
  21749197.682   -21931243.36149 -16833549.49647  21749197.514    21749204.293
       238.000         202.000
  20756046.593   -25071290.84749 -19509113.13647  20756045.749    20756052.440
       243.000         212.000
  20568410.156   -21879260.39949 -17032704.82848  20568410.386    20568416.352
       248.000         216.000
 00  2  5  2  6 30.0000000  0  6G17G 5G24G 6G10G30
  23919540.834    -9144632.51849  -7107055.55545  23919540.187    23919549.869
       217.000         160.000
  21132318.412   -23718056.52849 -18466213.23947  21132318.051    21132325.130
       242.000         210.000
  22328770.281   -15078590.39449 -11064058.32047  22328769.904    22328777.355
       231.000         188.000
  21737772.872   -21991281.00649 -16880332.01547  21737772.573    21737779.645
       238.000         202.000
  20754291.250   -25080514.99049 -19516300.73948  20754290.464    20754296.841
       243.000         213.000
  20567394.364   -21884598.28849 -17036864.20348  20567394.599    20567400.484
       248.000         216.000
 00  2  5  2  7  0.0000000  0  6G17G 5G24G 6G10G30
  23904365.606    -9224378.47849  -7169195.13945  23904364.723    23904375.112
       218.000         161.000
  21145514.844   -23648708.90449 -18412176.12847  21145514.375    21145521.306
       242.000         209.000
  22342753.228   -15005109.51649 -11006800.48647  22342753.214    22342760.126
       232.000         188.000
  21726372.096   -22051192.18749 -16927015.98847  21726371.856    21726378.641
       239.000         202.000
  20752660.676   -25089083.56749 -19522977.51248  20752659.952    20752666.480
       243.000         213.000
  20566496.960   -21889314.17349 -17040538.90048  20566497.230    20566503.071
       247.000         217.000
 00  2  5  2  7 30.0000000  0  6G17G 5G24G 6G10G30
  23889233.209    -9303899.13149  -7231159.15245  23889232.848    23889242.063
       218.000         162.000
  21158796.797   -23578911.75649 -18357788.73947  21158796.230    21158803.119
       242.000         209.000
  22356750.083   -14931555.36249 -10949485.54847  22356749.954    22356757.394
       230.000         188.000
  21714995.886   -22110974.25849 -16973599.35647  21714995.571    21715002.518
       238.000         203.000
  20751152.960   -25097006.50949 -19529151.19748  20751152.296    20751158.705
       243.000         213.000
  20565715.975   -21893418.24349 -17043736.86148  20565716.121    20565722.125
       248.000         217.000
 00  2  5  2  8  0.0000000  0  6G17G 5G24G 6G10G30
  23874141.219    -9383207.83049  -7292958.01145  23874140.876    23874150.805
       219.000         162.000
  21172156.809   -23508704.43449 -18303081.73547  21172156.301    21172163.279
       242.000         209.000
  22370759.515   -14857935.32049 -10892119.27646  22370758.896    22370766.631
       231.000         187.000
  21703641.938   -22170639.37749 -17020091.59047  21703641.532    21703648.414
       238.000         203.000
  20749766.035   -25104294.76149 -19534830.31448  20749765.186    20749771.916
       243.000         213.000
  20565047.818   -21896929.24549 -17046472.68948  20565048.183    20565054.004
       248.000         217.000
 00  2  5  2  8 30.0000000  0  6G17G 5G24G 6G10G30
  23859087.361    -9462315.77349  -7354600.43845  23859086.828    23859096.008
       219.000         162.000
  21185593.730   -23438093.00649 -18248059.84347  21185593.359    21185600.322
       242.000         209.000
  22384781.012   -14784251.81849 -10834703.55046  22384781.418    22384787.959
       231.000         187.000
  21692309.574   -22230191.15149 -17066495.51047  21692309.617    21692316.091
       239.000         203.000
  20748498.664   -25110954.69349 -19540019.83748  20748497.814    20748504.334
       243.000         213.000
  20564492.884   -21899845.45249 -17048745.04148  20564493.118    20564498.992
       247.000         216.000
 00  2  5  2  9  0.0000000  0  6G17G 5G24G 6G10G30
  23844069.748    -9541233.44949  -7416094.60445  23844068.665    23844078.404
       219.000         162.000
  21199107.305   -23367078.73449 -18192724.04747  21199106.924    21199113.855
       242.000         209.000
  22398818.123   -14710486.40149 -10777223.99346  22398817.941    22398825.117
       231.000         187.000
  21680997.753   -22289634.93449 -17112815.28347  21680997.578    21681004.275
       239.000         203.000
  20747346.059   -25117011.47949 -19544739.37748  20747345.382    20747351.896
       243.000         213.000
  20564050.941   -21902167.70049 -17050554.57248  20564051.254    20564057.121
       248.000         216.000
 00  2  5  2  9 30.0000000  0  6G17G 5G24G 6G10G30
  23829087.796    -9619963.66549  -7477442.69346  23829086.896    23829096.131
       219.000         163.000
  21212694.077   -23295679.64049 -18137088.38947  21212693.608    21212700.707
       242.000         208.000
  22412868.949   -14636648.83849 -10719688.22146  22412868.974    22412875.893
       230.000         187.000
  21669706.124   -22348972.70749 -17159052.44647  21669705.865    21669712.648
       239.000         203.000
  20746306.229   -25122475.82949 -19548997.27348  20746305.402    20746312.080
       243.000         213.000
  20563720.880   -21903902.10849 -17051906.04048  20563721.032    20563727.130
       248.000         217.000
 00  2  5  2 10  0.0000000  0  6G17G 5G24G 6G10G30
  23814139.581    -9698516.56549  -7538652.61846  23814139.065    23814148.513
       219.000         163.000
  21226356.880   -23223881.20049 -18081141.55447  21226356.409    21226363.272
       242.000         208.000
  22426930.759   -14562753.43149 -10662107.37446  22426930.619    22426938.188
       230.000         187.000
  21658433.560   -22408210.15949 -17205211.44547  21658433.339    21658440.104
       239.000         203.000
  20745380.680   -25127339.42049 -19552787.05048  20745379.792    20745386.330
       243.000         213.000
  20563503.643   -21905043.49849 -17052795.42248  20563504.012    20563509.847
       248.000         217.000
 00  2  5  2 10 30.0000000  0  6G17G 5G24G 6G10G30
  23799225.044    -9776892.45849  -7599724.62346  23799224.720    23799234.153
       219.000         163.000
  21240102.386   -23151648.09649 -18024856.01847  21240101.953    21240108.949
       241.000         208.000
  22441004.898   -14488793.36849 -10604476.14946  22441004.796    22441011.873
       230.000         187.000
  21647179.026   -22467352.95749 -17251296.68147  21647178.830    21647185.527
       239.000         204.000
  20744568.942   -25131604.74749 -19556110.64248  20744568.224    20744574.671
       243.000         213.000
  20563398.896   -21905593.99249 -17053224.35948  20563399.085    20563404.985
       248.000         217.000
 00  2  5  2 11  0.0000000  0  6G17G 5G24G 6G10G30
  23784344.206    -9855091.22649  -7660658.60446  23784343.382    23784352.888
       220.000         164.000
  21253928.917   -23078989.06549 -17968238.59547  21253928.561    21253935.285
       241.000         208.000
  22455088.880   -14414781.62549 -10546804.66346  22455088.536    22455095.850
       230.000         186.000
  21635942.065   -22526403.36649 -17297309.93347  21635941.829    21635948.511
       239.000         204.000
  20743871.472   -25135269.96749 -19558966.62348  20743870.697    20743877.068
       243.000         213.000
  20563405.999   -21905556.41049 -17053195.05948  20563406.280    20563412.112
       247.000         217.000
 00  2  5  2 11 30.0000000  0  6G17G 5G24G 6G10G30
  23769497.415    -9933111.12249  -7721453.21546  23769496.610    23769506.387
       218.000         164.000
  21267838.971   -23005891.34149 -17911279.33347  21267838.482    21267845.566
       241.000         207.000
  22469179.931   -14340732.35649 -10489103.93246  22469179.950    22469186.817
       230.000         186.000
  21624724.807   -22585349.99849 -17343242.31947  21624724.615    21624731.292
       239.000         204.000
  20743292.918   -25138310.17549 -19561335.58148  20743292.188    20743298.668
       243.000         213.000
  20563525.289   -21904929.63149 -17052706.64448  20563525.508    20563531.480
       248.000         217.000
 00  2  5  2 12  0.0000000  0  6G17G 5G24G 6G10G30
  23754685.149   -10010949.54549  -7782106.41346  23754684.404    23754693.774
       221.000         164.000
  21281832.652   -22932353.91749 -17853977.45047  21281832.104    21281839.091
       241.000         207.000
  22483280.367   -14266634.02349 -10431364.97046  22483280.419    22483287.241
       230.000         186.000
  21613528.679   -22644185.83349 -17389088.36747  21613528.446    21613535.274
       239.000         204.000
  20742834.650   -25140718.27049 -19563211.98748  20742833.955    20742840.299
       244.000         213.000
  20563755.852   -21903717.88049 -17051762.40448  20563756.108    20563761.937
       248.000         217.000
 00  2  5  2 12 30.0000000  0  6G17G 5G24G 6G10G30
  23739906.845   -10088609.59749  -7842620.62146  23739906.675    23739915.318
       220.000         164.000
  21295903.500   -22858411.22449 -17796359.76847  21295902.983    21295910.113
       241.000         207.000
  22497392.967   -14192471.87849 -10373576.28446  22497392.309    22497399.932
       228.000         185.000
  21602354.934   -22702904.02449 -17434842.74947  21602354.911    21602361.287
       239.000         204.000
  20742494.795   -25142504.13549 -19564603.53348  20742494.050    20742500.441
       245.000         213.000
  20564096.646   -21901927.01149 -17050366.90248  20564096.732    20564102.650
       248.000         217.000
 00  2  5  2 13  0.0000000  0  6G17G 5G24G 6G10G30
  23725164.041   -10166083.06049  -7902989.44846  23725162.911    23725172.372
       219.000         164.000
  21310046.261   -22784090.45749 -17738447.48647  21310045.992    21310052.850
       240.000         207.000
  22511515.342   -14118258.37449 -10315747.57746  22511514.933    22511522.679
       230.000         185.000
  21591206.356   -22761489.97449 -17480494.08647  21591205.899    21591212.386
       240.000         204.000
  20742273.594   -25143666.39649 -19565509.15748  20742272.773    20742279.122
       245.000         213.000
  20564549.170   -21899548.90949 -17048513.81848  20564549.599    20564555.296
       248.000         217.000
 00  2  5  2 13 30.0000000  0  6G17G 5G24G 6G10G30
  23710457.765   -10243364.44649  -7963208.59046  23710456.892    23710465.768
       219.000         164.000
  21324260.399   -22709394.61649 -17680242.93647  21324259.932    21324266.991
       241.000         207.000
  22525649.297   -14043983.85649 -10257871.32446  22525649.337    22525656.193
       230.000         185.000
  21580084.878   -22819933.47449 -17526034.42147  21580084.738    21580090.948
       240.000         205.000
  20742171.571   -25144202.37849 -19565926.76448  20742170.784    20742177.256
       245.000         213.000
  20565115.369   -21896573.52849 -17046195.32148  20565115.697    20565121.491
       248.000         217.000
 00  2  5  2 14  0.0000000  0  6G17G 5G24G 6G10G30
  23695789.466   -10320446.44349  -8023272.36946  23695788.947    23695798.961
       220.000         165.000
  21338542.008   -22634344.23549 -17621762.11847  21338541.445    21338548.437
       240.000         206.000
  22539797.442   -13969634.49049 -10199936.74046  22539796.963    22539804.792
       230.000         185.000
  21568989.681   -22878238.80149 -17571467.08647  21568989.599    21568996.076
       240.000         205.000
  20742188.215   -25144114.77349 -19565858.47048  20742187.362    20742194.037
       245.000         213.000
  20565797.675   -21892987.88449 -17043401.29548  20565797.964    20565803.812
       248.000         217.000
 00  2  5  2 14 30.0000000  0  6G17G 5G24G 6G10G30
  23681159.849   -10397325.12149  -8083177.71246  23681158.565    23681168.437
       218.000         165.000
  21352894.151   -22558923.26349 -17562992.52847  21352893.709    21352900.840
       240.000         206.000
  22553957.527   -13895222.76349 -10141953.57646  22553957.780    22553964.376
       229.000         184.000
  21557924.132   -22936388.39649 -17616778.40547  21557924.020    21557930.365
       240.000         205.000
  20742324.299   -25143399.35749 -19565300.96748  20742323.408    20742330.053
       245.000         213.000
  20566600.342   -21888769.67949 -17040114.36248  20566600.629    20566606.507
       248.000         217.000
 00  2  5  2 15  0.0000000  0  6G17G 5G24G 6G10G30
  23666572.215   -10473983.21749  -8142911.16546  23666571.833    23666580.938
       220.000         164.000
  21367323.793   -22483094.96649 -17503905.54447  21367323.560    21367330.516
       240.000         206.000
  22568129.639   -13820747.78849 -10083921.12346  22568129.719    22568136.800
       229.000         184.000
  21546890.569   -22994370.11849 -17661958.91047  21546890.458    21546897.043
       240.000         205.000
  20742583.382   -25142037.74849 -19564239.94448  20742582.549    20742589.055
       245.000         213.000
  20567528.852   -21883890.35849 -17036312.28048  20567529.146    20567535.042
       248.000         217.000
 00  2  5  2 15 30.0000000  0  6G17G 5G24G 6G10G30
  23652026.977   -10550418.30049  -8202470.83546  23652026.713    23652036.162
       219.000         165.000
  21381834.647   -22406840.00749 -17444486.09547  21381833.994    21381841.193
       240.000         206.000
  22582318.321   -13746185.80649 -10025820.86946  22582317.667    22582325.237
       229.000         184.000
  21535890.151   -23052177.43749 -17707003.52147  21535890.024    21535896.335
       240.000         205.000
  20742968.238   -25140015.06849 -19562663.79748  20742967.512    20742973.827
       245.000         213.000
  20568584.316   -21878343.63549 -17031990.14148  20568584.535    20568590.427
       247.000         217.000
 00  2  5  2 16  0.0000000  0  6G17G 5G24G 6G10G30
  23637523.388   -10626634.71349  -8261860.11946  23637522.514    23637531.563
       220.000         165.000
  21396429.609   -22330142.93749 -17384722.14947  21396429.120    21396436.156
       240.000         205.000
  22596522.472   -13671542.64149  -9967657.35546  22596522.223    22596529.284
       229.000         184.000
  21524924.409   -23109802.68049 -17751906.25547  21524924.305    21524930.845
       240.000         206.000
  20743478.844   -25137331.60149 -19560572.75548  20743478.119    20743484.499
       245.000         213.000
  20569765.984   -21872133.83449 -17027151.32348  20569766.347    20569772.213
       248.000         217.000
 00  2  5  2 16 30.0000000  0  6G17G 5G24G 6G10G30
  23623061.883   -10702629.81249  -8321076.94146  23623060.436    23623070.436
       221.000         166.000
  21411112.074   -22252986.00349 -17324599.85747  21411111.546    21411118.453
       240.000         205.000
  22610741.297   -13596822.13449  -9909433.58046  22610741.020    22610748.564
       229.000         184.000
  21513992.719   -23167248.90849 -17796669.48647  21513992.403    21513998.845
       240.000         206.000
  20744114.300   -25133992.05549 -19557970.47848  20744113.379    20744119.994
       245.000         213.000
  20571070.738   -21865277.26849 -17021808.52948  20571071.074    20571076.846
       248.000         217.000
 00  2  5  2 17  0.0000000  0  6G17G 5G24G 6G10G30
  23608641.214   -10778410.42949  -8380126.63846  23608640.568    23608650.046
       220.000         167.000
  21425876.356   -22175399.22549 -17264142.62747  21425875.995    21425883.017
       239.000         205.000
  22624975.253   -13522022.25349  -9851147.94646  22624975.016    22624982.597
       228.000         184.000
  21503088.296   -23224551.62149 -17841320.89647  21503087.872    21503094.570
       240.000         206.000
  20744872.717   -25130006.39649 -19554864.73848  20744871.944    20744878.417
       245.000         213.000
  20572490.531   -21857816.10049 -17015994.62048  20572490.831    20572496.877
       248.000         217.000
 00  2  5  2 17 30.0000000  0  6G17G 5G24G 6G10G30
  23594256.306   -10854003.29849  -8439030.02746  23594256.016    23594264.626
       221.000         168.000
  21440715.625   -22097418.33249 -17203378.29747  21440715.182    21440722.264
       240.000         205.000
  22639218.707   -13447172.20849  -9792823.22646  22639218.875    22639226.031
       229.000         183.000
  21492206.066   -23281737.89449 -17885881.56947  21492205.736    21492212.458
       240.000         206.000
  20745748.285   -25125405.12949 -19551279.30448  20745747.548    20745754.011
       245.000         213.000
  20574015.707   -21849801.20949 -17009749.24048  20574016.055    20574021.822
       247.000         217.000
 00  2  5  2 18  0.0000000  0  6G17G 5G24G 6G10G30
  23579903.870   -10929425.46049  -8497800.40246  23579902.733    23579912.628
       221.000         168.000
  21455625.869   -22019064.51249 -17142323.37347  21455625.420    21455632.385
       240.000         204.000
  22653465.595   -13372304.16849  -9734484.48146  22653465.882    22653472.421
       229.000         183.000
  21481342.490   -23338826.24149 -17930365.94147  21481342.366    21481348.765
       240.000         206.000
  20746737.594   -25120206.18949 -19547228.15348  20746736.773    20746743.285
       245.000         213.000
  20575642.746   -21841251.08449 -17003086.79548  20575642.909    20575648.789
       247.000         217.000
 00  2  5  2 18 30.0000000  0  6G17G 5G24G 6G10G30
  23565584.222   -11004675.14249  -8556436.38946  23565583.386    23565592.214
       222.000         169.000
  21470602.966   -21940359.27449 -17080994.62147  21470602.751    21470609.421
       239.000         204.000
  22667714.188   -13297427.28649  -9676138.84846  22667714.208    22667721.082
       228.000         183.000
  21470495.117   -23395829.38449 -17974783.91447  21470495.096    21470501.174
       240.000         206.000
  20747839.357   -25114416.21449 -19542716.45548  20747838.720    20747844.910
       245.000         213.000
  20577370.034   -21832173.86849 -16996013.63048  20577370.313    20577376.258
       247.000         216.000
 00  2  5  2 19  0.0000000  0  6G17G 5G24G 6G10G30
  23551296.504   -11079757.10749  -8614941.67946  23551295.937    23551304.830
       222.000         169.000
  21485643.197   -21861322.46849 -17019407.50147  21485642.679    21485649.897
       239.000         204.000
  22681963.035   -13222549.11649  -9617792.21946  22681963.164    22681970.184
       228.000         182.000
  21459665.871   -23452737.23049 -18019127.62947  21459665.603    21459672.259
       241.000         207.000
  20749053.321   -25108036.75449 -19537745.41948  20749052.670    20749058.977
       245.000         213.000
  20579198.943   -21822562.87349 -16988524.52848  20579199.407    20579205.151
       247.000         216.000
 00  2  5  2 19 30.0000000  0  6G17G 5G24G 6G10G30
  23537040.801   -11154670.66249  -8673315.74646  23537040.056    23537049.282
       223.000         170.000
  21500749.846   -21781936.35749 -16957548.19647  21500749.341    21500756.488
       239.000         203.000
  22696211.936   -13147670.80249  -9559445.47646  22696210.860    22696219.068
       228.000         182.000
  21448859.302   -23509525.54749 -18063378.20547  21448859.074    21448865.434
       241.000         207.000
  20750379.394   -25101068.08649 -19532315.26748  20750378.622    20750385.169
       245.000         213.000
  20581135.762   -21812384.78149 -16980593.53848  20581135.886    20581141.962
       248.000         216.000
 00  2  5  2 20  0.0000000  0  6G17G 5G24G 6G10G30
  23522820.685   -11229397.50449  -8731544.32346  23522819.731    23522829.031
       222.000         171.000
  21515926.051   -21702184.77249 -16895404.10647  21515925.555    21515932.507
       239.000         203.000
  22710465.494   -13072767.67449  -9501079.40046  22710465.782    22710472.344
       228.000         182.000
  21438079.844   -23566171.79249 -18107518.08147  21438079.586    21438085.923
       241.000         207.000
  20751820.467   -25093495.07949 -19526414.19748  20751819.784    20751826.167
       245.000         213.000
  20583188.591   -21801597.04649 -16972187.50148  20583188.955    20583194.878
       247.000         216.000
 00  2  5  2 20 30.0000000  0  6G17G 5G24G 6G10G30
  23508639.487   -11303919.61349  -8789613.37246  23508638.228    23508648.432
       222.000         172.000
  21531173.549   -21622058.71549 -16832968.21947  21531173.149    21531180.041
       239.000         203.000
  22724727.958   -12997817.92449  -9442676.99746  22724727.688    22724734.802
       228.000         181.000
  21427329.140   -23622666.73149 -18151540.05247  21427328.939    21427335.277
       241.000         207.000
  20753377.884   -25085310.79649 -19520036.81248  20753377.086    20753383.596
       245.000         213.000
  20585359.950   -21790186.41549 -16963296.08848  20585360.262    20585366.010
       247.000         216.000
 00  2  5  2 21  0.0000000  0  6G17G 5G24G 6G10G30
  23494495.493   -11378246.37849  -8847530.22046  23494494.620    23494503.395
       222.000         172.000
  21546493.460   -21541552.05849 -16770235.76347  21546492.933    21546499.981
       238.000         203.000
  22739000.617   -12922814.36749  -9384232.65646  22739000.597    22739007.575
       228.000         181.000
  21416608.696   -23679002.63349 -18195438.10047  21416608.391    21416614.901
       241.000         207.000
  20755049.269   -25076527.48949 -19513192.65648  20755048.519    20755054.888
       245.000         213.000
  20587650.007   -21778152.05649 -16953918.65548  20587650.166    20587656.218
       248.000         216.000
 00  2  5  2 21 30.0000000  0  6G17G 5G24G 6G10G30
  23480386.261   -11452390.49949  -8905304.74346  23480385.307    23480394.612
       222.000         172.000
  21561886.701   -21460659.87649 -16707202.89747  21561886.497    21561893.619
       238.000         202.000
  22753284.341   -12847752.89849  -9325743.20046  22753284.299    22753290.938
       228.000         181.000
  21405919.066   -23735176.76649 -18239210.10047  21405918.871    21405925.129
       241.000         208.000
  20756834.001   -25067148.46449 -19505884.30948  20756833.453    20756839.719
       245.000         213.000
  20590058.194   -21765496.80549 -16944057.40848  20590058.519    20590064.281
       247.000         217.000
 00  2  5  2 22  0.0000000  0  6G17G 5G24G 6G10G30
  23466313.276   -11526343.96249  -8962930.71546  23466312.090    23466322.073
       224.000         173.000
  21577350.270   -21379398.40349 -16643882.27547  21577349.882    21577356.816
       237.000         202.000
  22767579.511   -12772631.27949  -9267206.87346  22767579.153    22767586.319
       227.000         180.000
  21395259.177   -23791194.71449 -18282860.39647  21395259.060    21395265.316
       241.000         208.000
  20758733.113   -25057168.58749 -19498107.76948  20758732.339    20758738.734
       245.000         213.000
  20592582.057   -21752233.79049 -16933722.58248  20592582.382    20592588.210
       248.000         217.000
 00  2  5  2 22 30.0000000  0  6G17G 5G24G 6G10G30
  23452275.017   -11600115.02449  -9020414.55846  23452274.848    23452283.314
       222.000         173.000
  21592881.000   -21297783.81749 -16580286.49747  21592880.390    21592887.906
       238.000         202.000
  22781883.683   -12697462.34049  -9208633.67746  22781883.840    22781890.355
       227.000         180.000
  21384628.222   -23847060.44949 -18326392.08547  21384628.240    21384634.585
       241.000         208.000
  20760745.953   -25046591.06649 -19489865.52648  20760745.115    20760751.602
       245.000         213.000
  20595215.829   -21738393.22949 -16922937.71848  20595215.999    20595221.860
       248.000         217.000
 00  2  5  2 23  0.0000000  0  6G17G 5G24G 6G10G30
  23438268.716   -11673718.24249  -9077767.61146  23438268.304    23438276.545
       222.000         173.000
  21608477.354   -21215824.38149 -16516422.00447  21608476.973    21608483.885
       238.000         201.000
  22796194.077   -12622260.57249  -9150034.89146  22796193.654    22796201.321
       228.000         180.000
  21374026.772   -23902771.50649 -18369803.24547  21374026.709    21374033.061
       241.000         208.000
  20762873.513   -25035410.45249 -19481153.34148  20762872.682    20762879.110
       245.000         213.000
  20597960.090   -21723971.98849 -16911700.37448  20597960.479    20597966.120
       248.000         217.000
 00  2  5  2 23 30.0000000  0  6G17G 5G24G 6G10G30
  23424299.234   -11747127.96149  -9134969.89246  23424298.006    23424307.568
       223.000         173.000
  21624138.617   -21133524.03149 -16452291.86347  21624138.221    21624145.581
       238.000         201.000
  22810511.059   -12547024.51149  -9091409.39146  22810511.052    22810518.363
       227.000         179.000
  21363455.646   -23958323.00849 -18413090.08047  21363455.577    21363461.712
       241.000         208.000
  20765121.876   -25023595.35649 -19471946.76048  20765121.156    20765127.366
       245.000         213.000
  20600818.880   -21708948.95849 -16899994.10848  20600819.270    20600824.952
       248.000         217.000
 00  2  5  2 24  0.0000000  0  6G17G 5G24G 6G10G30
  23410372.909   -11820310.77349  -9191995.36046  23410372.346    23410381.225
       224.000         173.000
  21639865.366   -21050879.50249 -16387893.53747  21639865.153    21639872.236
       237.000         201.000
  22824833.515   -12471759.37149  -9032761.21946  22824833.996    22824840.117
       227.000         179.000
  21352916.750   -24013705.15249 -18456244.95147  21352916.883    21352922.896
       242.000         209.000
  20767492.427   -25011137.90549 -19462239.63648  20767491.765    20767498.019
       245.000         213.000
  20603794.918   -21693309.70649 -16887807.66648  20603795.249    20603801.054
       248.000         217.000
 00  2  5  2 24 30.0000000  0  6G17G 5G24G 6G10G30
  23396489.838   -11893266.35149  -9248843.76746  23396488.778    23396498.180
       223.000         173.000
  21655660.153   -20967877.39849 -16323216.57647  21655659.809    21655666.505
       237.000         200.000
  22839161.554   -12396465.24149  -8974090.46446  22839161.138    22839168.647
       226.000         179.000
  21342411.396   -24068911.00149 -18499262.44947  21342411.196    21342417.560
       241.000         209.000
  20769985.963   -24998034.16349 -19452028.90848  20769985.138    20769991.549
       245.000         213.000
  20606890.221   -21677043.81249 -16875132.93048  20606890.487    20606896.393
       248.000         217.000
 00  2  5  2 25  0.0000000  0  6G17G 5G24G 6G10G30
  23382652.636   -11965980.94449  -9305504.39646  23382651.977    23382661.175
       222.000         174.000
  21671524.026   -20884512.01449 -16258256.53747  21671523.447    21671530.659
       237.000         200.000
  22853496.579   -12321134.08449  -8915390.85546  22853496.943    22853503.318
       227.000         179.000
  21331941.309   -24123931.38549 -18542135.43147  21331941.214    21331947.610
       242.000         209.000
  20772603.061   -24984281.10949 -19441312.22948  20772602.357    20772608.814
       245.000         213.000
  20610106.403   -21660142.56449 -16861963.11548  20610106.600    20610112.420
       247.000         217.000
 00  2  5  2 25 30.0000000  0  6G17G 5G24G 6G10G30
  23368863.410   -12038443.59249  -9361968.70246  23368862.123    23368871.808
       223.000         174.000
  21687454.789   -20800795.15249 -16193022.62147  21687454.238    21687461.180
       237.000         200.000
  22867839.028   -12245764.08449  -8856660.98246  22867838.565    22867846.045
       226.000         178.000
  21321504.831   -24178775.32249 -18584870.92047  21321504.629    21321511.163
       242.000         209.000
  20775338.554   -24969905.97349 -19430110.80248  20775337.753    20775344.205
       245.000         213.000
  20613437.627   -21642636.82849 -16848322.26748  20613437.984    20613443.817
       247.000         217.000
 00  2  5  2 26  0.0000000  0  6G17G 5G24G 6G10G30
  23355115.310   -12110689.89749  -9418264.42746  23355114.601    23355123.916
       223.000         174.000
  21703450.920   -20716734.87949 -16127521.11647  21703450.654    21703457.481
       237.000         199.000
  22882184.491   -12170378.33049  -8797918.82346  22882184.353    22882191.805
       227.000         178.000
  21311096.211   -24233472.93449 -18627492.39847  21311095.895    21311102.475
       242.000         209.000
  20778184.988   -24954947.70549 -19418454.99348  20778184.132    20778190.612
       245.000         213.000
  20616874.388   -21624576.54149 -16834249.30748  20616874.385    20616880.356
       248.000         217.000
 00  2  5  2 26 30.0000000  0  6G17G 5G24G 6G10G30
  23341400.190   -12182763.09649  -9474425.27246  23341399.935    23341408.543
       225.000         173.000
  21719508.293   -20632352.89549 -16061768.92447  21719508.107    21719515.093
       236.000         199.000
  22896530.478   -12094989.53549  -8739174.30346  22896529.812    22896537.785
       226.000         177.000
  21300710.266   -24288051.33049 -18670020.97647  21300710.035    21300716.362
       242.000         209.000
  20781138.781   -24939425.31949 -19406359.60548  20781138.107    20781144.397
       245.000         213.000
  20620410.926   -21605991.71649 -16819767.61348  20620411.246    20620417.044
       248.000         217.000
 00  2  5  2 27  0.0000000  0  6G17G 5G24G 6G10G30
  23327715.912   -12254673.95749  -9530459.61946  23327715.459    23327723.890
       223.000         173.000
  21735622.801   -20547670.73549 -15995782.83147  21735622.162    21735629.434
       236.000         199.000
  22910875.480   -12019605.98349  -8680433.86546  22910875.871    22910882.636
       226.000         177.000
  21290346.037   -24342515.47049 -18712460.52847  21290345.850    21290352.267
       242.000         210.000
  20784198.239   -24923347.64149 -19393831.52748  20784197.519    20784203.898
       245.000         213.000
  20624046.382   -21586887.24249 -16804881.00048  20624046.740    20624052.501
       248.000         217.000
 00  2  5  2 27 30.0000000  0  6G17G 5G24G 6G10G30
  23314060.965   -12326430.57149  -9586373.77346  23314059.972    23314069.589
       223.000         173.000
  21751795.729   -20462681.27349 -15929557.27647  21751795.305    21751802.344
       236.000         199.000
  22925217.270   -11944239.09749  -8621706.41646  22925217.192    22925223.988
       225.000         176.000
  21280003.220   -24396867.30549 -18754812.56447  21280002.980    21280009.285
       242.000         210.000
  20787362.771   -24906717.69049 -19380873.10148  20787361.829    20787368.440
       245.000         213.000
  20627784.235   -21567244.64849 -16789575.07148  20627784.402    20627790.308
       248.000         217.000
 00  2  5  2 28  0.0000000  0  6G17G 5G24G 6G10G30
  23300435.177   -12398034.08249  -9642168.61746  23300434.525    23300443.168
       223.000         173.000
  21768030.453   -20377367.41949 -15863078.95247  21768029.906    21768037.057
       236.000         198.000
  22939557.620   -11868880.15149  -8562985.14146  22939557.705    22939564.556
       224.000         175.000
  21269686.328   -24451082.62149 -18797058.22647  21269686.283    21269692.539
       242.000         210.000
  20790638.745   -24889502.26049 -19367458.45948  20790638.021    20790644.295
       245.000         213.000
  20631631.817   -21547025.43449 -16773819.82748  20631632.118    20631638.035
       248.000         217.000
 00  2  5  2 28 30.0000000  0  6G17G 5G24G 6G10G30
  23286843.108   -12469460.52549  -9697825.48046  23286842.894    23286851.715
       223.000         173.000
  21784327.690   -20291724.82849 -15796344.46947  21784327.194    21784334.333
       236.000         198.000
  22953903.967   -11793489.61449  -8504239.26746  22953903.523    22953910.685
       224.000         175.000
  21259403.212   -24505120.67049 -18839165.76347  21259403.191    21259409.428
       242.000         210.000
  20794030.869   -24871676.43949 -19353568.18948  20794030.142    20794036.471
       245.000         213.000
  20635598.183   -21526182.16849 -16757578.31348  20635598.552    20635604.406
       248.000         217.000
 00  2  5  2 29  0.0000000  0  6G17G 5G24G 6G10G30
  23273290.810   -12540677.89449  -9753319.43646  23273289.787    23273298.179
       223.000         173.000
  21800690.298   -20205738.67049 -15729342.27247  21800690.046    21800696.632
       236.000         198.000
  22968260.176   -11718047.27249  -8445453.01646  22968260.104    22968267.216
       224.000         174.000
  21249156.025   -24558969.99149 -18881126.22947  21249155.955    21249161.920
       243.000         210.000
  20797541.316   -24853228.82349 -19339193.39848  20797540.502    20797546.934
       245.000         213.000
  20639687.999   -21504690.01349 -16740831.17048  20639688.351    20639694.091
       248.000         216.000
 00  2  5  2 29 30.0000000  0  6G17G 5G24G 6G10G30
  23259779.511   -12611679.83149  -9808645.52346  23259778.800    23259787.311
       223.000         173.000
  21817119.235   -20119404.22149 -15662068.68047  21817118.673    21817125.782
       235.000         197.000
  22982626.912   -11642549.29549  -8386623.42046  22982627.088    22982634.002
       224.000         174.000
  21238944.575   -24612631.45549 -18922940.31647  21238944.425    21238950.782
       242.000         210.000
  20801170.418   -24834157.79449 -19324332.82948  20801169.700    20801175.922
       245.000         213.000
  20643899.967   -21482555.91949 -16723583.81548  20643900.135    20643905.880
       247.000         216.000
 00  2  5  2 30  0.0000000  0  6G17G 5G24G 6G10G30
  23246309.275   -12682466.02849  -9863803.49746  23246307.416    23246316.778
       224.000         173.000
  21833611.261   -20032737.96849 -15594536.53747  21833610.916    21833617.717
       235.000         197.000
  22997005.289   -11566990.44049  -8327746.37346  22997004.835    22997011.676
       224.000         174.000
  21228766.403   -24666118.01449 -18964618.11247  21228766.231    21228772.427
       242.000         210.000
  20804918.570   -24814461.01249 -19308984.65748  20804917.945    20804924.196
       245.000         213.000
  20648230.126   -21459800.71849 -16705852.48148  20648230.398    20648236.097
       247.000         216.000
 00  2  5  2 30 30.0000000  0  6G17G 5G24G 6G10G30
  23232879.645   -12753038.86449  -9918795.20646  23232878.903    23232888.223
       223.000         173.000
  21850162.423   -19945761.07949 -15526762.34147  21850162.038    21850169.014
       236.000         197.000
  23011392.447   -11491385.45249  -8268833.38746  23011392.025    23011399.733
       224.000         173.000
  21218618.390   -24719445.94049 -19006172.29747  21218618.256    21218624.443
       243.000         210.000
  20808783.132   -24794152.57549 -19293159.87348  20808782.360    20808788.535
       245.000         213.000
  20652674.792   -21436443.66449 -16687652.17448  20652675.121    20652681.044
       247.000         216.000
 00  2  5  2 31  0.0000000  0  6G17G 5G24G 6G10G30
  23219491.320   -12823394.66449  -9973617.79746  23219490.052    23219498.904
       224.000         173.000
  21866772.222   -19858476.05749 -15458748.04147  21866772.009    21866778.843
       235.000         197.000
  23025781.913   -11415768.17549  -8209910.81846  23025782.033    23025788.450
       224.000         173.000
  21208499.598   -24772620.29049 -19047606.81247  21208499.391    21208505.472
       242.000         211.000
  20812762.989   -24773238.15749 -19276862.90048  20812762.314    20812768.377
       246.000         213.000
  20657229.216   -21412510.00449 -16669002.56548  20657229.538    20657235.346
       248.000         216.000
 00  2  5  2 31 30.0000000  0  6G17G 5G24G 6G10G30
  23206142.968   -12893540.29849 -10028276.61746  23206141.972    23206150.481
       224.000         173.000
  21883439.479   -19770888.96749 -15390498.36347  21883438.581    21883445.954
       235.000         196.000
  23040169.824   -11340159.18549  -8150994.71846  23040169.433    23040177.151
       223.000         173.000
  21198413.078   -24825625.05849 -19088909.18247  21198412.964    21198419.030
       242.000         211.000
  20816858.637   -24751715.30449 -19260091.81748  20816857.809    20816864.129
       245.000         213.000
  20661889.689   -21388019.07349 -16649918.71848  20661890.081    20661895.790
       247.000         216.000
 00  2  5  2 32  0.0000000  0  6G17G 5G24G 6G10G30
  23192834.939   -12963473.97749 -10082770.27546  23192834.335    23192842.831
       224.000         174.000
  21900166.312   -19682988.67849 -15322004.63647  21900165.801    21900173.058
       235.000         196.000
  23054554.060   -11264569.42049  -8092093.58946  23054553.984    23054560.787
       223.000         173.000
  21188360.566   -24878451.18549 -19130072.35047  21188360.413    21188366.573
       243.000         211.000
  20821069.195   -24729588.53949 -19242850.16148  20821068.454    20821074.771
       246.000         213.000
  20666656.820   -21362967.51849 -16630398.02248  20666657.111    20666662.913
       247.000         216.000
 00  2  5  2 32 30.0000000  0  6G17G 5G24G 6G10G30
  23179567.044   -13033196.80149 -10137099.63746  23179566.150    23179574.943
       223.000         174.000
  21916954.315   -19594767.24249 -15253260.66147  21916954.058    21916960.807
       235.000         196.000
  23068934.087   -11189001.75849  -8033209.68346  23068933.380    23068940.874
       223.000         173.000
  21178346.206   -24931076.78249 -19171079.25847  21178345.906    21178352.029
       243.000         211.000
  20825395.545   -24706853.49949 -19225134.52147  20825394.819    20825401.190
       246.000         212.000
  20671532.040   -21337348.00949 -16610434.76548  20671532.306    20671538.177
       247.000         216.000
 00  2  5  2 33  0.0000000  0  6G17G 5G24G 6G10G30
  23166339.699   -13102706.33149 -10191262.78946  23166338.977    23166346.778
       224.000         174.000
  21933808.349   -19506198.75749 -15184246.26147  21933807.941    21933814.864
       235.000         195.000
  23083309.527   -11113458.14349  -7974344.52246  23083309.208    23083316.277
       223.000         173.000
  21168373.283   -24983484.57149 -19211916.44547  21168373.100    21168379.243
       243.000         211.000
  20829836.864   -24683514.06749 -19206947.93347  20829836.154    20829842.384
       245.000         212.000
  20676517.447   -21311149.59849 -16590020.41548  20676517.705    20676523.447
       247.000         216.000
 00  2  5  2 33 30.0000000  0  6G17G 5G24G 6G10G30
  23153151.505   -13172010.37649 -10245265.82646  23153150.358    23153159.168
       224.000         174.000
  21950731.149   -19417268.70749 -15114950.12147  21950730.835    21950737.829
       234.000         195.000
  23097683.611   -11037921.69849  -7915484.94646  23097683.596    23097690.557
       223.000         173.000
  21158441.380   -25035676.84449 -19252585.70247  21158441.246    21158447.403
       243.000         211.000
  20834394.159   -24659565.15849 -19188286.42847  20834393.420    20834399.635
       245.000         212.000
  20681618.170   -21284345.00649 -16569133.72048  20681618.254    20681624.231
       247.000         216.000
 00  2  5  2 34  0.0000000  0  6G17G 5G24G 6G10G30
  23140002.859   -13241106.52849 -10299106.85646  23140001.910    23140010.587
       224.000         175.000
  21967723.706   -19327972.33649 -15045368.53147  21967723.491    21967730.088
       234.000         195.000
  23112060.287   -10962371.59449  -7856614.73046  23112060.324    23112067.707
       223.000         172.000
  21148550.424   -25087654.17049 -19293087.46247  21148550.313    21148556.325
       243.000         211.000
  20839068.108   -24635003.47649 -19169147.43447  20839067.394    20839073.388
       245.000         212.000
  20686837.605   -21256916.71349 -16547761.02148  20686837.850    20686843.724
       247.000         216.000
 00  2  5  2 34 30.0000000  0  6G17G 5G24G 6G10G30
  23126894.142   -13309992.80549 -10352784.35446  23126893.305    23126902.358
       224.000         175.000
  21984781.991   -19238330.48649 -14975517.73947  21984781.413    21984788.661
       234.000         194.000
  23126443.614   -10886786.67049  -7797717.38946  23126442.147    23126450.079
       223.000         173.000
  21138701.818   -25139408.70049 -19333415.61747  21138701.741    21138707.790
       243.000         212.000
  20843858.837   -24609827.94749 -19149530.12147  20843858.077    20843864.244
       245.000         212.000
  20692176.221   -21228862.09849 -16525900.28048  20692176.374    20692182.359
       247.000         216.000
 00  2  5  2 35  0.0000000  0  6G17G 5G24G 6G10G30
  23113826.253   -13378664.55749 -10406294.69246  23113825.741    23113833.893
       225.000         176.000
  22001903.390   -19148357.06149 -14905408.58047  22001903.129    22001910.153
       234.000         194.000
  23140834.453   -10811162.25649  -7738789.27246  23140834.404    23140842.191
       222.000         172.000
  21128893.498   -25190951.52349 -19373578.80647  21128893.401    21128899.468
       243.000         212.000
  20848763.362   -24584054.42449 -19129446.83647  20848762.502    20848768.807
       245.000         212.000
  20697632.808   -21200187.49049 -16503556.42948  20697633.197    20697638.996
       247.000         216.000
 00  2  5  2 35 30.0000000  0  6G17G 5G24G 6G10G30
  23100799.177   -13447121.84449 -10459637.92646  23100798.740    23100806.616
       225.000         176.000
  22019079.839   -19058094.13949 -14835073.84047  22019079.259    22019086.492
       234.000         194.000
  23155234.423   -10735489.80749  -7679823.72746  23155233.525    23155241.352
       222.000         172.000
  21119121.290   -25242304.72349 -19413594.23247  21119121.187    21119127.292
       243.000         212.000
  20853781.272   -24557685.07649 -19108899.27547  20853780.518    20853786.787
       245.000         212.000
  20703202.638   -21170917.96049 -16480749.00148  20703203.011    20703208.886
       247.000         216.000
 00  2  5  2 36  0.0000000  0  6G17G 5G24G 6G10G30
  23087811.740   -13515370.95649 -10512818.94346  23087811.401    23087819.237
       225.000         177.000
  22036303.920   -18967581.02149 -14764544.14447  22036303.325    22036310.423
       232.000         193.000
  23169641.602   -10659779.59349  -7620828.76346  23169641.611    23169648.302
       223.000         172.000
  21109382.716   -25293481.02149 -19453471.81747  21109382.459    21109388.607
       243.000         212.000
  20858908.310   -24530742.13749 -19087904.76147  20858907.629    20858913.857
       245.000         212.000
  20708878.858   -21141089.21549 -16457505.82348  20708879.071    20708884.963
       247.000         216.000
 00  2  5  2 36 30.0000000  0  6G17G 5G24G 6G10G30
  23074861.773   -13583423.10949 -10565846.49546  23074861.626    23074869.594
       225.000         177.000
  22053571.338   -18876840.16849 -14693836.98947  22053570.771    22053577.485
       233.000         193.000
  23184051.576   -10584054.53549  -7561822.22146  23184051.105    23184059.086
       223.000         173.000
  21099674.140   -25344499.58549 -19493226.49147  21099674.070    21099680.104
       243.000         212.000
  20864140.173   -24503248.40849 -19066481.06347  20864139.547    20864145.786
       244.000         212.000
  20714657.732   -21110720.98549 -16433842.26548  20714657.901    20714663.814
       246.000         216.000
 00  2  5  2 37  0.0000000  0  6G17G 5G24G 6G10G30
  23061948.418   -13651283.00049 -10618724.23046  23061947.916    23061956.036
       225.000         177.000
  22070882.147   -18785871.25049 -14622952.12147  22070881.926    22070889.132
       233.000         193.000
  23198459.633   -10508339.79849  -7502823.72946  23198459.701    23198466.412
       222.000         173.000
  21089990.433   -25395387.73149 -19532879.54447  21089990.294    21089996.284
       243.000         212.000
  20869477.265   -24475201.76749 -19044626.52447  20869476.572    20869482.747
       244.000         212.000
  20720538.462   -21079817.39649 -16409761.54748  20720538.869    20720544.741
       246.000         215.000
 00  2  5  2 37 30.0000000  0  6G17G 5G24G 6G10G30
  23049069.439   -13718961.78749 -10671460.85146  23049068.382    23049076.345
       226.000         178.000
  22088237.623   -18694667.51449 -14551884.27947  22088237.002    22088244.061
       232.000         192.000
  23212864.669   -10432640.83349  -7443837.52446  23212864.878    23212872.112
       223.000         173.000
  21080332.571   -25446139.95449 -19572426.68548  21080332.539    21080338.399
       243.000         213.000
  20874921.849   -24446590.18249 -19022331.77047  20874921.103    20874927.199
       245.000         212.000
  20726522.361   -21048371.86849 -16385258.54148  20726522.757    20726528.427
       247.000         215.000
 00  2  5  2 38  0.0000000  0  6G17G 5G24G 6G10G30
  23036224.441   -13786462.39949 -10724058.63646  23036223.714    23036231.849
       226.000         178.000
  22105642.849   -18603202.53349 -14480612.87047  22105642.352    22105649.442
       232.000         192.000
  23227267.114   -10356955.62249  -7384862.03346  23227266.938    23227274.454
       223.000         174.000
  21070705.108   -25496732.44749 -19611849.36248  21070704.974    21070710.768
       244.000         213.000
  20880475.551   -24417405.22849 -18999590.23247  20880474.818    20880480.997
       244.000         212.000
  20732612.459   -21016368.19349 -16360320.60948  20732612.831    20732618.676
       246.000         215.000
 00  2  5  2 38 30.0000000  0  6G17G 5G24G 6G10G30
  23023414.420   -13853779.02449 -10776513.06046  23023413.702    23023422.633
       225.000         178.000
  22123101.738   -18511455.46649 -14409121.65347  22123101.516    22123108.513
       233.000         191.000
  23241667.822   -10281279.53149  -7325893.65446  23241668.068    23241674.251
       224.000         174.000
  21061111.917   -25547144.93549 -19651131.77848  21061111.706    21061117.843
       244.000         213.000
  20886142.432   -24387625.48349 -18976385.21947  20886141.765    20886148.039
       244.000         212.000
  20738811.850   -20983790.12749 -16334935.10648  20738812.239    20738817.962
       246.000         215.000
 00  2  5  2 39  0.0000000  0  6G17G 5G24G 6G10G30
  23010641.138   -13920902.52249 -10828817.00946  23010640.685    23010648.325
       226.000         178.000
  22140617.780   -18419407.90049 -14337396.28647  22140617.519    22140624.391
       232.000         191.000
  23256068.961   -10205601.20249  -7266923.52646  23256068.928    23256075.700
       223.000         174.000
  21051559.349   -25597343.73449 -19690247.68248  21051559.089    21051565.179
       244.000         213.000
  20891926.845   -24357228.21849 -18952699.02547  20891926.140    20891932.379
       245.000         212.000
  20745121.674   -20950631.87549 -16309097.50848  20745122.091    20745127.702
       246.000         215.000
 00  2  5  2 39 30.0000000  0  6G17G 5G24G 6G10G30
  22997905.290   -13987829.57649 -10880967.88446  22997904.902    22997912.617
       226.000         179.000
  22158192.053   -18327054.61849 -14265432.69747  22158191.353    22158198.370
       231.000         191.000
  23270473.232   -10129906.19249  -7207940.40446  23270472.517    23270480.214
       224.000         174.000
  21042053.732   -25647295.93049 -19729171.43448  21042053.629    21042059.496
       244.000         213.000
  20897828.371   -24326215.29749 -18928533.09947  20897827.705    20897833.978
       244.000         212.000
  20751540.730   -20916899.41249 -16282812.47548  20751541.097    20751546.896
       246.000         215.000
 00  2  5  2 40  0.0000000  0  6G17G 5G24G 6G10G30
  22985209.118   -14054547.99449 -10932956.18146  22985208.361    22985217.049
       227.000         179.000
  22175824.169   -18234397.25349 -14193232.15947  22175823.767    22175830.877
       232.000         190.000
  23284880.146   -10054197.33649  -7148946.48646  23284879.943    23284887.468
       224.000         174.000
  21032595.304   -25697000.11449 -19767901.92448  21032595.237    21032601.018
       245.000         213.000
  20903845.994   -24294592.38949 -18903891.85947  20903845.229    20903851.511
       244.000         212.000
  20758067.602   -20882600.48849 -16256086.04248  20758067.819    20758073.769
       246.000         215.000
 00  2  5  2 40 30.0000000  0  7G17G 5G24G 6G10G13G30
  22972549.310   -14121075.52849 -10984795.74946  22972549.025    22972556.495
       226.000         179.000
  22193507.804   -18141469.15449 -14120820.65547  22193507.474    22193514.183
       231.000         189.000
  23299284.115    -9978504.27449  -7089964.88046  23299283.951    23299291.285
       224.000         173.000
  21023179.212   -25746481.99749 -19806459.19848  21023178.996    21023184.950
       245.000         213.000
  20909974.822   -24262385.20849 -18878795.34247  20909974.066    20909980.465
       244.000         212.000
  24839464.107    -5906902.18249  -4229345.16845  24839464.167    24839470.966
       203.000         138.000
  20764698.672   -20847753.93849 -16228932.88748  20764699.108    20764704.803
       246.000         215.000
 00  2  5  2 41  0.0000000  0  7G17G 5G24G 6G10G13G30
  22959926.242   -14187409.82449 -11036484.74346  22959925.904    22959933.147
       227.000         180.000
  22211240.696   -18048282.28849 -14048207.52747  22211240.108    22211247.389
       231.000         189.000
  23313685.292    -9902825.77349  -7030994.61046  23313685.112    23313692.283
       222.000         173.000
  21013804.791   -25795744.72849 -19844845.70848  21013804.696    21013810.719
       245.000         214.000
  20916212.386   -24229606.37549 -18853253.38747  20916211.578    20916217.838
       244.000         212.000
  24835856.436    -5925860.52549  -4244117.86745  24835856.135    24835862.035
       202.000         139.000
  20771434.862   -20812355.05949 -16201349.34948  20771435.145    20771440.997
       246.000         215.000
 00  2  5  2 41 30.0000000  0  7G17G 5G24G 6G10G13G30
  22947348.120   -14253507.98649 -11087989.74646  22947347.872    22947355.472
       227.000         180.000
  22229030.046   -17954798.51449 -13975363.03647  22229029.433    22229036.340
       231.000         189.000
  23328093.033    -9827112.46749  -6971997.22546  23328092.658    23328099.985
       222.000         173.000
  21004477.423   -25844760.15149 -19883039.51148  21004477.163    21004483.119
       245.000         214.000
  20922566.177   -24196217.05749 -18827235.73047  20922565.529    20922571.719
       244.000         212.000
  24832337.733    -5944351.34549  -4258526.27945  24832337.740    24832344.083
       203.000         138.000
  20778286.630   -20776348.74949 -16173292.48948  20778286.991    20778292.942
       246.000         215.000
 00  2  5  2 42  0.0000000  0  7G17G 5G24G 6G10G13G30
  22934813.404   -14319378.31349 -11139317.21246  22934812.590    22934820.566
       228.000         181.000
  22246873.597   -17861029.86749 -13902296.56747  22246872.900    22246880.452
       231.000         188.000
  23342506.463    -9751369.27949  -6912976.55646  23342506.049    23342513.120
       223.000         172.000
  20995193.783   -25893545.83549 -19921054.29748  20995193.490    20995199.370
       245.000         214.000
  20929032.689   -24162235.19849 -18800756.35047  20929031.843    20929038.026
       245.000         212.000
  24828905.181    -5962388.29049  -4272580.98145  24828905.057    24828911.780
       199.000         138.000
  20785252.837   -20739740.89549 -16144766.89148  20785253.059    20785258.867
       246.000         215.000
 00  2  5  2 42 30.0000000  0  7G17G 5G24G 6G10G13G30
  22922319.785   -14385032.48049 -11190476.23846  22922319.339    22922327.189
       228.000         181.000
  22264768.284   -17766992.62749 -13829020.80347  22264767.662    22264774.951
       231.000         188.000
  23356924.652    -9675601.31349  -6853936.57046  23356924.598    23356932.355
       221.000         171.000
  20985952.764   -25942107.53349 -19958894.54548  20985952.687    20985958.551
       245.000         214.000
  20935607.340   -24127685.26449 -18773834.31547  20935606.651    20935612.974
       245.000         211.000
  24825559.147    -5979972.45749  -4286282.90045  24825559.103    24825565.565
       202.000         139.000
  20792332.966   -20702534.49849 -16115774.89748  20792333.227    20792339.056
       246.000         214.000
 00  2  5  2 43  0.0000000  0  7G17G 5G24G 6G10G13G30
  22909866.351   -14450475.34349 -11241470.62246  22909865.510    22909873.635
       227.000         181.000
  22282712.637   -17672694.47649 -13755541.73647  22282712.549    22282719.544
       232.000         188.000
  23371345.854    -9599817.29949  -6794884.08646  23371345.064    23371352.976
       221.000         171.000
  20976750.361   -25990466.48949 -19996576.81548  20976750.258    20976756.088
       245.000         214.000
  20942285.347   -24092591.95349 -18746488.86747  20942284.588    20942290.883
       245.000         211.000
  24822301.166    -5997092.92549  -4299623.48245  24822301.079    24822308.110
       201.000         138.000
  20799522.952   -20664750.73249 -16086333.00548  20799523.480    20799529.156
       246.000         214.000
 00  2  5  2 43 30.0000000  0  7G17G 5G24G 6G10G13G30
  22897450.698   -14515719.77149 -11292310.37646  22897450.115    22897458.438
       227.000         182.000
  22300706.070   -17578138.57149 -13681861.82146  22300705.553    22300712.623
       232.000         187.000
  23385765.041    -9524044.11549  -6735840.04046  23385765.501    23385771.793
       221.000         170.000
  20967583.618   -26038637.96049 -20034112.99148  20967583.384    20967589.385
       245.000         214.000
  20949063.444   -24056972.87349 -18718733.72847  20949062.836    20949068.958
       244.000         211.000
  24819127.643    -6013769.11449  -4312617.86145  24819128.465    24819133.938
       204.000         138.000
  20806817.829   -20626416.17349 -16056461.92548  20806818.329    20806824.105
       246.000         214.000
 00  2  5  2 44  0.0000000  0  7G17G 5G24G 6G10G13G30
  22885072.507   -14580767.43949 -11342996.81446  22885071.774    22885079.964
       227.000         182.000
  22318745.606   -17483340.18349 -13607992.95946  22318745.114    22318752.149
       231.000         187.000
  23400179.147    -9448297.57049  -6676816.75346  23400179.223    23400186.846
       221.000         169.000
  20958451.116   -26086629.57049 -20071509.02148  20958451.136    20958456.856
       246.000         215.000
  20955937.118   -24020851.50749 -18690587.19847  20955936.357    20955942.561
       245.000         211.000
  24816035.723    -6030018.38549  -4325279.61445  24816035.446    24816041.730
       202.000         138.000
  20814216.143   -20587537.87049 -16026167.14848  20814216.488    20814222.282
       246.000         214.000
 00  2  5  2 44 30.0000000  0  7G17G 5G24G 6G10G13G30
  22872731.786   -14645618.20249 -11393529.81846  22872731.118    22872739.328
       227.000         182.000
  22336829.428   -17388309.18149 -13533942.83346  22336828.895    22336836.303
       231.000         187.000
  23414583.693    -9372601.32349  -6617832.65546  23414583.621    23414590.959
       219.000         169.000
  20949351.578   -26134447.83549 -20108769.96848  20949351.266    20949357.255
       246.000         215.000
  20962907.057   -23984224.27149 -18662046.47847  20962906.442    20962912.645
       244.000         211.000
  24813025.140    -6045838.35549  -4337606.82045  24813025.860    24813031.095
       203.000         138.000
  20821717.826   -20548116.12849 -15995448.90748  20821718.134    20821723.938
       246.000         214.000
 00  2  5  2 45  0.0000000  0  7G17G 5G24G 6G10G13G30
  22860428.305   -14710273.05149 -11443910.16246  22860427.935    22860435.930
       227.000         183.000
  22354956.532   -17293050.52249 -13459715.32446  22354956.446    22354963.163
       231.000         186.000
  23428978.055    -9296958.40749  -6558890.11846  23428978.036    23428984.489
       219.000         168.000
  20940285.591   -26182089.69149 -20145893.46248  20940285.482    20940291.404
       245.000         215.000
  20969978.082   -23947065.73449 -18633091.76147  20969977.257    20969983.536
       245.000         211.000
  24810096.798    -6061226.88249  -4349597.83645  24810096.468    24810102.201
       202.000         137.000
  20829320.950   -20508161.60249 -15964315.51748  20829321.171    20829327.162
       246.000         214.000
 00  2  5  2 45 30.0000000  0  7G17G 5G24G 6G10G13G30
  22848162.917   -14774727.96549 -11494134.72346  22848161.897    22848170.281
       228.000         183.000
  22373127.664   -17197560.69649 -13385307.67746  22373127.346    22373134.253
       231.000         186.000
  23443365.597    -9221351.30849  -6499975.48646  23443365.436    23443372.577
       219.000         167.000
  20931256.868   -26229535.70849 -20182864.35148  20931256.812    20931262.576
       246.000         215.000
  20977154.164   -23909355.16149 -18603706.88647  20977153.509    20977159.533
       244.000         211.000
  24807249.837    -6076187.04649  -4361255.06545  24807250.748    24807256.054
       205.000         138.000
  20837026.383   -20467669.20649 -15932763.00548  20837026.527    20837032.353
       246.000         214.000
 00  2  5  2 46  0.0000000  0  7G17G 5G24G 6G10G13G30
  22835936.151   -14838979.55949 -11544200.83446  22835935.701    22835943.416
       228.000         183.000
  22391340.643   -17101850.79349 -13310728.55046  22391340.158    22391347.871
       230.000         186.000
  23457749.497    -9145763.40149  -6441075.81246  23457749.688    23457756.373
       219.000         166.000
  20922267.566   -26276774.72249 -20219673.93548  20922267.296    20922273.169
       246.000         215.000
  20984439.065   -23871072.70649 -18573876.37847  20984438.226    20984444.273
       244.000         211.000
  24804489.070    -6090696.06249  -4372560.76645  24804489.269    24804494.974
       201.000         138.000
  20844834.554   -20426637.05649 -15900789.90648  20844834.861    20844840.493
       246.000         214.000
 00  2  5  2 46 30.0000000  0  7G17G 5G24G 6G10G13G30
  22823748.903   -14903023.78849 -11594105.36546  22823748.208    22823756.223
       228.000         183.000
  22409596.477   -17005915.65349 -13235973.90846  22409596.109    22409602.871
       230.000         185.000
  23472131.208    -9070187.09549  -6382185.17646  23472131.032    23472138.251
       219.000         165.000
  20913320.768   -26323790.30349 -20256309.41348  20913320.739    20913326.659
       246.000         215.000
  20991836.654   -23832198.00449 -18543584.38147  20991835.964    20991841.998
       244.000         211.000
  24801817.872    -6104732.68549  -4383498.32845  24801817.759    24801824.157
       204.000         139.000
  20852742.140   -20385082.28949 -15868409.57248  20852742.457    20852748.187
       246.000         214.000
 00  2  5  2 47  0.0000000  0  7G17G 5G24G 6G10G13G30
  22811598.551   -14966873.97249 -11643858.68846  22811598.069    22811605.986
       227.000         184.000
  22427894.777   -16909757.54449 -13161045.52546  22427894.242    22427901.624
       230.000         185.000
  23486513.477    -8994607.68549  -6323292.13646  23486512.826    23486520.074
       217.000         164.000
  20904418.960   -26370569.45849 -20292760.67348  20904418.942    20904424.734
       246.000         215.000
  20999346.547   -23792733.19349 -18512832.55947  20999345.795    20999351.921
       244.000         211.000
  24799238.776    -6118286.69049  -4394059.88245  24799240.413    24799243.380
       204.000         139.000
  20860747.564   -20343013.61649 -15835628.79148  20860747.905    20860753.764
       246.000         214.000
 00  2  5  2 47 30.0000000  0  7G17G 5G24G 6G10G13G30
  22799484.409   -15030533.99649 -11693463.83446  22799483.756    22799491.697
       227.000         184.000
  22446237.110   -16813368.13249 -13085936.89846  22446236.804    22446243.752
       230.000         185.000
  23500896.015    -8919026.51349  -6264397.70546  23500894.979    23500902.206
       218.000         163.000
  20895563.644   -26417104.20149 -20329021.47448  20895563.642    20895569.421
       246.000         215.000
  21006963.818   -23752704.24049 -18481641.14047  21006963.102    21006968.996
       244.000         210.000
  24796750.994    -6131360.10649  -4404246.92245  24796750.367    24796756.480
       204.000         139.000
  20868853.440   -20300416.92349 -15802436.56748  20868853.903    20868859.624
       245.000         214.000
 00  2  5  2 48  0.0000000  0  7G17G 5G24G 6G10G13G30
  22787405.856   -15094006.94149 -11742923.20046  22787405.118    22787413.164
       228.000         184.000
  22464622.577   -16716751.77049 -13010651.43046  22464621.846    22464629.405
       229.000         184.000
  23515276.813    -8843454.90749  -6205510.73145  23515276.083    23515283.784
       217.000         162.000
  20886757.232   -26463382.03649 -20365082.08448  20886757.209    20886762.905
       246.000         215.000
  21014686.514   -23712120.98349 -18450017.80147  21014685.816    21014691.966
       244.000         210.000
  24794357.234    -6143939.33349  -4414048.86545  24794357.304    24794362.836
       204.000         139.000
  20877061.828   -20257281.66949 -15768824.68648  20877062.041    20877067.921
       246.000         213.000
 00  2  5  2 48 30.0000000  0  7G17G 5G24G 6G10G13G30
  22775362.782   -15157293.60649 -11792237.41446  22775362.035    22775369.624
       227.000         184.000
  22483052.196   -16619903.50849 -12935185.26246  22483051.467    22483058.661
       229.000         184.000
  23529655.713    -8767893.07649  -6146631.37245  23529655.508    23529662.106
       216.000         161.000
  20878000.551   -26509398.53549 -20400939.06248  20878000.211    20878006.146
       246.000         215.000
  21022512.588   -23670994.57749 -18417971.22947  21022511.898    21022517.903
       244.000         210.000
  24792056.889    -6156026.41249  -4423467.34045  24792057.056    24792063.557
       202.000         138.000
  20885375.867   -20213591.10049 -15734780.09348  20885376.155    20885381.877
       245.000         213.000
 00  2  5  2 49  0.0000000  0  7G17G 5G24G 6G10G13G30
  22763355.161   -15220393.80249 -11841406.32446  22763354.657    22763362.280
       228.000         184.000
  22501526.021   -16522822.75649 -12859537.93346  22501525.548    22501532.862
       229.000         184.000
  23544034.263    -8692333.03049  -6087753.40445  23544034.334    23544041.035
       217.000         161.000
  20869295.076   -26555145.99649 -20436586.39648  20869295.048    20869300.931
       247.000         216.000
  21030441.595   -23629327.16349 -18385503.09147  21030440.929    21030447.034
       244.000         210.000
  24789849.119    -6167627.23049  -4432506.90045  24789849.864    24789854.827
       203.000         139.000
  20893800.770   -20169317.80949 -15700281.42948  20893801.102    20893806.891
       246.000         213.000
 00  2  5  2 49 30.0000000  0  7G17G 5G24G 6G10G13G30
  22751388.062   -15283280.99449 -11890409.26546  22751387.092    22751395.289
       228.000         184.000
  22520045.291   -16425503.35849 -12783704.64546  22520045.137    22520052.066
       229.000         184.000
  23558411.811    -8616778.17349  -6028879.47645  23558411.601    23558418.083
       215.000         160.000
  20860640.349   -26600626.78549 -20472025.93348  20860640.069    20860645.966
       246.000         216.000
  21038474.500   -23587113.90349 -18352609.61947  21038473.808    21038479.871
       243.000         210.000
  24787733.169    -6178746.80649  -4441171.47745  24787734.379    24787738.810
       205.000         139.000
  20902337.281   -20124458.21649 -15665325.90748  20902337.393    20902343.297
       245.000         213.000
 00  2  5  2 50  0.0000000  0  8G17G 5G24G 6G26G10G13G30
  22739467.945   -15345921.45749 -11939219.94846  22739467.015    22739474.908
       228.000         185.000
  22538612.200   -16327933.73349 -12707676.38346  22538611.404    22538618.898
       228.000         183.000
  23572792.711    -8541206.13949  -5969992.17345  23572792.615    23572798.603
       216.000         160.000
  20852037.929   -26645832.67149 -20507251.26648  20852037.795    20852043.592
       245.000         216.000
  24351943.055    -8465223.02549  -3296316.92445  24351943.620    24351950.324
       205.000         144.000
  21046617.419   -23544322.49949 -18319265.64747  21046616.710    21046622.818
       243.000         210.000
  24785713.253    -6189361.63249  -4449442.72545  24785712.938    24785719.566
       200.000         139.000
  20910986.849   -20079004.43049 -15629907.37548  20910987.215    20910993.015
       245.000         213.000
 00  2  5  2 50 30.0000000  0  8G17G 5G24G 6G26G10G13G30
  22727589.570   -15408342.35549 -11987859.53646  22727588.728    22727596.460
       228.000         185.000
  22557221.705   -16230140.13449 -12631473.59146  22557221.201    22557228.703
       229.000         183.000
  23587172.190    -8465641.17749  -5911110.38145  23587171.501    23587179.658
       216.000         159.000
  20843479.146   -26690809.21249 -20542297.88648  20843478.900    20843484.706
       245.000         216.000
  24335646.313    -8550863.09949  -3363049.41545  24335647.262    24335654.238
       206.000         145.000
  21054865.941   -23500975.96449 -18285489.10647  21054865.140    21054871.327
       243.000         209.000
  24783778.985    -6199524.97749  -4457362.17945  24783778.467    24783785.341
       205.000         140.000
  20919741.459   -20032998.66949 -15594058.73548  20919741.874    20919747.619
       246.000         213.000
 00  2  5  2 51  0.0000000  0  8G17G 5G24G 6G26G10G13G30
  22715752.930   -15470544.23249 -12036328.46346  22715751.932    22715760.063
       229.000         185.000
  22575873.394   -16132124.77949 -12555098.00146  22575872.848    22575880.530
       228.000         183.000
  23601547.304    -8390099.35449  -5852246.60445  23601547.838    23601553.636
       217.000         159.000
  20834960.690   -26735573.78349 -20577179.33248  20834960.447    20834966.234
       245.000         216.000
  24319358.376    -8636456.98249  -3429745.90645  24319358.968    24319365.694
       206.000         144.000
  21063218.708   -23457081.87749 -18251285.90247  21063217.988    21063224.048
       243.000         209.000
  24781929.203    -6209246.36549  -4464937.25645  24781930.307    24781934.163
       205.000         140.000
  20928596.705   -19986464.10049 -15557798.03348  20928596.994    20928603.064
       245.000         213.000
 00  2  5  2 51 30.0000000  0  8G17G 5G24G 6G26G10G13G30
  22703956.926   -15532532.25549 -12084630.74746  22703956.598    22703964.056
       229.000         185.000
  22594566.543   -16033891.75649 -12478552.80046  22594566.557    22594573.850
       228.000         183.000
  23615917.062    -8314585.64149  -5793404.75845  23615916.711    23615924.183
       216.000         159.000
  20826479.654   -26780141.85349 -20611907.66148  20826479.468    20826485.251
       245.000         216.000
  24303077.223    -8722014.78149  -3496414.28645  24303076.970    24303084.059
       206.000         144.000
  21071673.039   -23412653.84249 -18216666.63447  21071672.315    21071678.460
       243.000         209.000
  24780165.155    -6218517.19349  -4472161.24445  24780166.268    24780171.469
       203.000         139.000
  20937549.268   -19939418.13049 -15521138.83948  20937549.606    20937555.480
       245.000         213.000
 00  2  5  2 52  0.0000000  0  8G17G 5G24G 6G26G10G13G30
  22692198.470   -15594323.19049 -12132779.46046  22692198.258    22692205.888
       229.000         185.000
  22613298.633   -15935454.17649 -12401848.20846  22613298.309    22613305.690
       227.000         182.000
  23630281.530    -8239099.58649  -5734584.43845  23630281.207    23630288.708
       215.000         159.000
  20818035.831   -26824514.36149 -20646483.60648  20818035.724    20818041.469
       245.000         216.000
  24286799.782    -8807553.04049  -3563067.44345  24286800.068    24286806.858
       208.000         144.000
  21080228.251   -23367695.80549 -18181634.38047  21080227.582    21080233.645
       243.000         209.000
  24778486.871    -6227336.29949  -4479033.24245  24778486.681    24778492.742
       202.000         140.000
  20946596.904   -19891872.44349 -15484090.25548  20946597.073    20946603.028
       245.000         213.000
 00  2  5  2 52 30.0000000  0  8G17G 5G24G 6G26G10G13G30
  22680476.313   -15655923.41949 -12180779.57546  22680475.953    22680483.479
       229.000         186.000
  22632069.393   -15836813.17049 -12324985.10646  22632068.885    22632076.385
       228.000         182.000
  23644639.103    -8163650.22949  -5675792.73145  23644639.467    23644645.727
       215.000         159.000
  20809632.510   -26868673.92249 -20680893.62148  20809632.271    20809638.102
       245.000         216.000
  24270519.752    -8893104.84049  -3629731.14545  24270519.869    24270527.001
       208.000         145.000
  21088884.956   -23322204.26649 -18146186.41447  21088884.329    21088890.407
       243.000         209.000
  24776895.398    -6235700.14949  -4485550.47845  24776896.042    24776901.210
       206.000         140.000
  20955740.124   -19843824.56049 -15446650.35347  20955740.563    20955746.319
       245.000         212.000
 00  2  5  2 53  0.0000000  0  8G17G 5G24G 6G26G10G13G30
  22668791.460   -15717327.48249 -12228626.82846  22668790.913    22668798.226
       231.000         186.000
  22650878.417   -15737971.11149 -12247965.33246  22650878.403    22650885.406
       228.000         182.000
  23658989.788    -8088236.81449  -5617029.02645  23658989.602    23658996.426
       217.000         159.000
  20801275.954   -26912587.73749 -20715112.14348  20801275.766    20801281.436
       245.000         216.000
  24254235.076    -8978681.46949  -3696414.20545  24254235.232    24254241.904
       210.000         146.000
  21097641.939   -23276185.89049 -18110327.92247  21097641.177    21097647.221
       243.000         209.000
  24775394.819    -6243585.19949  -4491694.63245  24775395.161    24775400.304
       204.000         141.000
  20964979.975   -19795268.81349 -15408814.70747  20964980.226    20964986.219
       245.000         212.000
 00  2  5  2 53 30.0000000  0  8G17G 5G24G 6G26G10G13G30
  22657143.874   -15778535.65049 -12276321.43246  22657143.406    22657151.332
       232.000         186.000
  22669724.441   -15638934.72549 -12170794.13846  22669723.837    22669730.775
       228.000         181.000
  23673335.208    -8012851.04449  -5558286.86445  23673335.061    23673342.271
       218.000         160.000
  20792969.792   -26956236.87649 -20749124.42148  20792969.777    20792975.438
       245.000         216.000
  24237946.780    -9064276.92849  -3763111.92945  24237947.148    24237953.689
       210.000         146.000
  21106498.533   -23229643.95349 -18074061.46447  21106497.976    21106503.983
       242.000         208.000
  24773984.341    -6250997.16149  -4497470.15645  24773985.177    24773989.443
       204.000         141.000
  20974318.010   -19746197.13349 -15370577.03847  20974318.132    20974324.119
       245.000         212.000
 00  2  5  2 54  0.0000000  0  8G17G 5G24G 6G26G10G13G30
  22645536.565   -15839532.20949 -12323851.14646  22645535.922    22645543.887
       230.000         186.000
  22688606.970   -15539706.34449 -12093473.33146  22688607.314    22688614.168
       227.000         181.000
  23687674.031    -7937500.04249  -5499571.80045  23687673.595    23687680.197
       217.000         160.000
  20784717.173   -26999604.56449 -20782917.39648  20784717.090    20784722.729
       245.000         216.000
  24221657.660    -9149876.75049  -3829813.05845  24221657.685    24221664.766
       213.000         146.000
  21115456.568   -23182569.19349 -18037379.82347  21115455.834    21115462.223
       243.000         208.000
  24772661.976    -6257946.78349  -4502885.39245  24772663.002    24772667.684
       205.000         141.000
  20983757.261   -19696593.43749 -15331924.81247  20983757.577    20983763.545
       245.000         212.000
 00  2  5  2 54 30.0000000  0  8G17G 5G24G 6G26G10G13G30
  22633969.945   -15900314.99949 -12371214.29146  22633969.329    22633976.949
       231.000         186.000
  22707527.292   -15440279.49649 -12015997.89346  22707526.976    22707534.506
       226.000         181.000
  23702008.319    -7862172.77949  -5440875.22645  23702007.692    23702015.945
       217.000         160.000
  20776519.914   -27042681.22949 -20816483.59648  20776519.775    20776525.535
       245.000         216.000
  24205373.051    -9235452.90749  -3896495.75045  24205372.839    24205380.627
       212.000         145.000
  21124514.824   -23134967.62649 -18000287.68447  21124514.093    21124520.224
       243.000         208.000
  24771429.877    -6264421.84649  -4507930.86045  24771429.596    24771434.708
       205.000         140.000
  20993301.891   -19646436.00949 -15292841.10947  20993302.279    20993307.957
       244.000         212.000
 00  2  5  2 55  0.0000000  0  8G17G 5G24G 6G26G10G13G30
  22622443.907   -15960884.40349 -12418411.14846  22622443.148    22622451.321
       231.000         187.000
  22726484.237   -15340660.14949 -11938372.43246  22726484.112    22726490.711
       226.000         180.000
  23716341.655    -7786850.60049  -5382182.61045  23716342.118    23716348.635
       218.000         160.000
  20768376.762   -27085473.53849 -20849828.22048  20768376.482    20768382.167
       245.000         216.000
  24189098.395    -9320976.69249  -3963137.63345  24189098.725    24189105.735
       213.000         145.000
  21133671.421   -23086849.36649 -17962792.92647  21133670.594    21133676.861
       243.000         208.000
  24770289.470    -6270413.56149  -4512599.67345  24770290.205    24770293.343
       204.000         139.000
  21002952.798   -19595720.11049 -15253322.22947  21002953.288    21002959.137
       245.000         212.000
 00  2  5  2 55 30.0000000  0  8G17G 5G24G 6G26G10G13G30
  22610958.511   -16021240.05449 -12465441.44846  22610957.830    22610965.539
       231.000         187.000
  22745476.749   -15240854.03949 -11860601.45046  22745476.834    22745483.542
       225.000         180.000
  23730672.431    -7711541.69249  -5323500.33345  23730672.287    23730680.277
       217.000         161.000
  20760282.973   -27128006.63649 -20882970.86148  20760282.835    20760288.632
       245.000         217.000
  24172832.720    -9406453.05449  -4029742.56545  24172832.616    24172839.671
       214.000         145.000
  21142927.618   -23038207.71549 -17924890.33047  21142926.896    21142933.190
       242.000         208.000
  24769243.234    -6275911.90749  -4516884.05645  24769242.490    24769248.670
       205.000         139.000
  21012710.953   -19544440.65049 -15213364.21247  21012711.383    21012717.117
       245.000         212.000
 00  2  5  2 56  0.0000000  0  8G17G 5G24G 6G26G10G13G30
  22599513.205   -16081385.18049 -12512307.70946  22599512.563    22599520.004
       231.000         187.000
  22764505.278   -15140858.58549 -11782682.93346  22764505.021    22764512.038
       226.000         179.000
  23745001.342    -7636242.83049  -5264825.89845  23745001.318    23745008.848
       218.000         161.000
  20752236.735   -27170289.87349 -20915918.80548  20752236.705    20752242.266
       245.000         217.000
  24156574.904    -9491888.31149  -4096315.44545  24156575.021    24156581.443
       213.000         146.000
  21152284.124   -22989038.86449 -17886576.93147  21152283.359    21152289.513
       242.000         208.000
  24768294.806    -6280895.98449  -4520767.71145  24768295.536    24768300.941
       203.000         140.000
  21022571.924   -19492620.99049 -15172985.26347  21022572.246    21022578.054
       245.000         211.000
 00  2  5  2 56 30.0000000  0  8G17G 5G24G 6G26G10G13G30
  22588105.101   -16141334.89349 -12559021.69246  22588104.471    22588111.886
       231.000         187.000
  22783569.996   -15040672.72149 -11704616.03046  22783570.143    22783576.784
       226.000         179.000
  23759328.124    -7560954.79549  -5206159.88845  23759328.219    23759335.666
       219.000         161.000
  20744236.994   -27212328.70149 -20948676.30048  20744236.894    20744242.598
       246.000         217.000
  24140323.440    -9577290.47849  -4162862.55045  24140323.602    24140331.048
       213.000         146.000
  21161739.663   -22939349.74949 -17847858.12847  21161738.963    21161745.014
       243.000         207.000
  24767445.792    -6285355.73149  -4524242.79045  24767446.254    24767450.069
       204.000         140.000
  21032529.318   -19440294.50749 -15132211.38547  21032529.703    21032535.502
       245.000         211.000
 00  2  5  2 57  0.0000000  0  8G17G 5G24G 6G26G10G13G30
  22576733.864   -16201090.82949 -12605584.69046  22576733.373    22576740.623
       231.000         187.000
  22802669.283   -14940305.42549 -11626407.76746  22802668.391    22802676.001
       225.000         178.000
  23773649.325    -7485696.50249  -5147517.05445  23773649.095    23773656.113
       218.000         162.000
  20736283.625   -27254123.83149 -20981243.90348  20736283.550    20736289.244
       246.000         217.000
  24124074.282    -9662680.06949  -4229399.84745  24124074.731    24124080.904
       213.000         146.000
  21171293.237   -22889145.31449 -17808737.78147  21171292.569    21171298.740
       242.000         207.000
  24766694.996    -6289301.03349  -4527317.01045  24766695.843    24766701.298
       206.000         140.000
  21042577.659   -19387490.22849 -15091065.19847  21042578.146    21042583.862
       244.000         211.000
 00  2  5  2 57 30.0000000  0  8G17G 5G24G 6G26G10G13G30
  22565399.985   -16260650.32149 -12651994.60047  22565398.999    22565406.824
       232.000         188.000
  22821803.460   -14839754.70949 -11548056.56746  22821803.184    22821809.923
       225.000         178.000
  23787963.898    -7410473.04249  -5088901.35845  23787964.155    23787971.039
       219.000         162.000
  20728375.653   -27295680.31949 -21013625.54948  20728375.594    20728381.163
       245.000         217.000
  24107826.319    -9748063.66749  -4295932.47145  24107826.339    24107833.840
       214.000         146.000
  21180945.531   -22838422.16849 -17769213.23747  21180944.867    21180951.219
       242.000         207.000
  24766038.891    -6292749.32149  -4530003.93745  24766039.807    24766044.489
       202.000         140.000
  21052713.111   -19334228.16049 -15049562.29447  21052713.230    21052719.267
       245.000         211.000
 00  2  5  2 58  0.0000000  0  8G17G 5G24G 6G26G10G13G30
  22554102.505   -16320018.63849 -12698255.55847  22554101.650    22554109.532
       232.000         188.000
  22840969.586   -14739036.09249 -11469574.54846  22840969.756    22840976.388
       224.000         177.000
  23802272.404    -7335281.52349  -5030310.55945  23802272.440    23802279.590
       218.000         162.000
  20720514.715   -27336989.72149 -21045814.66048  20720514.376    20720520.035
       246.000         217.000
  24091580.835    -9833434.03849  -4362454.79945  24091581.365    24091588.053
       213.000         147.000
  21190692.970   -22787199.00349 -17729299.07447  21190692.199    21190698.364
       243.000         207.000
  24765473.597    -6295720.09549  -4532318.78745  24765473.320    24765478.583
       204.000         140.000
  21062931.425   -19280530.56949 -15007720.02147  21062931.926    21062937.525
       244.000         211.000
 00  2  5  2 58 30.0000000  0  8G17G 5G24G 6G26G10G13G30
  22542840.051   -16379203.07349 -12744373.22547  22542839.377    22542846.482
       232.000         188.000
  22860164.417   -14638166.67049 -11390975.00646  22860164.178    22860170.809
       224.000         177.000
  23816572.633    -7260133.34349  -4971753.52345  23816571.790    23816580.243
       218.000         162.000
  20712701.581   -27378047.61449 -21077807.78748  20712701.365    20712706.931
       246.000         217.000
  24075340.449    -9918777.97049  -4428956.51245  24075341.128    24075347.744
       215.000         147.000
  21200533.203   -22735488.10949 -17689004.85847  21200532.437    21200538.520
       242.000         207.000
  24764996.008    -6298229.85249  -4534274.38445  24764996.170    24765001.724
       205.000         140.000
  21073236.873   -19226375.13849 -14965520.98847  21073237.052    21073242.984
       244.000         211.000
 00  2  5  2 59  0.0000000  0  8G17G 5G24G 6G26G10G13G30
  22531613.179   -16438200.40549 -12790345.10647  22531612.479    22531619.911
       233.000         188.000
  22879386.094   -14537156.09849 -11312265.48446  22879385.671    22879392.943
       223.000         177.000
  23830867.448    -7185013.28149  -4913218.39445  23830867.454    23830874.518
       217.000         162.000
  20704936.328   -27418854.09349 -21109605.00948  20704936.141    20704941.782
       246.000         217.000
  24059106.557   -10004087.59149  -4495431.50045  24059106.437    24059113.451
       215.000         147.000
  21210465.864   -22683291.55549 -17648332.20647  21210465.161    21210471.238
       242.000         207.000
  24764605.132    -6300284.04149  -4535875.02045  24764606.020    24764609.837
       202.000         140.000
  21083635.210   -19171731.49249 -14922941.52747  21083635.683    21083641.536
       244.000         211.000
 00  2  5  2 59 30.0000000  0  8G17G 5G24G 6G26G10G13G30
  22520423.352   -16497003.10849 -12836165.32347  22520422.756    22520430.124
       232.000         188.000
  22898635.173   -14436001.59649 -11233443.79646  22898635.285    22898641.832
       223.000         176.000
  23845157.363    -7109919.25749  -4854703.55845  23845156.971    23845165.165
       218.000         162.000
  20697219.191   -27459407.77449 -21141205.24748  20697219.063    20697224.654
       246.000         217.000
  24042883.983   -10089337.38749  -4561859.86245  24042883.708    24042891.298
       212.000         147.000
  21220492.250   -22630602.56549 -17607275.83647  21220491.569    21220497.652
       243.000         207.000
  24764300.829    -6301882.78649  -4537120.74545  24764301.281    24764308.395
       204.000         140.000
  21094129.830   -19116581.92449 -14879967.84347  21094130.098    21094136.053
       244.000         211.000
 00  2  5  3  0  0.0000000  0  9G17G 5G24G 6G26G10G23G13G30
  22509270.193   -16555613.04949 -12881835.33547  22509269.487    22509276.828
       232.000         189.000
  22917910.517   -14334709.01049 -11154514.52846  22917909.751    22917917.415
       223.000         176.000
  23859441.295    -7034856.63849  -4796213.19945  23859441.063    23859448.120
       218.000         161.000
  20689554.240   -27499687.27249 -21172591.83648  20689554.090    20689559.732
       246.000         218.000
  24026674.342   -10174519.27549  -4628235.31345  24026674.379    24026681.530
       213.000         147.000
  21230614.003   -22577412.41349 -17565828.94947  21230613.402    21230619.468
       242.000         207.000
  24592752.128    -3242883.31149  -2186110.53845  24592751.313    24592760.745
       201.000         144.000
  24764087.491    -6303003.70749  -4537994.17145  24764087.739    24764093.329
       206.000         140.000
  21104725.931   -19060899.08649 -14836578.62247  21104726.382    21104732.101
       244.000         211.000
 00  2  5  3  0 30.0000000  0  9G17G 5G24G 6G26G10G23G13G30
  22498154.659   -16614025.23949 -12927351.25847  22498154.172    22498161.229
       232.000         189.000
  22937218.250   -14233246.36149 -11075452.73146  22937217.585    22937224.812
       223.000         175.000
  23873723.073    -6959805.66049  -4737731.90645  23873723.325    23873729.466
       217.000         161.000
  20681944.523   -27539676.53849 -21203752.27148  20681944.398    20681950.001
       246.000         218.000
  24010482.433   -10259608.08249  -4694538.23545  24010482.649    24010489.769
       212.000         147.000
  21240836.799   -22523691.38849 -17523968.39747  21240836.205    21240842.248
       242.000         207.000
  24572566.050    -3348960.89049  -2268768.23345  24572565.987    24572574.604
       203.000         144.000
  24763969.144    -6303625.93849  -4538478.97345  24763969.381    24763974.832
       205.000         140.000
  21115430.947   -19004643.92749 -14792743.43847  21115431.401    21115437.091
       244.000         210.000
 00  2  5  3  1  0.0000000  0  9G17G 5G24G 6G26G10G23G13G30
  22487079.720   -16672224.22949 -12972701.05847  22487078.639    22487086.355
       232.000         189.000
  22956559.799   -14131605.81249 -10996252.31046  22956559.385    22956566.734
       223.000         174.000
  23888004.662    -6884755.52749  -4679251.27045  23888003.999    23888012.143
       218.000         161.000
  20674392.738   -27579361.28749 -21234675.42248  20674392.566    20674398.153
       246.000         218.000
  23994308.409   -10344602.58649  -4760767.66345  23994307.047    23994314.688
       210.000         147.000
  21251162.855   -22469427.65649 -17481684.96047  21251161.987    21251168.219
       242.000         207.000
  24552400.376    -3454931.24349  -2351342.39845  24552398.948    24552409.641
       205.000         144.000
  24763949.047    -6303731.41349  -4538561.12545  24763948.275    24763954.823
       202.000         140.000
  21126243.375   -18947824.31949 -14748468.42947  21126243.626    21126249.519
       244.000         210.000
 00  2  5  3  1 30.0000000  0  9G17G 5G24G 6G26G10G23G13G30
  22476045.753   -16730207.85649 -13017883.04447  22476045.168    22476052.537
       231.000         189.000
  22975936.908   -14029778.36649 -10916906.26246  22975936.590    22975943.898
       223.000         174.000
  23902283.555    -6809719.48749  -4620781.61445  23902283.264    23902290.907
       217.000         161.000
  20666901.594   -27618727.42049 -21265350.29748  20666901.532    20666907.203
       246.000         218.000
  23978153.144   -10429498.88149  -4826920.58745  23978153.630    23978160.005
       211.000         147.000
  21261592.826   -22414617.67049 -17438975.86547  21261592.036    21261598.252
       242.000         206.000
  24532259.386    -3560772.15149  -2433815.70845  24532258.591    24532267.439
       206.000         144.000
  24764030.595    -6303301.07449  -4538225.77445  24764031.887    24764036.020
       207.000         140.000
  21137159.702   -18890458.54049 -14703767.83147  21137159.909    21137165.874
       244.000         210.000
 00  2  5  3  2  0.0000000  0  9G17G 5G24G 6G26G10G23G13G30
  22465050.721   -16787986.78849 -13062905.52447  22465049.830    22465057.863
       231.000         189.000
  22995351.435   -13927754.52549 -10837407.17546  22995350.880    22995357.864
       223.000         173.000
  23916561.641    -6734687.73749  -4562315.29845  23916561.239    23916568.561
       217.000         161.000
  20659469.818   -27657781.64449 -21295782.13148  20659469.767    20659475.420
       246.000         218.000
  23962013.927   -10514310.86349  -4893007.80745  23962013.433    23962021.012
       209.000         148.000
  21272126.209   -22359264.31949 -17395843.37447  21272125.424    21272131.738
       242.000         206.000
  24512146.436    -3666465.95549  -2516174.41245  24512146.114    24512154.471
       205.000         145.000
  24764216.367    -6302323.22849  -4537463.77945  24764217.249    24764223.038
       206.000         140.000
  21148177.576   -18832559.33149 -14658651.57347  21148177.731    21148183.804
       244.000         210.000
 00  2  5  3  2 30.0000000  0  9G17G 5G24G 6G26G10G23G13G30
  22454095.472   -16845556.70949 -13107765.13647  22454094.514    22454102.132
       231.000         189.000
  23014805.270   -13825523.99249 -10757747.02746  23014804.772    23014812.305
       222.000         173.000
  23930838.932    -6659659.97449  -4503852.10045  23930838.825    23930846.275
       216.000         161.000
  20652095.498   -27696533.97849 -21325978.72348  20652095.532    20652100.954
       246.000         218.000
  23945891.538   -10599034.47749  -4959026.16345  23945891.914    23945898.669
       208.000         148.000
  21282757.643   -22303395.73549 -17352309.40247  21282756.934    21282762.996
       242.000         206.000
  24492060.550    -3772017.64249  -2598422.37445  24492059.360    24492068.720
       208.000         145.000
  24764504.913    -6300807.71149  -4536282.80145  24764504.750    24764510.838
       203.000         140.000
  21159291.554   -18774154.92449 -14613141.65247  21159292.087    21159297.710
       244.000         210.000
 00  2  5  3  3  0.0000000  0  9G17G 5G24G 6G26G10G23G13G30
  22443180.379   -16902915.68849 -13152460.37947  22443179.670    22443186.896
       231.000         190.000
  23034293.652   -13723111.88549 -10677945.39946  23034293.650    23034300.918
       223.000         173.000
  23945111.833    -6584655.37549  -4445406.94745  23945112.124    23945119.048
       214.000         160.000
  20644774.378   -27735006.58449 -21355957.34848  20644774.180    20644779.645
       246.000         219.000
  23929782.892   -10683685.61649  -5024988.05345  23929782.386    23929788.826
       209.000         149.000
  21293482.169   -22247037.85149 -17308394.15647  21293481.380    21293487.517
       242.000         206.000
  24471997.781    -3877447.80549  -2680575.65545  24471997.818    24472007.156
       209.000         146.000
  24764893.461    -6298766.63649  -4534692.34845  24764894.960    24764898.617
       203.000         140.000
  21170493.236   -18715289.86749 -14567272.78447  21170493.502    21170499.390
       244.000         210.000
 00  2  5  3  3 30.0000000  0  9G17G 5G24G 6G26G10G23G13G30
  22432301.769   -16960082.86449 -13197006.16547  22432301.101    22432308.389
       232.000         190.000
  23053814.825   -13620527.50949 -10598009.53246  23053813.977    23053821.310
       222.000         172.000
  23959378.419    -6509683.95449  -4386987.65245  23959378.737    23959384.734
       213.000         159.000
  20637500.429   -27773231.25649 -21385742.77648  20637500.376    20637505.902
       246.000         219.000
  23913686.641   -10768271.83649  -5090899.35645  23913687.099    23913693.711
       210.000         149.000
  21304297.203   -22190204.47249 -17264108.39247  21304296.632    21304302.522
       241.000         206.000
  24451955.100    -3982772.29349  -2762646.58345  24451953.875    24451962.778
       208.000         146.000
  24765377.005    -6296226.95349  -4532713.33345  24765376.906    24765382.789
       204.000         140.000
  21181779.576   -18655979.71349 -14521057.08947  21181779.939    21181785.914
       243.000         209.000
 00  2  5  3  4  0.0000000  0  9G17G 5G24G 6G26G10G23G13G30
  22421460.425   -17017054.10749 -13241399.27947  22421459.587    22421467.201
       231.000         190.000
  23073363.690   -13517797.48449 -10517960.17646  23073363.563    23073370.237
       221.000         172.000
  23973638.964    -6434744.02249  -4328592.90245  23973638.875    23973645.353
       213.000         158.000
  20630270.530   -27811224.71749 -21415348.04348  20630270.311    20630275.890
       246.000         219.000
  23897602.622   -10852793.72849  -5156760.53345  23897602.424    23897609.559
       209.000         150.000
  21315197.513   -22132922.90549 -17219473.39347  21315196.696    21315202.848
       241.000         206.000
  24431928.277    -4088013.61949  -2844652.69545  24431927.289    24431936.736
       208.000         146.000
  24765950.056    -6293215.81449  -4530366.95045  24765949.870    24765955.778
       201.000         140.000
  21193149.151   -18596232.15549 -14474500.55747  21193149.628    21193155.286
       244.000         209.000
 00  2  5  3  4 30.0000000  0  9G17G 5G24G 6G26G10G23G13G30
  22410657.162   -17073825.41049 -13285636.59847  22410656.505    22410664.065
       232.000         190.000
  23092932.876   -13414960.84549 -10437827.74646  23092932.276    23092940.298
       223.000         171.000
  23987890.995    -6359848.95749  -4270233.10345  23987891.129    23987897.867
       211.000         158.000
  20623084.226   -27848988.76749 -21444774.54848  20623084.106    20623089.684
       246.000         219.000
  23881530.806   -10937251.46249  -5222571.71445  23881531.210    23881537.665
       208.000         150.000
  21326178.824   -22075215.71749 -17174506.74047  21326178.304    21326183.994
       241.000         206.000
  24411911.803    -4193200.40649  -2926616.30445  24411911.705    24411919.927
       210.000         147.000
  24766607.254    -6289761.61249  -4527675.32345  24766607.434    24766612.722
       204.000         139.000
  21204600.042   -18536057.40649 -14427611.15147  21204600.231    21204606.000
       243.000         209.000
 00  2  5  3  5  0.0000000  0  9G17G 5G24G 6G26G10G23G13G30
  22399889.820   -17130407.97749 -13329726.84647  22399889.279    22399896.520
       231.000         191.000
  23112518.387   -13312038.31549 -10357628.38746  23112518.227    23112525.297
       221.000         171.000
  24002132.024    -6285011.83549  -4211918.46345  24002131.930    24002138.971
       214.000         158.000
  20615943.591   -27886513.00049 -21474014.17948  20615943.349    20615948.986
       246.000         219.000
  23865468.910   -11021656.98149  -5288342.19745  23865469.289    23865475.760
       208.000         151.000
  21337244.961   -22017062.72549 -17129192.70547  21337244.093    21337250.415
       240.000         206.000
  24391902.419    -4298350.01549  -3008550.93745  24391901.158    24391910.885
       212.000         148.000
  24767348.278    -6285868.20149  -4524641.46645  24767347.472    24767353.793
       202.000         140.000
  21216133.882   -18475446.62249 -14380381.97847  21216134.146    21216140.015
       243.000         209.000
